[[{"header":{"parameterUnit":"m.s-1","parameterCategory":1,"la1":31.0,"la2":29.5877,"lo1":-88.7671,"lo2":-86.6584,"dy":0.0162,"dx":0.0185,"nx":115,"ny":88,"refTime":"2023-03-15T18:00:00:Z","depth":0,"parameterNumber":2,"parameterNumberName":"U-component_of_WINDS"},"data":[0.0,0.0,0.0,0.0,0.0,0.0,0.0,0.0,0.0,0.0,0.0,0.0,0.0,0.0,0.0,0.0,0.0,0.0,0.0,0.0,0.0,0.0,0.0,0.0,0.0,0.0,0.0,0.0,0.0,0.0,0.0,0.0,0.0,0.0,0.0,0.0,0.0,0.0,0.0,0.0,0.0,0.0,0.0,0.0,0.0,0.0,0.0,0.0,0.0,0.0,0.0,0.0,0.0,0.0,0.0,0.0,0.0,0.0,0.0,0.0,0.0,0.0,0.0,0.0,0.0,0.0,0.0,0.0,0.0,0.0,0.0,0.0,0.0,0.0,0.0,0.0,0.0,0.0,0.0,0.0,0.0,0.0,0.0,0.0,0.0,0.0,0.0,0.0,0.0,0.0,0.0,0.0,0.0,0.0,0.0,0.0,0.0,0.0,0.0,0.0,0.0,0.0,0.0,0.0,0.0,0.0,0.0,0.0,0.0,0.0,0.0,0.0,0.0,0.0,0.0,0.0,0.0,0.0,0.0,0.0,0.0,0.0,0.0,0.0,0.0,0.0,0.0,0.0,0.0,0.0,0.0,0.0,0.0,0.0,0.0,0.0,0.0,0.0,0.0,0.0,0.0,0.0,0.0,0.0,0.0,0.0,0.0,0.0,0.0,0.0,0.0,0.0,0.0,0.0,0.0,0.0,0.0,0.0,0.0,0.0,0.0,0.0,0.0,0.0,0.0,0.0,0.0,0.0,0.0,0.0,0.0,0.0,0.0,0.0,0.0,0.0,0.0,0.0,0.0,0.0,0.0,0.0,0.0,0.0,0.0,0.0,0.0,0.0,0.0,0.0,0.0,0.0,0.0,0.0,0.0,0.0,0.0,0.0,0.0,0.0,0.0,0.0,0.0,0.0,0.0,0.0,0.0,0.0,0.0,0.0,0.0,0.0,0.0,0.0,0.0,0.0,0.0,0.0,0.0,0.0,0.0,0.0,0.0,0.0,0.0,0.0,0.0,0.0,0.0,0.0,0.0,0.0,0.0,0.0,0.0,0.0,0.0,0.0,0.0,0.0,0.0,0.0,0.0,0.0,0.0,0.0,0.0,0.0,0.0,0.0,0.0,0.0,0.0,0.0,0.0,0.0,0.0,0.0,0.0,0.0,0.0,0.0,0.0,0.0,0.0,0.0,0.0,0.0,0.0,0.0,0.0,0.0,0.0,0.0,0.0,0.0,0.0,0.0,0.0,0.0,0.0,0.0,0.0,0.0,0.0,0.0,0.0,0.0,0.0,0.0,0.0,0.0,0.0,0.0,0.0,0.0,0.0,0.0,0.0,0.0,0.0,0.0,0.0,0.0,0.0,0.0,0.0,0.0,0.0,0.0,0.0,0.0,0.0,0.0,0.0,0.0,0.0,0.0,0.0,0.0,0.0,0.0,0.0,0.0,0.0,0.0,0.0,0.0,0.0,0.0,0.0,0.0,0.0,0.0,0.0,0.0,0.0,0.0,0.0,0.0,0.0,0.0,0.0,0.0,0.0,0.0,0.0,0.0,0.0,0.0,0.0,0.0,0.0,0.0,0.0,0.0,0.0,0.0,0.0,0.0,0.0,0.0,0.0,0.0,0.0,0.0,0.0,0.0,0.0,0.0,0.0,0.0,0.0,0.0,0.0,0.0,0.0,0.0,0.0,0.0,0.0,0.0,0.0,0.0,0.0,0.0,0.0,0.0,0.0,0.0,0.0,0.0,0.0,0.0,0.0,0.0,0.0,0.0,0.0,0.0,0.0,0.0,0.0,0.0,0.0,0.0,0.0,0.0,0.0,0.0,0.0,0.0,0.0,0.0,0.0,0.0,0.0,0.0,0.0,0.0,0.0,0.0,0.0,0.0,0.0,0.0,0.0,0.0,0.0,0.0,0.0,0.0,0.0,0.0,0.0,0.0,0.0,0.0,0.0,0.0,0.0,0.0,0.0,0.0,0.0,0.0,0.0,0.0,0.0,0.0,0.0,0.0,0.0,0.0,0.0,0.0,0.0,0.0,0.0,0.0,0.0,0.0,0.0,0.0,0.0,0.0,0.0,0.0,0.0,0.0,0.0,0.0,0.0,0.0,0.0,0.0,0.0,0.0,0.0,0.0,0.0,0.0,0.0,0.0,0.0,0.0,0.0,0.0,0.0,0.0,0.0,0.0,0.0,0.0,0.0,0.0,0.0,0.0,0.0,0.0,0.0,0.0,0.0,0.0,0.0,0.0,0.0,0.0,0.0,0.0,0.0,0.0,0.0,0.0,0.0,0.0,0.0,0.0,0.0,0.0,0.0,0.0,0.0,0.0,0.0,0.0,0.0,0.0,0.0,0.0,0.0,0.0,0.0,0.0,0.0,0.0,0.0,0.0,0.0,0.0,0.0,0.0,0.0,0.0,0.0,0.0,0.0,0.0,0.0,0.0,0.0,0.0,0.0,0.0,0.0,0.0,0.0,0.0,0.0,0.0,0.0,0.0,0.0,0.0,0.0,0.0,0.0,0.0,0.0,0.0,0.0,0.0,0.0,0.0,0.0,0.0,0.0,0.0,0.0,0.0,0.0,0.0,0.0,0.0,0.0,0.0,0.0,0.0,0.0,0.0,0.0,0.0,0.0,0.0,0.0,0.0,0.0,0.0,0.0,0.0,0.0,0.0,0.0,0.0,0.0,0.0,0.0,0.0,0.0,0.0,0.0,0.0,0.0,0.0,0.0,0.0,0.0,0.0,0.0,0.0,0.0,0.0,0.0,0.0,0.0,0.0,0.0,0.0,0.0,0.0,0.0,0.0,0.0,0.0,0.0,0.0,0.0,0.0,0.0,0.0,0.0,0.0,0.0,0.0,0.0,0.0,0.0,0.0,0.0,0.0,0.0,0.0,0.0,0.0,0.0,0.0,0.0,0.0,0.0,0.0,0.0,0.0,0.0,0.0,0.0,0.0,0.0,0.0,0.0,0.0,0.0,0.0,0.0,0.0,0.0,0.0,0.0,0.0,0.0,0.0,0.0,0.0,0.0,0.0,0.0,0.0,0.0,0.0,0.0,0.0,0.0,0.0,0.0,0.0,0.0,0.0,0.0,0.0,0.0,0.0,0.0,0.0,0.0,0.0,0.0,0.0,0.0,0.0,0.0,0.0,0.0,0.0,0.0,0.0,0.0,0.0,0.0,0.0,0.0,0.0,0.0,0.0,0.0,0.0,0.0,0.0,0.0,0.0,0.0,0.0,0.0,0.0,0.0,0.0,0.0,0.0,0.0,0.0,0.0,0.0,0.0,0.0,0.0,0.0,0.0,0.0,0.0,0.0,0.0,0.0,0.0,0.0,0.0,0.0,0.0,0.0,0.0,0.0,0.0,0.0,0.0,0.0,0.0,0.0,0.0,0.0,0.0,0.0,0.0,0.0,0.0,0.0,0.0,0.0,0.0,0.0,0.0,0.0,0.0,0.0,0.0,0.0,0.0,0.0,0.0,0.0,0.0,0.0,0.0,0.0,0.0,0.0,0.0,0.0,0.0,0.0,0.0,0.0,0.0,0.0,0.0,0.0,0.0,0.0,0.0,0.0,0.0,0.0,0.0,0.0,0.0,0.0,0.0,0.0,0.0,0.0,0.0,0.0,0.0,0.0,0.0,0.0,0.0,0.0,0.0,0.0,0.0,0.0,0.0,0.0,0.0,0.0,0.0,0.0,0.0,0.0,0.0,0.0,0.0,0.0,0.0,0.0,0.0,0.0,0.0,0.0,0.0,0.0,0.0,0.0,0.0,0.0,0.0,0.0,0.0,0.0,0.0,0.0,0.0,0.0,0.0,0.0,0.0,0.0,0.0,0.0,0.0,0.0,0.0,0.0,0.0,0.0,0.0,0.0,0.0,0.0,0.0,0.0,0.0,0.0,0.0,0.0,0.0,0.0,0.0,0.0,0.0,0.0,0.0,0.0,0.0,0.0,0.0,0.0,0.0,0.0,0.0,0.0,0.0,0.0,0.0,0.0,0.0,0.0,0.0,0.0,0.0,0.0,0.0,0.0,0.0,0.0,0.0,0.0,0.0,0.0,0.0,0.0,0.0,0.0,0.0,0.0,0.0,0.0,0.0,0.0,0.0,0.0,0.0,0.0,0.0,0.0,0.0,0.0,0.0,0.0,0.0,0.0,0.0,0.0,0.0,0.0,0.0,0.0,0.0,0.0,0.0,0.0,0.0,0.0,0.0,0.0,0.0,0.0,0.0,0.0,0.0,0.0,0.0,0.0,0.0,0.0,0.0,0.0,0.0,0.0,-5.3225,0.0,0.0,0.0,0.0,0.0,0.0,0.0,0.0,0.0,0.0,0.0,0.0,0.0,0.0,0.0,0.0,0.0,0.0,0.0,0.0,0.0,0.0,0.0,0.0,0.0,0.0,0.0,0.0,0.0,0.0,0.0,0.0,0.0,0.0,0.0,0.0,0.0,0.0,0.0,0.0,0.0,0.0,0.0,0.0,0.0,0.0,0.0,0.0,0.0,0.0,0.0,0.0,0.0,0.0,0.0,0.0,0.0,0.0,0.0,0.0,0.0,0.0,0.0,0.0,0.0,0.0,0.0,0.0,0.0,0.0,0.0,0.0,0.0,0.0,0.0,0.0,0.0,0.0,0.0,0.0,0.0,0.0,0.0,0.0,0.0,0.0,0.0,0.0,0.0,0.0,0.0,0.0,0.0,0.0,0.0,0.0,0.0,0.0,0.0,0.0,0.0,0.0,0.0,0.0,0.0,0.0,0.0,0.0,0.0,0.0,-5.5212,-5.483,-5.483,-5.4639,-5.4256,0.0,0.0,0.0,0.0,0.0,0.0,0.0,0.0,0.0,0.0,0.0,0.0,0.0,0.0,0.0,0.0,0.0,0.0,0.0,0.0,0.0,0.0,0.0,0.0,0.0,0.0,0.0,0.0,0.0,0.0,0.0,0.0,0.0,0.0,0.0,0.0,0.0,0.0,0.0,0.0,0.0,0.0,0.0,0.0,0.0,0.0,0.0,0.0,0.0,0.0,0.0,0.0,0.0,0.0,0.0,0.0,0.0,0.0,0.0,0.0,0.0,0.0,0.0,0.0,0.0,0.0,0.0,0.0,0.0,0.0,0.0,0.0,0.0,0.0,0.0,0.0,0.0,0.0,0.0,0.0,0.0,0.0,0.0,0.0,0.0,0.0,0.0,0.0,0.0,0.0,0.0,0.0,0.0,0.0,0.0,0.0,0.0,0.0,0.0,0.0,0.0,0.0,0.0,0.0,0.0,0.0,0.0,0.0,0.0,0.0,0.0,0.0,-5.539,-5.539,-5.539,0.0,0.0,0.0,0.0,0.0,0.0,0.0,0.0,0.0,0.0,0.0,0.0,0.0,0.0,0.0,0.0,0.0,0.0,0.0,0.0,0.0,0.0,0.0,0.0,0.0,0.0,0.0,0.0,0.0,0.0,0.0,0.0,0.0,0.0,0.0,0.0,0.0,0.0,0.0,0.0,0.0,0.0,0.0,0.0,0.0,0.0,0.0,0.0,0.0,0.0,0.0,0.0,0.0,0.0,0.0,0.0,0.0,0.0,0.0,0.0,0.0,0.0,0.0,0.0,0.0,0.0,0.0,0.0,0.0,0.0,0.0,0.0,0.0,0.0,0.0,0.0,0.0,0.0,0.0,0.0,0.0,0.0,0.0,0.0,0.0,0.0,0.0,0.0,0.0,0.0,0.0,0.0,0.0,0.0,0.0,0.0,0.0,0.0,0.0,0.0,0.0,0.0,0.0,0.0,0.0,0.0,0.0,0.0,0.0,0.0,-5.539,-5.539,-5.5403,0.0,-5.539,0.0,0.0,0.0,0.0,0.0,0.0,0.0,0.0,0.0,0.0,0.0,0.0,0.0,0.0,0.0,0.0,0.0,0.0,0.0,0.0,0.0,0.0,0.0,0.0,0.0,0.0,0.0,0.0,0.0,0.0,0.0,0.0,0.0,0.0,0.0,0.0,0.0,0.0,0.0,0.0,0.0,0.0,0.0,0.0,0.0,0.0,0.0,0.0,0.0,0.0,0.0,0.0,0.0,0.0,0.0,0.0,0.0,0.0,0.0,0.0,0.0,0.0,0.0,0.0,0.0,0.0,0.0,0.0,0.0,0.0,0.0,0.0,0.0,0.0,0.0,0.0,0.0,0.0,0.0,0.0,0.0,0.0,0.0,0.0,0.0,0.0,0.0,0.0,0.0,0.0,0.0,0.0,0.0,0.0,0.0,0.0,0.0,0.0,0.0,0.0,0.0,0.0,0.0,0.0,0.0,0.0,0.0,0.0,0.0,0.0,-5.5899,-5.539,-5.5403,-5.5403,0.0,0.0,0.0,0.0,0.0,0.0,0.0,0.0,0.0,0.0,0.0,0.0,0.0,0.0,0.0,0.0,0.0,0.0,0.0,0.0,0.0,0.0,0.0,0.0,0.0,0.0,0.0,0.0,0.0,0.0,0.0,0.0,0.0,0.0,0.0,0.0,0.0,0.0,0.0,0.0,0.0,0.0,0.0,0.0,0.0,0.0,0.0,0.0,0.0,0.0,0.0,0.0,0.0,0.0,0.0,0.0,0.0,0.0,0.0,0.0,0.0,0.0,0.0,0.0,0.0,0.0,0.0,0.0,0.0,0.0,0.0,0.0,0.0,0.0,0.0,0.0,0.0,0.0,0.0,0.0,0.0,0.0,0.0,0.0,0.0,0.0,0.0,0.0,0.0,0.0,0.0,0.0,0.0,0.0,0.0,0.0,0.0,0.0,0.0,0.0,0.0,0.0,0.0,0.0,0.0,0.0,0.0,0.0,0.0,0.0,-5.5976,-5.5976,-5.5441,-5.5403,-5.5377,-5.5403,0.0,0.0,0.0,0.0,0.0,0.0,0.0,0.0,0.0,0.0,0.0,0.0,0.0,0.0,0.0,0.0,0.0,0.0,0.0,0.0,0.0,0.0,0.0,0.0,0.0,0.0,0.0,0.0,0.0,0.0,0.0,0.0,0.0,0.0,0.0,0.0,0.0,0.0,0.0,0.0,0.0,0.0,0.0,0.0,0.0,0.0,0.0,0.0,0.0,0.0,0.0,0.0,0.0,0.0,0.0,0.0,0.0,0.0,0.0,0.0,0.0,0.0,0.0,0.0,0.0,0.0,0.0,0.0,0.0,0.0,0.0,0.0,0.0,0.0,0.0,0.0,0.0,0.0,0.0,0.0,0.0,0.0,0.0,0.0,0.0,0.0,0.0,0.0,0.0,0.0,0.0,0.0,0.0,0.0,0.0,0.0,0.0,0.0,0.0,0.0,0.0,0.0,0.0,0.0,0.0,0.0,0.0,0.0,-5.539,-5.5441,-5.5441,-5.5441,-5.5403,-5.5403,0.0,0.0,0.0,0.0,0.0,0.0,0.0,0.0,0.0,0.0,0.0,0.0,0.0,0.0,0.0,0.0,0.0,0.0,0.0,0.0,0.0,0.0,0.0,0.0,0.0,0.0,0.0,0.0,0.0,0.0,0.0,0.0,0.0,0.0,0.0,0.0,0.0,0.0,0.0,0.0,0.0,0.0,0.0,0.0,0.0,0.0,0.0,0.0,0.0,0.0,0.0,0.0,0.0,0.0,0.0,0.0,0.0,0.0,0.0,0.0,0.0,0.0,0.0,0.0,0.0,0.0,0.0,0.0,0.0,0.0,0.0,0.0,0.0,0.0,0.0,0.0,0.0,0.0,0.0,0.0,0.0,0.0,0.0,0.0,0.0,0.0,0.0,0.0,0.0,0.0,0.0,0.0,0.0,0.0,0.0,0.0,0.0,0.0,0.0,0.0,0.0,0.0,0.0,0.0,0.0,0.0,0.0,0.0,0.0,-5.539,-5.539,-5.5632,-5.6129,-5.567,-5.5403,0.0,0.0,0.0,0.0,0.0,0.0,0.0,0.0,0.0,0.0,0.0,0.0,0.0,0.0,0.0,0.0,0.0,0.0,0.0,0.0,0.0,0.0,0.0,0.0,0.0,0.0,0.0,0.0,0.0,0.0,0.0,0.0,0.0,0.0,0.0,0.0,0.0,0.0,0.0,0.0,0.0,0.0,0.0,0.0,0.0,0.0,0.0,0.0,0.0,0.0,0.0,0.0,0.0,0.0,0.0,0.0,0.0,0.0,0.0,0.0,0.0,0.0,0.0,0.0,0.0,0.0,0.0,0.0,0.0,0.0,0.0,0.0,0.0,0.0,0.0,0.0,0.0,0.0,0.0,0.0,0.0,0.0,0.0,0.0,0.0,0.0,0.0,0.0,0.0,0.0,0.0,0.0,0.0,0.0,0.0,0.0,0.0,0.0,0.0,0.0,0.0,0.0,0.0,0.0,0.0,0.0,0.0,0.0,0.0,-5.539,0.0,-5.5683,0.0,-5.5683,-5.5377,0.0,0.0,0.0,0.0,0.0,0.0,0.0,0.0,0.0,0.0,0.0,0.0,0.0,0.0,0.0,0.0,0.0,0.0,0.0,0.0,0.0,0.0,0.0,0.0,0.0,0.0,0.0,0.0,0.0,0.0,0.0,0.0,0.0,0.0,0.0,0.0,0.0,0.0,0.0,0.0,0.0,0.0,0.0,0.0,0.0,0.0,0.0,0.0,0.0,0.0,0.0,0.0,0.0,0.0,0.0,0.0,0.0,0.0,0.0,0.0,0.0,0.0,0.0,0.0,0.0,0.0,0.0,0.0,0.0,0.0,0.0,0.0,0.0,0.0,0.0,0.0,0.0,0.0,0.0,0.0,0.0,0.0,0.0,0.0,0.0,0.0,0.0,0.0,0.0,0.0,0.0,0.0,0.0,0.0,0.0,0.0,0.0,0.0,0.0,0.0,0.0,0.0,0.0,0.0,0.0,0.0,0.0,0.0,-5.5441,-5.5441,-5.5479,-5.5543,-5.5453,-5.5479,-5.5428,0.0,0.0,0.0,0.0,0.0,0.0,0.0,0.0,0.0,0.0,0.0,0.0,0.0,0.0,0.0,0.0,0.0,0.0,0.0,0.0,0.0,0.0,0.0,0.0,0.0,0.0,0.0,0.0,0.0,0.0,0.0,0.0,0.0,0.0,0.0,0.0,0.0,0.0,0.0,0.0,0.0,0.0,0.0,0.0,0.0,0.0,0.0,0.0,0.0,0.0,0.0,0.0,0.0,0.0,0.0,0.0,0.0,0.0,0.0,0.0,0.0,0.0,0.0,0.0,0.0,0.0,0.0,0.0,0.0,0.0,0.0,0.0,0.0,0.0,0.0,0.0,0.0,0.0,0.0,0.0,0.0,0.0,0.0,0.0,0.0,0.0,0.0,0.0,0.0,0.0,0.0,0.0,0.0,0.0,0.0,0.0,0.0,0.0,0.0,0.0,0.0,0.0,0.0,0.0,0.0,0.0,0.0,0.0,0.0,-5.6243,-5.6816,-5.7135,-5.711,-5.6524,-5.6244,0.0,0.0,0.0,0.0,0.0,0.0,0.0,0.0,0.0,0.0,0.0,0.0,0.0,0.0,0.0,0.0,0.0,0.0,0.0,0.0,0.0,0.0,0.0,0.0,0.0,0.0,0.0,0.0,0.0,0.0,0.0,0.0,0.0,0.0,0.0,0.0,0.0,0.0,0.0,0.0,0.0,0.0,0.0,0.0,0.0,0.0,0.0,0.0,0.0,0.0,0.0,0.0,0.0,0.0,0.0,0.0,0.0,0.0,0.0,0.0,0.0,0.0,0.0,0.0,0.0,0.0,0.0,0.0,0.0,0.0,0.0,0.0,0.0,0.0,0.0,0.0,0.0,0.0,0.0,0.0,0.0,0.0,0.0,0.0,0.0,0.0,0.0,0.0,0.0,0.0,0.0,0.0,0.0,0.0,0.0,0.0,0.0,0.0,0.0,0.0,0.0,0.0,0.0,0.0,0.0,0.0,0.0,0.0,0.0,-5.8421,-5.8689,-5.8855,-5.8882,-5.8014,-5.7429,-5.7188,0.0,0.0,0.0,0.0,0.0,0.0,0.0,0.0,0.0,0.0,0.0,0.0,0.0,0.0,0.0,0.0,0.0,0.0,0.0,0.0,0.0,0.0,0.0,0.0,0.0,0.0,0.0,0.0,0.0,0.0,0.0,0.0,0.0,0.0,0.0,0.0,0.0,0.0,0.0,0.0,0.0,0.0,0.0,0.0,0.0,0.0,0.0,0.0,0.0,0.0,0.0,0.0,0.0,0.0,0.0,0.0,0.0,0.0,0.0,0.0,0.0,0.0,0.0,0.0,0.0,0.0,0.0,0.0,0.0,0.0,0.0,0.0,0.0,0.0,0.0,0.0,0.0,0.0,0.0,0.0,0.0,0.0,0.0,0.0,0.0,0.0,0.0,0.0,0.0,0.0,0.0,0.0,0.0,0.0,0.0,0.0,0.0,0.0,0.0,0.0,0.0,0.0,0.0,0.0,0.0,0.0,0.0,0.0,-6.1707,-6.1249,-6.0933,-6.0797,-5.9824,-5.8945,0.0,0.0,0.0,0.0,0.0,0.0,0.0,0.0,0.0,0.0,0.0,0.0,0.0,0.0,0.0,0.0,0.0,0.0,0.0,0.0,0.0,0.0,0.0,0.0,0.0,0.0,0.0,0.0,0.0,0.0,0.0,0.0,0.0,0.0,0.0,0.0,0.0,0.0,0.0,0.0,0.0,0.0,0.0,0.0,0.0,0.0,0.0,0.0,0.0,0.0,0.0,0.0,0.0,0.0,0.0,0.0,0.0,0.0,0.0,0.0,0.0,0.0,0.0,0.0,0.0,0.0,0.0,0.0,0.0,0.0,0.0,0.0,0.0,0.0,0.0,0.0,0.0,0.0,0.0,0.0,0.0,0.0,0.0,0.0,0.0,0.0,0.0,0.0,0.0,0.0,0.0,0.0,0.0,0.0,0.0,0.0,0.0,0.0,0.0,0.0,0.0,0.0,0.0,0.0,0.0,0.0,0.0,0.0,0.0,-6.3518,-6.6292,-6.6598,-6.422,-6.2734,-6.1308,0.0,0.0,0.0,0.0,0.0,0.0,0.0,0.0,0.0,0.0,0.0,0.0,0.0,0.0,0.0,0.0,0.0,0.0,0.0,0.0,0.0,0.0,0.0,0.0,0.0,0.0,0.0,0.0,0.0,0.0,0.0,0.0,0.0,0.0,0.0,0.0,0.0,0.0,0.0,0.0,0.0,0.0,0.0,0.0,0.0,0.0,0.0,0.0,0.0,0.0,0.0,0.0,0.0,0.0,0.0,0.0,0.0,0.0,0.0,0.0,0.0,0.0,0.0,0.0,0.0,0.0,0.0,0.0,0.0,0.0,0.0,0.0,0.0,0.0,0.0,0.0,0.0,0.0,0.0,0.0,0.0,0.0,0.0,0.0,0.0,0.0,0.0,0.0,0.0,0.0,0.0,0.0,0.0,0.0,0.0,0.0,0.0,0.0,0.0,0.0,0.0,0.0,0.0,0.0,0.0,0.0,0.0,0.0,-6.2968,-6.5719,-6.9502,-7.0724,-6.912,-6.6453,-6.3781,0.0,0.0,0.0,0.0,0.0,0.0,0.0,0.0,0.0,0.0,0.0,0.0,0.0,0.0,0.0,0.0,0.0,0.0,0.0,0.0,0.0,0.0,0.0,0.0,0.0,0.0,0.0,0.0,0.0,0.0,0.0,0.0,0.0,0.0,0.0,0.0,0.0,0.0,0.0,0.0,0.0,0.0,0.0,0.0,0.0,0.0,0.0,0.0,0.0,0.0,0.0,0.0,0.0,0.0,0.0,0.0,0.0,0.0,0.0,0.0,0.0,0.0,0.0,0.0,0.0,0.0,0.0,0.0,0.0,0.0,0.0,0.0,0.0,0.0,0.0,0.0,0.0,0.0,0.0,0.0,0.0,0.0,0.0,0.0,0.0,0.0,0.0,0.0,0.0,0.0,0.0,0.0,0.0,0.0,0.0,0.0,0.0,0.0,0.0,0.0,0.0,0.0,0.0,0.0,0.0,0.0,0.0,0.0,-6.4,-6.8088,-7.1565,-7.3743,-7.4316,-7.0397,-6.6223,0.0,0.0,0.0,0.0,0.0,0.0,0.0,0.0,0.0,0.0,0.0,0.0,0.0,0.0,0.0,0.0,0.0,0.0,0.0,0.0,0.0,0.0,0.0,0.0,0.0,0.0,0.0,0.0,0.0,0.0,0.0,0.0,0.0,0.0,0.0,0.0,0.0,0.0,0.0,0.0,0.0,0.0,0.0,0.0,0.0,0.0,0.0,0.0,0.0,0.0,0.0,0.0,0.0,0.0,0.0,0.0,0.0,0.0,0.0,0.0,0.0,0.0,0.0,0.0,0.0,0.0,0.0,0.0,0.0,0.0,0.0,0.0,0.0,0.0,0.0,0.0,0.0,0.0,0.0,0.0,0.0,0.0,0.0,0.0,0.0,0.0,0.0,0.0,0.0,0.0,0.0,0.0,0.0,0.0,0.0,0.0,0.0,0.0,0.0,0.0,0.0,0.0,0.0,0.0,0.0,0.0,0.0,0.0,-6.633,-6.9846,-7.3819,-7.5997,-7.615,-7.2215,-6.8074,0.0,0.0,0.0,0.0,0.0,0.0,0.0,0.0,0.0,0.0,0.0,0.0,0.0,0.0,0.0,0.0,0.0,0.0,0.0,0.0,0.0,0.0,0.0,0.0,0.0,0.0,0.0,0.0,0.0,0.0,0.0,0.0,0.0,0.0,0.0,0.0,0.0,0.0,0.0,0.0,0.0,0.0,0.0,0.0,0.0,0.0,0.0,0.0,-6.1281,0.0,0.0,0.0,0.0,0.0,0.0,0.0,0.0,0.0,0.0,0.0,0.0,0.0,0.0,0.0,0.0,0.0,0.0,0.0,0.0,0.0,0.0,0.0,0.0,0.0,0.0,0.0,0.0,0.0,0.0,0.0,0.0,0.0,0.0,0.0,0.0,0.0,0.0,0.0,0.0,0.0,0.0,0.0,0.0,0.0,0.0,0.0,0.0,0.0,0.0,0.0,0.0,0.0,0.0,0.0,0.0,0.0,0.0,0.0,-6.8012,-7.21,-7.5959,-7.8099,-7.8328,-7.4549,-7.0233,0.0,0.0,0.0,0.0,0.0,0.0,0.0,0.0,0.0,0.0,0.0,0.0,0.0,0.0,0.0,0.0,0.0,0.0,0.0,0.0,0.0,0.0,0.0,0.0,0.0,0.0,0.0,0.0,0.0,0.0,0.0,0.0,0.0,0.0,0.0,0.0,0.0,0.0,0.0,0.0,0.0,0.0,0.0,0.0,0.0,0.0,0.0,0.0,0.0,0.0,0.0,0.0,0.0,0.0,0.0,0.0,0.0,0.0,0.0,0.0,0.0,0.0,0.0,0.0,0.0,0.0,0.0,0.0,0.0,0.0,0.0,0.0,0.0,0.0,0.0,0.0,0.0,0.0,0.0,0.0,0.0,0.0,0.0,0.0,0.0,0.0,0.0,0.0,0.0,0.0,0.0,0.0,0.0,0.0,0.0,0.0,0.0,0.0,0.0,0.0,0.0,0.0,0.0,0.0,0.0,0.0,0.0,-6.4688,-6.9655,-7.4469,-7.7793,-7.978,-8.0391,-7.6505,-7.2056,-6.7214,0.0,0.0,0.0,0.0,0.0,0.0,0.0,0.0,0.0,0.0,0.0,0.0,0.0,0.0,0.0,0.0,0.0,0.0,0.0,0.0,0.0,0.0,0.0,0.0,0.0,0.0,0.0,0.0,0.0,0.0,0.0,0.0,0.0,0.0,0.0,0.0,0.0,0.0,-6.2447,-6.4243,0.0,0.0,0.0,0.0,0.0,0.0,0.0,0.0,-6.5628,0.0,0.0,0.0,0.0,0.0,0.0,0.0,0.0,0.0,0.0,0.0,0.0,0.0,0.0,0.0,0.0,0.0,0.0,0.0,0.0,0.0,0.0,0.0,0.0,0.0,0.0,0.0,0.0,0.0,0.0,0.0,0.0,0.0,0.0,0.0,0.0,0.0,0.0,0.0,0.0,0.0,0.0,0.0,0.0,0.0,0.0,0.0,0.0,0.0,0.0,0.0,0.0,0.0,0.0,0.0,0.0,-6.228,-6.7247,-7.1909,-7.6188,-7.8901,-8.0353,-8.0391,-7.6467,-7.2285,-6.7995,0.0,0.0,0.0,0.0,0.0,0.0,0.0,0.0,0.0,0.0,0.0,0.0,0.0,0.0,0.0,0.0,0.0,0.0,0.0,0.0,0.0,0.0,0.0,0.0,0.0,0.0,0.0,0.0,0.0,0.0,0.0,0.0,0.0,0.0,0.0,0.0,0.0,0.0,0.0,-6.7321,-6.859,0.0,0.0,0.0,0.0,0.0,0.0,0.0,0.0,-6.5513,0.0,0.0,0.0,0.0,0.0,0.0,0.0,0.0,0.0,0.0,0.0,0.0,0.0,0.0,0.0,0.0,0.0,0.0,0.0,0.0,0.0,0.0,0.0,0.0,0.0,0.0,0.0,0.0,0.0,0.0,0.0,0.0,0.0,0.0,0.0,0.0,0.0,0.0,0.0,0.0,0.0,0.0,0.0,0.0,0.0,0.0,0.0,0.0,0.0,0.0,0.0,0.0,0.0,0.0,0.0,-6.484,-6.9846,-7.4431,-7.8557,-8.1156,-8.2073,-8.1117,-7.7103,-7.2581,0.0,0.0,0.0,0.0,0.0,0.0,0.0,0.0,0.0,0.0,0.0,0.0,0.0,0.0,0.0,0.0,0.0,0.0,0.0,0.0,0.0,0.0,0.0,0.0,0.0,0.0,0.0,0.0,0.0,0.0,0.0,0.0,0.0,0.0,0.0,0.0,0.0,0.0,0.0,0.0,-6.9398,-7.086,-7.0437,0.0,0.0,0.0,0.0,0.0,0.0,-7.0591,-6.8436,0.0,0.0,0.0,0.0,0.0,0.0,0.0,0.0,0.0,0.0,0.0,0.0,0.0,0.0,0.0,0.0,0.0,0.0,0.0,0.0,0.0,0.0,0.0,0.0,0.0,0.0,0.0,0.0,0.0,0.0,0.0,0.0,0.0,0.0,0.0,0.0,0.0,0.0,0.0,0.0,0.0,0.0,0.0,0.0,0.0,0.0,0.0,0.0,0.0,0.0,0.0,0.0,0.0,0.0,0.0,-6.7362,-7.2253,-7.6723,-8.085,-8.3142,-8.341,-8.1538,-7.762,-7.2685,0.0,0.0,0.0,0.0,0.0,0.0,0.0,0.0,0.0,0.0,0.0,0.0,0.0,0.0,0.0,0.0,0.0,0.0,0.0,0.0,0.0,0.0,0.0,0.0,0.0,0.0,0.0,0.0,0.0,0.0,0.0,0.0,0.0,0.0,0.0,0.0,0.0,0.0,0.0,0.0,0.0,-7.2706,-7.2706,-7.413,0.0,0.0,0.0,0.0,-7.4245,-7.3129,0.0,0.0,0.0,0.0,0.0,0.0,0.0,0.0,0.0,0.0,0.0,0.0,0.0,0.0,0.0,0.0,0.0,0.0,0.0,0.0,0.0,0.0,0.0,0.0,0.0,0.0,0.0,0.0,0.0,0.0,0.0,0.0,0.0,0.0,0.0,0.0,0.0,0.0,0.0,0.0,0.0,0.0,0.0,0.0,0.0,0.0,0.0,0.0,0.0,0.0,0.0,0.0,0.0,0.0,0.0,0.0,-6.9846,-7.4201,-7.8443,-8.2493,-8.3715,-8.3142,-8.0697,-7.7367,-7.2499,0.0,0.0,0.0,0.0,0.0,0.0,0.0,0.0,0.0,0.0,0.0,0.0,0.0,0.0,0.0,0.0,0.0,0.0,0.0,0.0,0.0,0.0,0.0,0.0,0.0,0.0,0.0,0.0,0.0,0.0,0.0,0.0,0.0,0.0,0.0,0.0,0.0,0.0,0.0,0.0,0.0,-7.4399,-7.4399,-7.5899,-7.6938,0.0,0.0,-7.6823,-7.5861,-7.4399,0.0,0.0,0.0,0.0,0.0,0.0,0.0,0.0,0.0,0.0,0.0,0.0,0.0,0.0,0.0,0.0,0.0,0.0,0.0,0.0,0.0,0.0,0.0,0.0,0.0,0.0,0.0,0.0,0.0,0.0,0.0,0.0,0.0,0.0,0.0,0.0,0.0,0.0,0.0,0.0,0.0,0.0,0.0,0.0,0.0,0.0,0.0,0.0,0.0,0.0,0.0,0.0,0.0,0.0,0.0,-6.4382,-7.103,-7.5768,-7.9971,-8.3601,-8.4556,-8.3563,-8.0582,-7.7329,-7.269,0.0,0.0,0.0,0.0,0.0,0.0,0.0,0.0,0.0,0.0,0.0,0.0,0.0,0.0,0.0,0.0,0.0,0.0,0.0,0.0,0.0,0.0,0.0,0.0,0.0,0.0,0.0,0.0,0.0,0.0,0.0,0.0,0.0,0.0,0.0,0.0,0.0,0.0,0.0,0.0,0.0,0.0,-7.6092,-7.763,0.0,0.0,0.0,-7.8438,-7.7553,0.0,0.0,0.0,0.0,0.0,0.0,0.0,0.0,0.0,0.0,0.0,0.0,0.0,0.0,0.0,0.0,0.0,0.0,0.0,0.0,0.0,0.0,0.0,0.0,0.0,0.0,0.0,0.0,0.0,0.0,0.0,0.0,0.0,0.0,0.0,0.0,0.0,0.0,0.0,0.0,0.0,0.0,0.0,0.0,0.0,0.0,0.0,0.0,0.0,0.0,0.0,0.0,0.0,0.0,0.0,0.0,0.0,-7.252,-7.722,-8.1232,-8.448,-8.5167,-8.4021,-8.0888,-7.7617,0.0,0.0,0.0,0.0,0.0,0.0,0.0,0.0,0.0,0.0,0.0,0.0,0.0,0.0,0.0,0.0,0.0,0.0,0.0,0.0,0.0,0.0,0.0,0.0,0.0,0.0,0.0,-5.6291,0.0,0.0,0.0,0.0,0.0,0.0,0.0,0.0,0.0,0.0,0.0,0.0,0.0,0.0,-7.6707,-7.7784,-7.9169,-7.99,0.0,0.0,-7.9746,-7.8669,-7.6553,-7.4014,0.0,0.0,0.0,0.0,0.0,0.0,0.0,0.0,0.0,0.0,0.0,0.0,0.0,0.0,0.0,0.0,0.0,0.0,0.0,0.0,0.0,0.0,0.0,0.0,0.0,0.0,0.0,0.0,0.0,0.0,0.0,0.0,0.0,0.0,0.0,0.0,0.0,0.0,0.0,0.0,0.0,0.0,0.0,0.0,0.0,0.0,0.0,0.0,0.0,0.0,0.0,0.0,0.0,0.0,0.0,-7.5021,-7.8672,-8.2034,-8.5282,-8.5473,-8.4289,-8.1767,-7.8404,-7.3925,0.0,0.0,0.0,0.0,0.0,0.0,0.0,0.0,0.0,0.0,0.0,0.0,0.0,0.0,0.0,0.0,0.0,0.0,0.0,0.0,0.0,0.0,0.0,0.0,0.0,0.0,0.0,0.0,0.0,0.0,0.0,0.0,0.0,0.0,0.0,0.0,0.0,0.0,0.0,0.0,0.0,-7.7784,-7.94,-8.0439,-8.0977,0.0,0.0,-8.0439,-7.8746,-7.7053,-7.4514,-7.0475,0.0,0.0,0.0,0.0,0.0,0.0,0.0,0.0,0.0,0.0,0.0,0.0,0.0,0.0,0.0,0.0,0.0,0.0,0.0,0.0,0.0,0.0,0.0,0.0,0.0,0.0,0.0,0.0,0.0,0.0,0.0,0.0,0.0,0.0,0.0,0.0,0.0,0.0,0.0,0.0,0.0,0.0,0.0,0.0,0.0,0.0,0.0,0.0,0.0,0.0,0.0,0.0,0.0,-6.656,-7.3858,-7.8787,-8.2684,-8.5397,-8.6046,-8.4862,-8.1881,-7.9032,-7.5068,0.0,0.0,0.0,0.0,0.0,0.0,0.0,0.0,0.0,0.0,0.0,0.0,0.0,0.0,0.0,0.0,0.0,0.0,0.0,0.0,0.0,0.0,0.0,0.0,0.0,0.0,0.0,0.0,-5.8396,-5.8269,-5.8269,0.0,0.0,0.0,0.0,0.0,0.0,0.0,0.0,0.0,0.0,-7.79,-7.9592,-8.0554,0.0,0.0,-8.1093,-8.0669,-7.9477,-7.7438,-7.5091,-7.2476,-6.8359,0.0,0.0,0.0,0.0,0.0,0.0,0.0,0.0,0.0,0.0,0.0,0.0,0.0,0.0,0.0,0.0,0.0,0.0,0.0,0.0,0.0,0.0,0.0,0.0,0.0,0.0,0.0,0.0,0.0,0.0,0.0,0.0,0.0,0.0,0.0,0.0,0.0,0.0,0.0,0.0,0.0,0.0,0.0,0.0,0.0,0.0,0.0,0.0,0.0,0.0,0.0,0.0,-6.6483,-7.3667,-7.9054,-8.3142,-8.5855,-8.6505,-8.5588,-8.2951,-8.0044,-7.6365,0.0,0.0,0.0,0.0,0.0,0.0,0.0,0.0,0.0,0.0,0.0,0.0,0.0,0.0,0.0,0.0,0.0,0.0,0.0,0.0,0.0,0.0,0.0,0.0,0.0,0.0,0.0,0.0,-5.8396,-5.7934,-5.7934,0.0,0.0,0.0,0.0,0.0,0.0,0.0,0.0,0.0,0.0,-7.8284,-7.9939,-8.0708,-8.1093,-8.1093,-8.09,-8.04,-7.9554,-7.7284,-7.5053,-7.3399,0.0,0.0,0.0,0.0,0.0,0.0,0.0,0.0,0.0,0.0,0.0,0.0,0.0,0.0,0.0,0.0,0.0,0.0,0.0,0.0,0.0,0.0,0.0,0.0,0.0,0.0,0.0,0.0,0.0,0.0,-5.1095,0.0,0.0,0.0,0.0,0.0,0.0,0.0,0.0,0.0,0.0,0.0,0.0,0.0,0.0,0.0,0.0,0.0,0.0,0.0,0.0,0.0,0.0,-6.7018,-7.5289,-7.9627,-8.341,-8.6599,-8.681,-8.6352,-8.532,-8.1516,-7.776,-7.428,0.0,0.0,0.0,0.0,0.0,0.0,0.0,0.0,0.0,0.0,0.0,0.0,0.0,0.0,0.0,0.0,0.0,0.0,0.0,0.0,0.0,0.0,0.0,0.0,0.0,0.0,-5.8319,-5.7538,-5.7049,0.0,0.0,0.0,0.0,0.0,0.0,0.0,0.0,0.0,0.0,-7.74,-7.9092,-8.0823,-8.1093,-8.1093,-8.1093,-8.04,-7.9515,-7.8669,-7.6438,-7.4168,0.0,0.0,0.0,0.0,0.0,0.0,0.0,0.0,0.0,0.0,0.0,0.0,0.0,0.0,0.0,0.0,0.0,0.0,0.0,0.0,0.0,0.0,0.0,0.0,0.0,0.0,0.0,-5.5611,-5.5566,0.0,0.0,0.0,0.0,0.0,0.0,0.0,0.0,0.0,0.0,0.0,-6.3236,-6.2739,0.0,0.0,0.0,0.0,0.0,0.0,0.0,0.0,0.0,0.0,0.0,0.0,-6.6789,-7.4469,-7.9895,-8.3677,-8.5893,-8.7078,-8.6696,-8.4747,-8.2302,-7.8168,-7.2134,0.0,0.0,0.0,0.0,0.0,0.0,0.0,0.0,0.0,0.0,0.0,0.0,0.0,0.0,0.0,0.0,0.0,0.0,0.0,0.0,0.0,0.0,0.0,0.0,0.0,-5.8665,0.0,0.0,0.0,0.0,0.0,0.0,0.0,0.0,0.0,0.0,0.0,-7.3014,-7.6399,-7.7823,-7.9131,-8.0862,-8.1093,-8.1093,0.0,0.0,0.0,0.0,0.0,0.0,0.0,0.0,0.0,0.0,0.0,0.0,0.0,0.0,-7.0706,-6.7321,-6.6705,-6.6551,-6.5974,0.0,0.0,0.0,0.0,0.0,0.0,0.0,0.0,0.0,0.0,0.0,0.0,0.0,0.0,-5.9865,0.0,-5.78,0.0,0.0,0.0,0.0,0.0,0.0,0.0,0.0,-6.442,-6.5987,-6.7553,-6.7362,-6.6942,0.0,-6.5184,-6.2815,0.0,0.0,0.0,0.0,0.0,0.0,0.0,0.0,-6.7095,-7.4507,-7.9856,-8.3677,-8.5893,-8.7078,-8.6849,-8.5206,-8.2741,-7.8488,-7.2257,-6.9121,-6.5692,0.0,0.0,0.0,0.0,0.0,0.0,0.0,0.0,0.0,0.0,0.0,0.0,0.0,0.0,0.0,0.0,0.0,0.0,0.0,0.0,0.0,0.0,0.0,-5.905,0.0,0.0,0.0,0.0,0.0,0.0,0.0,0.0,0.0,-6.8205,-7.0898,-7.3822,-7.6899,-7.7992,-7.9131,-8.0862,0.0,0.0,0.0,0.0,0.0,0.0,0.0,-7.7515,-7.6976,-7.7361,-7.8054,-7.8938,-7.9092,-7.9477,-8.0592,0.0,0.0,-7.3745,-7.2745,-7.2552,-7.2014,-7.2168,-7.2629,-7.3476,-7.3899,-7.4476,0.0,0.0,0.0,0.0,0.0,0.0,0.0,0.0,-6.5703,-6.5956,0.0,-6.3385,0.0,0.0,0.0,0.0,0.0,-5.9873,0.0,0.0,-6.8133,-7.0211,-7.1723,-7.2546,-7.2143,-7.0577,-7.0386,-6.9088,-6.656,-6.1019,0.0,0.0,0.0,0.0,0.0,0.0,-6.7989,-7.5386,-7.9665,-8.341,-8.6561,-8.681,-8.6772,-8.6581,-8.2909,-7.8947,-7.4919,-7.2356,-6.9475,-6.6167,-6.3563,0.0,0.0,0.0,0.0,0.0,0.0,0.0,0.0,0.0,0.0,0.0,0.0,0.0,0.0,0.0,0.0,0.0,0.0,0.0,0.0,-6.0165,0.0,0.0,0.0,0.0,0.0,0.0,0.0,0.0,0.0,0.0,-6.8898,-7.1629,-7.4553,-7.713,0.0,0.0,0.0,0.0,-8.2401,-8.2401,-8.1708,-8.1208,-8.1208,-7.9823,-7.8723,-7.8746,0.0,0.0,-8.467,-8.5093,-8.5555,-8.7209,-8.7363,-8.5747,-8.0131,-7.9015,-7.8861,-7.8838,-7.9438,-8.0323,-8.117,-8.1785,-8.2631,-7.2239,0.0,0.0,0.0,0.0,-6.6733,-6.8568,-7.0202,-7.1547,-7.1539,-7.0473,-6.8507,0.0,0.0,0.0,0.0,0.0,0.0,-6.6173,-6.8542,-7.1048,-7.2601,-7.3312,-7.418,-7.4199,-7.344,-7.2263,-7.1195,-7.0151,-6.6751,-6.3579,-6.0738,0.0,0.0,0.0,0.0,-6.9387,-7.6112,-7.9933,-8.3142,-8.5817,-8.6505,-8.6257,-8.5112,-8.296,-8.0663,-7.8299,-7.5278,-7.2322,-6.9552,-6.6474,0.0,0.0,0.0,0.0,0.0,0.0,0.0,0.0,0.0,0.0,0.0,0.0,0.0,0.0,0.0,0.0,0.0,0.0,0.0,-6.4282,-6.3666,-6.2666,0.0,0.0,0.0,0.0,0.0,0.0,0.0,0.0,0.0,-7.4514,-7.5014,-7.6476,0.0,0.0,-8.0977,-8.2631,-8.3593,-8.4132,-8.4132,-8.3439,0.0,-8.3708,-8.2862,-8.2362,-8.2978,-8.4978,-8.7171,-8.9056,-8.9402,-8.9748,-9.0825,-9.1056,-9.0594,-8.9594,-8.7363,-8.5863,-8.5786,-8.5978,-8.6401,-8.7209,-8.8055,-8.8863,-7.9837,-7.4111,-7.0587,-6.9559,-7.0477,-7.2569,-7.4359,-7.5797,-7.694,-7.6903,-7.5849,-7.3653,-7.1447,-6.9213,-6.6511,0.0,0.0,0.0,-6.9568,-7.1442,-7.3576,-7.4877,-7.545,-7.6502,-7.6715,-7.6162,-7.5035,-7.4028,-7.3187,-7.0992,-6.8738,-6.633,0.0,0.0,-6.5184,-6.7171,-7.0992,-7.657,-8.0047,-8.2837,-8.4976,-8.5855,-8.5665,-8.4442,-8.3246,-8.1836,-8.0197,-7.7624,-7.5014,-7.2514,-6.9513,-6.659,0.0,0.0,0.0,0.0,0.0,0.0,0.0,0.0,0.0,0.0,0.0,-5.7253,-5.7945,0.0,0.0,0.0,-6.3615,-6.6013,-6.7705,-6.6821,0.0,0.0,0.0,0.0,0.0,0.0,0.0,-7.2899,-7.5168,-7.7361,-7.9477,-7.9631,-8.0169,-8.1862,-8.2093,-8.2708,-8.4362,0.0,-8.5901,-8.5901,-8.544,-8.5286,-8.5824,-8.5747,-8.6132,-8.7671,-8.9133,-9.0748,-9.2364,-9.271,-9.3018,-9.3749,-9.4018,-9.4172,-9.4634,-9.3018,-9.1441,-9.0825,-9.0671,-9.1056,-9.221,-9.2864,-9.3557,-8.6407,-8.4462,-7.8552,-7.635,-7.6937,-7.8552,-7.9983,-8.1223,-8.1917,-8.1896,-8.1157,-7.8788,-7.6268,-7.3653,-7.0787,0.0,-7.1439,-7.1673,-7.2632,-7.4182,-7.573,-7.6854,-7.7642,-7.8934,-7.9204,-7.8414,-7.8198,-7.7222,-7.5653,-7.4049,-7.2902,-7.2002,-6.74,-6.5757,-6.7171,-6.9425,-7.2635,-7.6761,-8.0047,-8.2569,-8.4365,-8.5129,-8.5188,-8.4518,-8.3747,-8.2608,-8.1173,-7.9523,-7.7438,-7.4976,-7.2552,-6.9667,-6.6359,0.0,0.0,0.0,0.0,0.0,0.0,0.0,0.0,0.0,0.0,0.0,0.0,0.0,0.0,0.0,-6.6808,0.0,-7.1245,-6.9937,0.0,0.0,0.0,-7.0129,-7.2552,-7.4284,-7.6245,-7.8707,0.0,0.0,-8.3785,-8.4709,-8.4978,-8.4362,-8.4132,-8.4593,-8.617,-8.7286,-8.7825,-8.7902,-8.7825,-8.7863,-8.8132,-8.8632,-8.9825,-9.1979,-9.271,-9.3249,-9.4634,-9.5018,-9.5403,-9.598,-9.6249,-9.6249,-9.6249,-9.6019,-9.5788,-9.4095,-9.3826,-9.4364,-9.5749,-9.6249,-9.6788,-8.916,-8.8133,-8.6593,-8.4682,-8.2737,-8.4315,-8.5078,-8.5358,-8.6544,-8.5944,-8.4092,-8.329,-8.0914,-7.74,-7.5416,-7.5065,-7.5972,-7.544,-7.5571,-7.6207,-7.658,-7.6661,-7.6528,-7.7856,-7.8253,-7.7932,-7.8241,-7.8064,-7.7355,-7.6341,-7.5692,-7.5424,-7.3667,-7.204,-7.061,-7.1756,-7.4125,-7.764,-7.9742,-8.2264,-8.5091,-8.5513,-8.5609,-8.5472,-8.4105,-8.3231,-8.2945,-8.0731,-7.8631,-7.6746,-7.4861,-7.2283,-6.8936,-6.6397,0.0,0.0,0.0,0.0,0.0,0.0,0.0,0.0,0.0,-6.0358,-6.1408,0.0,-6.6474,0.0,-7.0283,-7.3245,-7.5553,-7.4822,0.0,0.0,-7.5861,-7.6592,-7.7861,-7.9477,-8.1246,-8.317,-8.3747,-8.4863,-8.7171,-8.7671,-8.844,-9.0056,-8.8671,-8.7863,-8.8902,-9.0325,-9.1287,-9.121,-9.1171,-9.1518,-9.1979,-9.2364,-9.2903,-9.4172,-9.4403,-9.4749,-9.5826,-9.598,-9.6095,-9.6249,-9.6288,-9.6288,-9.6326,-9.6288,-9.6211,-9.5788,-9.5672,-9.598,-9.7019,-9.7711,-9.8519,-9.0886,-9.0482,-9.0482,-8.9594,-8.8243,-8.8125,-8.8084,-8.8212,-8.8682,-8.8155,-8.689,-8.551,-8.3439,-8.0915,-7.9203,-7.8786,-7.9375,-7.8414,-7.8025,-7.8145,-7.7813,-7.7489,-7.7255,-7.809,-7.8364,-7.8253,-7.8663,-7.8751,-7.8557,-7.7717,-7.7296,-7.7296,-7.6838,-7.5921,-7.4584,-7.5004,-7.615,-7.7984,-8.0391,-8.2875,-8.5397,-8.557,-8.5514,-8.5261,-8.4028,-8.3231,-8.3016,-8.1323,-7.9592,-7.7915,-7.6553,-7.4514,-7.1552,-6.8975,-6.6628,0.0,0.0,0.0,0.0,0.0,0.0,0.0,0.0,0.0,0.0,0.0,-7.0783,-7.2745,-7.4976,-7.7207,-7.9323,-7.9438,-7.9746,-8.0592,-8.1093,-8.1823,-8.3054,-8.4016,-8.5209,-8.694,-8.7478,-8.8402,-9.0133,-9.071,-9.1402,-9.2864,-9.2172,-9.1518,-9.1633,-9.2441,-9.3056,-9.3056,-9.3018,-9.3326,-9.4134,-9.4249,-9.4557,-9.5365,-9.5557,-9.5749,-9.6211,-9.6288,-9.6403,-9.6749,-9.6826,-9.698,-9.7326,-9.7403,-9.7403,-9.7365,-9.7096,-9.7019,-9.7403,-9.8173,-9.9058,-9.1803,-9.1803,-9.1803,-9.2196,-9.2625,-9.0684,-9.0036,-9.0249,-8.9728,-8.9393,-8.906,-8.6543,-8.4904,-8.3956,-8.2399,-8.184,-8.2044,-8.0886,-8.0266,-8.0118,-7.9345,-7.8976,-7.897,-7.922,-7.9327,-7.9338,-7.9602,-7.9798,-7.976,-7.8978,-7.8672,-7.8634,-7.8634,-7.8596,-7.8481,-7.8596,-7.8596,-7.8519,-8.1576,-8.3945,-8.5473,-8.5531,-8.5265,-8.4762,-8.3822,-8.3043,-8.2477,-8.1593,-8.0362,-7.8746,-7.7977,-7.6476,-7.3937,-7.1629,-6.9513,0.0,-6.6205,0.0,0.0,0.0,0.0,0.0,0.0,0.0,0.0,-7.236,-7.5784,-7.8861,-7.9939,-8.1131,-8.2824,-8.3632,-8.4439,-8.5286,-8.5593,-8.6286,-8.7671,-8.8055,-8.8748,-9.021,-9.1056,-9.1864,-9.2672,-9.3441,-9.3864,-9.4095,-9.4557,-9.4595,-9.4172,-9.4057,-9.4095,-9.4018,-9.4018,-9.4403,-9.5018,-9.5134,-9.5441,-9.6249,-9.6442,-9.6519,-9.6673,-9.6673,-9.6865,-9.748,-9.7673,-9.7904,-9.8673,-9.875,-9.875,-9.8634,-9.8096,-9.7711,-9.7788,-9.8288,-9.9058,-9.1803,-9.1803,-9.1803,-9.2159,-9.2769,-9.2303,-9.2,-9.1773,-9.1669,-9.0593,-8.8839,-8.7636,-8.6503,-8.5471,-8.5417,-8.4778,-8.3737,-8.3312,-8.2767,-8.2131,-8.127,-8.0859,-8.0911,-8.1363,-8.1567,-8.1612,-8.2048,-8.2302,-8.2302,-8.2111,-8.2034,-8.2034,-8.2034,-8.1729,-8.1156,0.0,0.0,0.0,-8.3028,-8.4518,-8.5473,-8.559,-8.5666,-8.5547,-8.4161,0.0,-8.3324,-8.19,-8.0631,-7.9631,-7.94,0.0,0.0,0.0,0.0,0.0,0.0,0.0,0.0,0.0,0.0,0.0,-7.4322,-7.4399,-7.2822,-7.6899,-8.0477,-8.2439,-8.3439,-8.4632,-8.6247,-8.6555,-8.7017,-8.7902,-8.9171,-9.0133,-9.0517,-9.1633,-9.2633,-9.2903,-9.3133,-9.3557,-9.4326,-9.4672,-9.5018,-9.5595,-9.5942,-9.598,-9.5788,-9.5711,-9.5788,-9.5826,-9.5672,-9.5826,-9.6019,-9.6057,-9.6326,-9.7057,-9.7288,-9.7519,-9.8096,-9.825,-9.8288,-9.8557,-9.8557,-9.8596,-9.8827,-9.8788,-9.8904,-9.8788,-9.8673,-9.8557,-9.8557,-9.8673,-9.9058,-9.1803,0.0,-9.1803,-9.2331,0.0,-9.3246,-9.3248,-9.3241,-9.2505,-9.1092,-8.9209,-8.849,-8.7689,-8.6828,-8.6624,-8.6146,-8.5402,-8.4805,-8.4287,-8.3836,-8.2596,-8.2033,-8.2059,-8.2156,-8.2194,-8.2216,-8.2754,-8.299,-8.299,-8.299,-8.299,-8.299,-8.299,-8.2798,-8.2455,-8.3601,-8.383,-8.3028,-8.3868,-8.4671,-8.5473,-8.5609,-8.5532,-8.5202,0.0,0.0,0.0,0.0,0.0,0.0,0.0,0.0,0.0,0.0,0.0,-7.4784,-7.463,-7.4476,-7.413,-7.5245,-7.6515,-7.7784,-8.0208,-8.0746,-7.8631,-8.1246,-8.367,-8.5324,-8.6247,-8.7478,-8.9094,-8.9633,-9.0248,-9.1095,-9.1902,-9.2441,-9.2518,-9.3172,-9.3864,-9.4249,-9.4326,-9.4672,-9.5518,-9.5634,-9.5826,-9.6211,-9.6288,-9.6288,-9.6288,-9.6288,-9.6288,-9.6288,-9.6288,-9.648,-9.6826,-9.6903,-9.7173,-9.7904,-9.8134,-9.8327,-9.8711,-9.8788,-9.8904,-9.9288,-9.9442,-9.9519,-9.9981,-10.0058,-10.0019,-9.9981,-9.9712,-9.9442,-9.9442,-9.9442,-9.9558,-9.1803,-9.184,-9.1912,-9.2633,-9.3723,-9.3839,-9.4008,-9.4064,0.0,0.0,0.0,-8.9299,-8.872,-8.8046,-8.7578,-8.7233,-8.6951,-8.6192,-8.5738,-8.5549,-8.4293,-8.3652,-8.3639,-8.3225,-8.3009,-8.3009,-8.329,-8.3448,-8.3448,-8.3448,-8.3448,-8.3448,-8.3563,-8.3715,-8.3983,-8.5282,-8.5626,-8.5015,-8.4976,-8.5282,-8.5932,-8.6068,-8.5876,-8.5261,-8.5176,-8.4857,-8.4286,-8.4132,-8.3632,-8.2824,-8.2747,-8.1977,-8.0362,-8.0246,-7.9862,-7.9054,-7.9092,-7.9246,-7.9415,-8.0208,-8.1131,-8.2131,-8.5016,-8.6055,-8.4401,-8.5209,-8.6401,-8.794,-8.8863,-8.9979,-9.1479,-9.2249,-9.2979,-9.3633,-9.3826,-9.3903,-9.3941,-9.4095,-9.4518,-9.5095,-9.5211,-9.548,-9.6134,-9.6249,-9.6288,-9.6288,-9.6288,-9.6288,-9.6288,-9.6288,-9.6288,-9.6288,-9.648,-9.6788,-9.7288,-9.7673,-9.8057,-9.8865,-9.9019,-9.9096,-9.9211,-9.925,-9.9519,-10.0173,-10.0289,-10.0558,-10.1135,-10.1173,-10.1289,-10.1289,-10.0789,-10.0289,-10.0289,-10.0327,-10.025,-9.1803,-9.1876,-9.2436,-9.3056,-9.3752,-9.4325,-9.4071,-9.3208,-9.2264,-9.1065,-8.9739,-9.0167,-8.9739,-8.872,-8.9649,-8.9374,-8.8192,-8.8539,-8.8341,-8.7714,-8.7447,-8.7333,-8.7294,-8.6535,-8.6136,-8.6118,-8.5471,-8.5167,-8.5129,-8.5167,-8.5129,-8.5244,-8.5893,-8.6619,-8.7345,-8.7613,-8.7689,-8.7575,-8.7575,-8.7613,-8.7727,-8.779,-8.7849,-8.7848,-8.7172,-8.6876,-8.6863,-8.6132,-8.5363,-8.4593,-8.4555,-8.3747,-8.2093,-8.2016,-8.1593,-8.0862,-8.1362,-8.2093,-8.2824,-8.3708,-8.4863,-8.6401,-8.8286,-8.8671,-8.7094,-8.8286,-8.9594,-9.0594,-9.1402,-9.2326,-9.321,-9.3441,-9.3595,-9.3787,-9.4364,-9.4788,-9.4826,-9.5441,-9.5865,-9.6019,-9.6095,-9.6095,-9.6249,-9.6288,-9.6288,-9.6288,-9.6288,-9.6288,-9.6365,-9.6288,-9.6288,-9.6403,-9.6903,-9.7326,-9.7711,-9.8173,-9.8904,-9.975,-9.9904,-10.0096,-10.0635,-10.075,-10.0827,-10.1058,-10.1058,-10.1135,-10.1289,-10.1289,-10.1289,-10.1289,-10.1096,-10.1058,-10.1058,-10.1058,-10.0904,-9.1803,-9.184,-9.2161,-9.2636,-9.3239,-9.3445,-9.2884,-9.1909,-9.1476,-9.089,-9.0228,-9.0144,-8.9787,-8.9376,-8.9835,-8.974,-8.9132,-8.9234,-8.9103,-8.8721,-8.8301,-8.811,-8.8071,-8.7689,-8.7498,-8.746,-8.7116,-8.6925,-8.6925,-8.6887,-8.6887,-8.6925,-8.7307,-8.7918,-8.8683,-8.8759,-8.8988,-8.9409,-8.8568,-8.811,-8.811,-8.8172,-8.827,-8.8385,-8.8055,-8.7969,-8.8094,-8.7709,-8.7325,-8.6978,-8.6978,-8.6363,-8.517,-8.5517,-8.5401,-8.4632,-8.5286,-8.594,-8.6324,-8.7132,-8.8171,-8.9363,-9.0594,-9.121,-9.0864,-9.1095,-9.1672,-9.2479,-9.2941,-9.348,-9.4287,-9.4403,-9.4595,-9.5057,-9.548,-9.5672,-9.5749,-9.6019,-9.6288,-9.6288,-9.6288,-9.6288,-9.6288,-9.6288,-9.6288,-9.6288,-9.6288,-9.6442,-9.6865,-9.6942,-9.698,-9.698,-9.7288,-9.7942,-9.8711,-9.9211,-9.9827,-10.0596,-10.075,-10.0904,-10.125,-10.1289,-10.1289,-10.1289,-10.1289,-10.1289,-10.1289,-10.1289,-10.1289,-10.1289,-10.1289,-10.1289,-10.1289,-10.1289,-10.1135,-9.1803,-9.1803,-9.1947,-9.2402,-9.295,-9.2616,-9.2021,-9.1205,-9.1192,-9.1064,-9.0814,-9.0159,-8.992,-8.992,-8.992,-8.9882,-8.9892,-8.9697,-8.96,-8.9523,-8.895,-8.8683,-8.8644,-8.8492,-8.8377,-8.8339,-8.8186,-8.811,-8.811,-8.811,-8.8186,-8.8339,-8.8377,-8.8797,-8.96,-8.9791,-9.0211,-9.0746,-8.9791,-8.9065,-8.8683,-8.8708,-8.8806,-8.896,-8.9014,-8.9122,-8.9248,-8.9248,-8.9171,-8.8979,-8.8979,-8.8556,-8.7786,-8.8325,-8.8402,-8.7825,-8.8325,-8.8902,-8.9286,-9.0017,-9.0864,-9.171,-9.2364,-9.3133,-9.3826,-9.3441,-9.3287,-9.3864,-9.398,-9.4326,-9.5095,-9.5288,-9.5557,-9.6211,-9.6288,-9.6249,-9.6288,-9.6288,-9.6288,-9.6288,-9.6288,-9.6288,-9.6288,-9.6288,-9.6288,-9.6288,-9.6442,-9.6865,-9.7365,-9.7634,-9.7827,-9.8057,-9.8096,-9.8596,-9.9904,-10.025,-10.0596,-10.125,-10.125,-10.125,-10.1289,-10.1289,-10.1289,-10.1289,-10.1289,-10.1289,-10.1289,-10.1289,-10.1289,-10.1289,-10.1289,-10.1289,-10.1289,-10.1289,-10.1289,-9.1803,-9.1875,-9.2402,-9.3056,-9.3425,-9.2763,-9.2268,-9.2014,-9.2039,-9.1915,-9.1603,-9.0856,-9.0508,-9.053,-9.0508,-9.0508,-9.0508,-9.0496,-9.0478,-9.0478,-9.0402,-9.0364,-9.0211,-8.9561,-8.9179,-8.9103,-8.853,-8.8262,-8.8262,-8.8186,-8.8492,-8.9103,-8.9179,-8.9638,-9.0478,-9.1204,-9.1586,-9.1701,-9.2312,-9.1892,-9.0478,-9.0429,-9.053,-9.0647,-9.0742,-9.0834,-9.0864,-9.0979,-9.0594,-8.9902,-8.9825,-8.944,-8.8709,-8.8671,-8.8671,-8.8594,-8.8709,-8.9325,-9.0825,-9.1787,-9.2556,-9.3364,-9.3518,-9.3941,-9.4749,-9.4788,-9.4806,-9.4864,-9.4864,-9.5249,-9.6019,-9.6134,-9.6134,-9.6249,-9.6288,-9.6288,-9.6288,-9.6288,-9.6288,-9.6288,-9.6288,-9.6288,-9.6288,-9.6288,-9.6326,-9.6442,-9.6903,-9.7403,-9.7788,-9.8288,-9.8942,-9.9558,-9.9827,-9.9865,-10.0212,-10.075,-10.1096,-10.1289,-10.1289,-10.1289,-10.1289,-10.1289,-10.1289,-10.1289,-10.1289,-10.1289,-10.1289,-10.1289,-10.1289,-10.1289,-10.1289,-10.1289,-10.1289,-10.1289,-10.1289,-9.1803,-9.184,-9.209,-9.1976,-9.1666,-9.1317,-9.1019,-9.0726,-9.0713,-9.1102,-9.168,-9.0975,-9.0861,-9.1281,-9.0822,-9.0631,-9.0631,-9.0631,-9.0631,-9.0631,-9.0631,-9.0631,-9.0555,-9.0287,-9.0058,-9.0058,-8.9714,-8.9561,-8.96,-8.96,-8.9752,-9.002,-9.0058,-9.0478,-9.1281,-9.1625,-9.2045,-9.258,-9.2924,-9.2771,-9.2198,-9.2189,-9.2023,-9.1682,-9.1701,-9.1564,-9.1231,-9.121,-9.1056,-9.071,-9.0671,-9.0517,-9.021,-9.0171,-9.0171,-9.021,-9.0671,-9.1441,-9.2595,-9.3018,-9.3557,-9.4403,-9.448,-9.4826,-9.5634,-9.5749,-9.5749,-9.5788,-9.5749,-9.5942,-9.6249,-9.6288,-9.6288,-9.6288,-9.6288,-9.6288,-9.6288,-9.6288,-9.6288,-9.6288,-9.6288,-9.6288,-9.6288,-9.6288,-9.6519,-9.6865,-9.7365,-9.7865,-9.8788,-9.9365,-9.9865,-10.0596,-10.0789,-10.0789,-10.0827,-10.1058,-10.1289,-10.1289,-10.1289,-10.1289,-10.1289,-10.1289,-10.1289,-10.1289,-10.1289,-10.1289,-10.1289,-10.1289,-10.1289,-10.1289,-10.1289,-10.1289,-10.1289,-10.1289,-10.1289,-9.1803,-9.1803,-9.1983,-9.152,-9.0647,-9.0764,-9.0512,-9.012,-9.0428,-9.1202,-9.2024,-9.1548,-9.1586,-9.1969,-9.109,-9.0631,-9.0631,-9.0631,-9.0631,-9.0631,-9.0631,-9.0746,-9.0899,-9.0937,-9.1052,-9.1281,-9.1319,-9.1281,-9.1319,-9.1281,-9.1281,-9.1281,-9.1281,-9.1586,-9.2121,-9.2351,-9.2809,-9.3421,-9.365,-9.3803,-9.3824,-9.3952,-9.3519,-9.2603,-9.2622,-9.2446,-9.1941,-9.1902,-9.1902,-9.1902,-9.1902,-9.1902,-9.1902,-9.1864,-9.1902,-9.1941,-9.2479,-9.321,-9.398,-9.4057,-9.4441,-9.5211,-9.5365,-9.5634,-9.6134,-9.6288,-9.6288,-9.6249,-9.6288,-9.6288,-9.6288,-9.6288,-9.6288,-9.6288,-9.6288,-9.6288,-9.6288,-9.6288,-9.6288,-9.6288,-9.6288,-9.6288,-9.6326,-9.6519,-9.6865,-9.7326,-9.7942,-9.8519,-9.9788,-10.025,-10.0635,-10.1212,-10.1289,-10.1289,-10.1289,-10.1289,-10.1289,-10.1289,-10.1289,-10.1289,-10.1289,-10.1289,-10.1289,-10.1289,-10.1289,-10.1289,-10.1289,-10.1289,-10.1289,-10.1289,-10.1289,-10.1289,-10.1289,-10.1289,-10.1289,-9.1803,-9.1875,-9.2505,-9.2212,-9.1455,-9.1874,-9.1585,-9.0901,-9.2223,-9.294,-9.3038,-9.2886,-9.2962,-9.2924,-9.1395,-9.0631,-9.0631,-9.0631,-9.0631,-9.0631,-9.0669,-9.1013,-9.1739,-9.1778,-9.216,-9.2733,-9.2771,-9.2809,-9.2886,-9.2924,-9.3,-9.2962,-9.2847,-9.2962,-9.3115,-9.3726,-9.4223,-9.4376,-9.4987,-9.5407,-9.5451,-9.5606,-9.4903,-9.3619,-9.3562,-9.3595,-9.3518,-9.3557,-9.3518,-9.3557,-9.348,-9.3518,-9.3518,-9.3518,-9.348,-9.3557,-9.3595,-9.4057,-9.4788,-9.4941,-9.5288,-9.6019,-9.6134,-9.6249,-9.6249,-9.6288,-9.6288,-9.6288,-9.6288,-9.6288,-9.6288,-9.6288,-9.6288,-9.6288,-9.6288,-9.6288,-9.6288,-9.6288,-9.6288,-9.6288,-9.6288,-9.6288,-9.6326,-9.698,-9.7365,-9.7827,-9.8904,-9.9981,-10.0173,-10.0789,-10.1173,-10.125,-10.1289,-10.1289,-10.1289,-10.1289,-10.1289,-10.1289,-10.1289,-10.1289,-10.1289,-10.1289,-10.1289,-10.1289,-10.1289,-10.1289,-10.1289,-10.1289,-10.1289,-10.1289,-10.1289,-10.1289,-10.1289,-10.1289,-10.1289,-9.2055,-9.2505,-9.312,-9.2825,-9.2024,-9.2151,-9.1933,-9.1537,-9.2035,-9.2924,-9.3612,-9.2771,-9.2847,-9.3803,-9.2121,-9.109,-9.0631,-9.0631,-9.0631,-9.0669,-9.1128,-9.151,-9.1816,-9.2351,-9.2771,-9.3077,-9.3115,-9.3115,-9.3115,-9.3115,-9.3115,-9.3115,-9.3115,-9.3344,-9.3841,-9.4223,-9.4605,-9.514,-9.5484,-9.5643,-9.5708,-9.5839,-9.5634,-9.5156,-9.4752,-9.4249,-9.371,-9.3672,-9.3672,-9.3672,-9.371,-9.3672,-9.3672,-9.3672,-9.3941,-9.4441,-9.4518,-9.4903,-9.5672,-9.5826,-9.5942,-9.6211,-9.6288,-9.6288,-9.6288,-9.6288,-9.6288,-9.6288,-9.6288,-9.6288,-9.6288,-9.6288,-9.6288,-9.6288,-9.6288,-9.6288,-9.6288,-9.6288,-9.6288,-9.6288,-9.6288,-9.6288,-9.648,-9.7019,-9.7711,-9.8327,-9.9365,-10.0212,-10.075,-10.1135,-10.1289,-10.1289,-10.1289,-10.1289,-10.1289,-10.1289,-10.1289,-10.1289,-10.1289,-10.1289,-10.1289,-10.1289,-10.1289,-10.1289,-10.1289,-10.1289,-10.1289,-10.1289,-10.1289,-10.1289,-10.1289,-10.1289,-10.1289,-10.1289,-10.1289,-9.2569,-9.2863,-9.3364,-9.3062,-9.2229,-9.2123,-9.1964,-9.1854,-9.2121,-9.3038,-9.3994,-9.3153,-9.3306,-9.3955,-9.2847,-9.1969,-9.1434,-9.1434,-9.1395,-9.1472,-9.1969,-9.2389,-9.2695,-9.3268,-9.365,-9.3879,-9.3917,-9.3917,-9.3917,-9.3917,-9.3917,-9.3917,-9.3917,-9.4185,-9.4643,-9.4758,-9.5102,-9.5522,-9.5598,-9.5664,-9.5772,-9.5839,-9.5961,-9.6021,-9.5655,-9.5134,-9.4557,-9.4557,-9.4557,-9.4518,-9.4518,-9.4557,-9.4557,-9.4557,-9.4788,-9.5326,-9.5441,-9.5634,-9.6172,-9.6288,-9.6288,-9.6288,-9.6288,-9.6288,-9.6288,-9.6288,-9.6288,-9.6288,-9.6288,-9.6288,-9.6288,-9.6288,-9.6288,-9.6288,-9.6288,-9.6288,-9.6288,-9.6288,-9.6288,-9.6288,-9.6288,-9.6403,-9.6749,-9.7442,-9.825,-9.9096,-9.9942,-10.0712,-10.1173,-10.1289,-10.1289,-10.1289,-10.1289,-10.1289,-10.1289,-10.1289,-10.1289,-10.1289,-10.1289,-10.1289,-10.1289,-10.1289,-10.1289,-10.1289,-10.1289,-10.1289,-10.1289,-10.1289,-10.1289,-10.1289,-10.1289,-10.1289,-10.1289,-10.1289,-10.1289,-9.3295,-9.2902,-9.3217,-9.2936,-9.2188,-9.2032,-9.1871,-9.2045,-9.2771,-9.365,-9.449,-9.4299,-9.4223,-9.4223,-9.3497,-9.3077,-9.3115,-9.3115,-9.3,-9.2886,-9.3038,-9.3497,-9.4146,-9.4299,-9.472,-9.5331,-9.5484,-9.5484,-9.5369,-9.5331,-9.5369,-9.5484,-9.5369,-9.5331,-9.556,-9.5484,-9.556,-9.5598,-9.5621,-9.5664,-9.5772,-9.5898,-9.5981,-9.6117,-9.6155,-9.6172,-9.6172,-9.6172,-9.6057,-9.6134,-9.6134,-9.6249,-9.6057,-9.6057,-9.6211,-9.6172,-9.6249,-9.6288,-9.6288,-9.6288,-9.6288,-9.6288,-9.6288,-9.6288,-9.6288,-9.6288,-9.6288,-9.6288,-9.6288,-9.6288,-9.6288,-9.6288,-9.6288,-9.6288,-9.6288,-9.6288,-9.6288,-9.6288,-9.6288,-9.6288,-9.6365,-9.6673,-9.7403,-9.825,-9.9096,-9.9827,-10.0635,-10.1173,-10.1289,-10.1289,-10.1289,-10.1289,-10.1289,-10.1289,-10.1289,-10.1289,-10.1289,-10.1289,-10.1289,-10.1289,-10.1289,-10.1289,-10.1289,-10.1289,-10.1289,-10.1289,-10.1289,-10.1289,-10.1289,-10.1289,-10.1289,-10.1289,-10.1289,-10.1289,-10.1289,-9.3402,-9.3207,-9.3183,-9.2703,-9.2017,-9.2439,-9.2695,-9.2809,-9.3612,-9.4452,-9.5025,-9.4643,-9.4681,-9.4949,-9.4376,-9.4299,-9.4796,-9.4796,-9.4223,-9.3382,-9.3688,-9.407,-9.4452,-9.4949,-9.5331,-9.556,-9.5598,-9.5598,-9.5598,-9.5598,-9.5598,-9.5598,-9.5598,-9.5598,-9.5598,-9.5598,-9.5598,-9.5621,-9.5686,-9.5772,-9.5898,-9.5961,-9.6098,-9.6232,-9.6269,-9.6288,-9.6288,-9.6288,-9.6288,-9.6288,-9.6288,-9.6288,-9.6288,-9.6288,-9.6288,-9.6288,-9.6288,-9.6288,-9.6288,-9.6249,-9.6211,-9.6288,-9.6249,-9.6288,-9.6288,-9.6288,-9.6288,-9.6288,-9.6288,-9.6288,-9.6288,-9.6288,-9.6288,-9.6288,-9.6288,-9.6288,-9.6288,-9.6288,-9.6288,-9.6365,-9.6788,-9.7211,-9.7673,-9.8634,-9.9712,-10.0096,-10.0827,-10.1289,-10.1289,-10.1289,-10.1289,-10.1289,-10.1289,-10.1289,-10.1289,-10.1289,-10.1289,-10.1289,-10.1289,-10.1289,-10.1289,-10.1289,-10.1289,-10.1289,-10.1289,-10.1289,-10.1289,-10.1289,-10.1289,-10.1289,-10.1289,-10.1289,-10.1289,-10.1289,-10.1289,-9.4059,-9.3884,-9.364,-9.3268,-9.2771,-9.3077,-9.3306,-9.3612,-9.4146,-9.4872,-9.5369,-9.5064,-9.5102,-9.5407,-9.5064,-9.514,-9.5598,-9.5598,-9.5025,-9.4185,-9.449,-9.4796,-9.4911,-9.5331,-9.5598,-9.5598,-9.5598,-9.5598,-9.5598,-9.5598,-9.5598,-9.5598,-9.5598,-9.5598,-9.5598,-9.5598,-9.5621,-9.5664,-9.5768,-9.5856,-9.5941,-9.6058,-9.6155,-9.6269,-9.6288,-9.6288,-9.6288,-9.6288,-9.6288,-9.6288,-9.6288,-9.6288,-9.6288,-9.6288,-9.6288,-9.6249,-9.6019,-9.5788,-9.5788,-9.5441,-9.5326,-9.5365,-9.5634,-9.5788,-9.5865,-9.6019,-9.6288,-9.6288,-9.6288,-9.6288,-9.6288,-9.6288,-9.6288,-9.6288,-9.6288,-9.6288,-9.6288,-9.6288,-9.6288,-9.6442,-9.698,-9.7557,-9.8211,-9.9058,-10.0212,-10.0519,-10.0981,-10.1289,-10.1289,-10.1289,-10.1289,-10.1289,-10.1289,-10.1289,-10.1289,-10.1289,-10.1289,-10.1289,-10.1289,-10.1289,-10.1289,-10.1289,-10.1289,-10.1289,-10.1289,-10.1289,-10.1289,-10.1289,-10.1289,-10.1289,-10.1289,-10.1289,-10.1289,-10.1289,-10.1289,-9.5172,-9.4655,-9.4327,-9.4108,-9.4032,-9.3497,-9.365,-9.4299,-9.449,-9.4949,-9.5484,-9.5522,-9.556,-9.5598,-9.5484,-9.5522,-9.5598,-9.5598,-9.556,-9.5407,-9.5484,-9.5484,-9.5484,-9.556,-9.5598,-9.5598,-9.5598,-9.5598,-9.5598,-9.5598,-9.5598,-9.5598,-9.5598,-9.5598,-9.5598,-9.5598,-9.5664,-9.5789,-9.581,-9.5898,-9.6078,-9.6117,-9.6194,-9.6288,-9.6288,-9.6288,-9.6288,-9.6288,-9.6288,-9.6288,-9.6288,-9.6288,-9.6288,-9.6288,-9.6288,-9.6134,-9.5441,-9.5057,-9.4788,-9.4364,-9.3941,-9.4018,-9.4711,-9.4998,-9.5211,-9.5826,-9.6288,-9.6288,-9.6288,-9.6288,-9.6288,-9.6288,-9.6288,-9.6288,-9.6288,-9.6288,-9.6288,-9.6288,-9.6288,-9.6442,-9.7019,-9.7865,-9.8634,-9.9558,-10.0442,-10.0981,-10.125,-10.1289,-10.1289,-10.1289,-10.1289,-10.1289,-10.1289,-10.1289,-10.1289,-10.1289,-10.1289,-10.1289,-10.1289,-10.1289,-10.1289,-10.1289,-10.1289,-10.1289,-10.1289,-10.1289,-10.1289,-10.1289,-10.1289,-10.1289,-10.1289,-10.1289,-10.1289,-10.1289,-10.1289,-9.4615,-9.4426,-9.3721,-9.3421,-9.3535,-9.3841,-9.4185,-9.449,-9.5064,-9.5369,-9.5598,-9.5598,-9.5598,-9.5598,-9.5598,-9.5598,-9.5598,-9.5598,-9.5598,-9.5598,-9.5598,-9.5598,-9.5598,-9.5598,-9.5598,-9.5598,-9.5598,-9.5598,-9.5598,-9.5598,-9.5598,-9.5598,-9.5598,-9.5598,-9.5598,-9.5598,-9.5664,-9.581,-9.5856,-9.5959,-9.6078,-9.6213,-9.6251,-9.6269,-9.6288,-9.6288,-9.6288,-9.6288,-9.6288,-9.6288,-9.6288,-9.6288,-9.6288,-9.6288,-9.6095,-9.5518,-9.5172,-9.4711,-9.4172,-9.3864,-9.371,-9.3749,-9.4518,-9.4998,-9.5018,-9.5788,-9.6211,-9.6288,-9.6288,-9.6288,-9.6288,-9.6288,-9.6288,-9.6288,-9.6288,-9.6288,-9.6288,-9.6288,-9.6288,-9.6442,-9.7557,-9.8404,-9.9019,-10.0019,-10.0981,-10.1212,-10.1289,-10.1289,-10.1289,-10.1289,-10.1289,-10.1289,-10.1289,-10.1289,-10.1289,-10.1289,-10.1289,-10.1289,-10.1289,-10.1289,-10.1289,-10.1289,-10.1289,-10.1289,-10.1289,-10.1289,-10.1289,-10.1289,-10.1289,-10.1289,-10.1289,-10.1289,-10.1289,-10.1289,-10.1289,-9.4911,-9.4872,-9.4376,-9.4146,-9.4223,-9.4681,-9.4911,-9.4987,-9.5369,-9.5598,-9.5598,-9.5598,-9.5598,-9.5598,-9.5598,-9.5598,-9.5598,-9.5598,-9.5598,-9.5598,-9.5598,-9.5598,-9.5598,-9.5598,-9.5598,-9.5598,-9.5598,-9.5598,-9.5598,-9.5598,-9.5598,-9.5598,-9.5598,-9.5598,-9.5598,-9.5664,-9.5729,-9.5835,-9.5959,-9.6058,-9.6194,-9.6251,-9.6269,-9.6288,-9.6288,-9.6288,-9.6288,-9.6288,-9.6288,-9.6288,-9.6288,-9.6288,-9.6288,-9.6288,-9.6057,-9.5518,-9.5211,-9.4767,-9.4326,-9.3941,-9.371,-9.3826,-9.4518,-9.4903,-9.5134,-9.5788,-9.6288,-9.6288,-9.6288,-9.6288,-9.6288,-9.6288,-9.6288,-9.6288,-9.6288,-9.6288,-9.6288,-9.6288,-9.648,-9.698,-9.7904,-9.8981,-9.925,-10.0519,-10.1096,-10.1289,-10.1289,-10.1289,-10.1289,-10.1289,-10.1289,-10.1289,-10.1289,-10.1289,-10.1289,-10.1289,-10.1289,-10.1289,-10.1289,-10.1289,-10.1289,-10.1289,-10.1289,-10.1289,-10.1289,-10.1289,-10.1289,-10.1289,-10.1289,-10.1289,-10.1289,-10.1289,-10.1289,-10.1289,-10.1289,-9.5598,-9.5598,-9.5598,-9.5598,-9.5522,-9.5598,-9.5522,-9.556,-9.5598,-9.5598,-9.5598,-9.5598,-9.5598,-9.5598,-9.5598,-9.5598,-9.5598,-9.5598,-9.5598,-9.5598,-9.5598,-9.5598,-9.5598,-9.5598,-9.5598,-9.5598,-9.5598,-9.5598,-9.5598,-9.5598,-9.5598,-9.5598,-9.5598,-9.5621,-9.5643,-9.5768,-9.5835,-9.5959,-9.6039,-9.6136,-9.6251,-9.6288,-9.6288,-9.6288,-9.6288,-9.6288,-9.6288,-9.6288,-9.6288,-9.6288,-9.6288,-9.6288,-9.6288,-9.6288,-9.6172,-9.5942,-9.5326,-9.4903,-9.4711,-9.398,-9.3672,-9.3826,-9.448,-9.4998,-9.5172,-9.5788,-9.6288,-9.6288,-9.6288,-9.6288,-9.6288,-9.6288,-9.6288,-9.6288,-9.6288,-9.6288,-9.6288,-9.6365,-9.6711,-9.7442,-9.8288,-9.925,-9.9981,-10.0712,-10.1289,-10.1289,-10.1289,-10.1289,-10.1289,-10.1289,-10.1289,-10.1289,-10.1289,-10.1289,-10.1289,-10.1289,-10.1289,-10.1289,-10.1289,-10.1289,-10.1289,-10.1289,-10.1289,-10.1289,-10.1289,-10.1289,-10.1289,-10.1289,-10.1289,-10.1289,-10.1289,-10.1289,-10.1289,-10.1289,-10.1289,-9.5598,-9.5598,-9.5598,-9.5598,-9.5598,-9.5598,-9.5598,-9.5598,-9.5598,-9.5598,-9.5598,-9.5598,-9.5598,-9.5598,-9.5598,-9.5598,-9.5598,-9.5598,-9.5598,-9.5598,-9.5598,-9.5598,-9.5598,-9.5598,-9.5598,-9.5598,-9.5598,-9.5598,-9.5598,-9.5598,-9.5598,-9.5598,-9.5621,-9.5643,-9.5768,-9.581,-9.5915,-9.6039,-9.6098,-9.6194,-9.6269,-9.6288,-9.6288,-9.6288,-9.6288,-9.6288,-9.6288,-9.6288,-9.6288,-9.6288,-9.6288,-9.6288,-9.6288,-9.6288,-9.6057,-9.5557,-9.5249,-9.4749,-9.4134,-9.398,-9.3749,-9.398,-9.4595,-9.4998,-9.5057,-9.5826,-9.6249,-9.6288,-9.6288,-9.6288,-9.6288,-9.6288,-9.6288,-9.6288,-9.6288,-9.6326,-9.6403,-9.6865,-9.725,-9.775,-9.8827,-9.9904,-10.0135,-10.0827,-10.1212,-10.125,-10.1289,-10.1289,-10.1289,-10.1289,-10.1289,-10.1289,-10.1289,-10.1289,-10.1289,-10.1289,-10.1289,-10.1289,-10.1289,-10.1289,-10.1289,-10.1289,-10.1289,-10.1289,-10.1289,-10.1289,-10.1289,-10.1289,-10.1289,-10.1289,-10.1289,-10.1289,-10.1289,-10.1289,-10.1289,-9.5598,-9.5598,-9.5598,-9.5598,-9.5598,-9.5598,-9.5598,-9.5598,-9.5598,-9.5598,-9.5598,-9.5598,-9.5598,-9.5598,-9.5598,-9.5598,-9.5598,-9.5598,-9.5598,-9.5598,-9.5598,-9.5598,-9.5598,-9.5598,-9.5598,-9.5598,-9.5598,-9.5598,-9.5598,-9.5598,-9.5598,-9.5621,-9.5643,-9.5708,-9.5832,-9.5877,-9.6017,-9.6078,-9.6155,-9.6232,-9.6269,-9.6288,-9.6288,-9.6288,-9.6288,-9.6288,-9.6288,-9.6288,-9.6288,-9.6288,-9.6288,-9.6288,-9.6288,-9.6288,-9.6019,-9.5711,-9.5595,-9.5441,-9.5018,-9.4903,-9.498,-9.4903,-9.5365,-9.5518,-9.5672,-9.6095,-9.6249,-9.6288,-9.6288,-9.6288,-9.6288,-9.6288,-9.6288,-9.6288,-9.6288,-9.6442,-9.6826,-9.725,-9.7711,-9.8173,-9.925,-10.0096,-10.0673,-10.1058,-10.1173,-10.1289,-10.1289,-10.1289,-10.1289,-10.1289,-10.1289,-10.1289,-10.1289,-10.1289,-10.1289,-10.1289,-10.1289,-10.1289,-10.1289,-10.1289,-10.1289,-10.1289,-10.1289,-10.1289,-10.1289,-10.1289,-10.1289,-10.1289,-10.1289,-10.1289,-10.1289,-10.1289,-10.1289,-10.1289,-10.1289,-9.5598,-9.5598,-9.5598,-9.5598,-9.5598,-9.5598,-9.5598,-9.5598,-9.5598,-9.5598,-9.5598,-9.5598,-9.5598,-9.5598,-9.5598,-9.5598,-9.5598,-9.5598,-9.5598,-9.5598,-9.5598,-9.5598,-9.5598,-9.5598,-9.5598,-9.5598,-9.5598,-9.5598,-9.5598,-9.5598,-9.5598,-9.5621,-9.5746,-9.5772,-9.5835,-9.5979,-9.6098,-9.6136,-9.6232,-9.6269,-9.6288,-9.6288,-9.6288,-9.6288,-9.6288,-9.6288,-9.6288,-9.6288,-9.6288,-9.6288,-9.6288,-9.6288,-9.6288,-9.6288,-9.6288,-9.6249,-9.6211,-9.6095,-9.6019,-9.6095,-9.6134,-9.6288,-9.6249,-9.6249,-9.6249,-9.6249,-9.6288,-9.6288,-9.6288,-9.6288,-9.6288,-9.6288,-9.6288,-9.6326,-9.6365,-9.6788,-9.7326,-9.7673,-9.8404,-9.8942,-9.9827,-10.0635,-10.0981,-10.125,-10.1289,-10.1289,-10.1289,-10.1289,-10.1289,-10.1289,-10.1289,-10.1289,-10.1289,-10.1289,-10.1289,-10.1289,-10.1289,-10.1289,-10.1289,-10.1289,-10.1289,-10.1289,-10.1289,-10.1289,-10.1289,-10.1289,-10.1289,-10.1289,-10.1289,-10.1289,-10.1289,-10.1289,-10.1289,-10.1289,-10.1289,-9.5598,-9.5598,-9.5598,-9.5598,-9.5598,-9.5598,-9.5598,-9.5598,-9.5598,-9.5598,-9.5598,-9.5598,-9.5598,-9.5598,-9.5598,-9.5598,-9.5598,-9.5598,-9.5598,-9.5598,-9.5598,-9.5598,-9.5598,-9.5598,-9.5598,-9.5598,-9.5598,-9.5598,-9.5598,-9.5598,-9.5621,-9.5643,-9.5729,-9.5814,-9.5918,-9.6039,-9.6155,-9.6232,-9.6269,-9.6288,-9.6288,-9.6288,-9.6288,-9.6288,-9.6288,-9.6288,-9.6288,-9.6288,-9.6288,-9.6288,-9.6288,-9.6288,-9.6288,-9.6288,-9.6288,-9.6288,-9.6288,-9.6288,-9.6288,-9.6288,-9.6288,-9.6288,-9.6288,-9.6288,-9.6288,-9.6288,-9.6288,-9.6288,-9.6288,-9.6288,-9.6288,-9.6365,-9.6326,-9.6442,-9.6942,-9.7403,-9.7827,-9.8634,-9.9481,-9.9865,-10.0558,-10.1058,-10.1212,-10.1289,-10.1289,-10.1289,-10.1289,-10.1289,-10.1289,-10.1289,-10.1289,-10.1289,-10.1289,-10.1289,-10.1289,-10.1289,-10.1289,-10.1289,-10.1289,-10.1289,-10.1289,-10.1289,-10.1289,-10.1289,-10.1289,-10.1289,-10.1289,-10.1289,-10.1289,-10.1289,-10.1289,-10.1289,-10.1289,-10.1289,-10.1289,-9.5598,-9.5598,-9.5598,-9.5598,-9.5598,-9.5598,-9.5598,-9.5598,-9.5598,-9.5598,-9.5598,-9.5598,-9.5598,-9.5598,-9.5598,-9.5598,-9.5598,-9.5598,-9.5598,-9.5598,-9.5598,-9.5598,-9.5598,-9.5598,-9.5598,-9.5598,-9.5598,-9.5598,-9.5598,-9.5598,-9.5643,-9.5708,-9.5814,-9.588,-9.5981,-9.6136,-9.6232,-9.6288,-9.6288,-9.6288,-9.6288,-9.6288,-9.6288,-9.6288,-9.6288,-9.6288,-9.6288,-9.6288,-9.6288,-9.6288,-9.6288,-9.6288,-9.6288,-9.6288,-9.6288,-9.6288,-9.6288,-9.6288,-9.6288,-9.6288,-9.6288,-9.6288,-9.6288,-9.6288,-9.6288,-9.6288,-9.6288,-9.6288,-9.6288,-9.6288,-9.6288,-9.6673,-9.6903,-9.7057,-9.7673,-9.8288,-9.8827,-9.9596,-10.0135,-10.0558,-10.0943,-10.1212,-10.125,-10.1289,-10.1289,-10.1289,-10.1289,-10.1289,-10.1289,-10.1289,-10.1289,-10.1289,-10.1289,-10.1289,-10.1289,-10.1289,-10.1289,-10.1289,-10.1289,-10.1289,-10.1289,-10.1289,-10.1289,-10.1289,-10.1289,-10.1289,-10.1289,-10.1289,-10.1289,-10.1289,-10.1289,-10.1289,-10.1289,-10.1289,-10.1289,-9.5598,-9.5598,-9.5598,-9.5598,-9.5598,-9.5598,-9.5598,-9.5598,-9.5598,-9.5598,-9.5598,-9.5598,-9.5598,-9.5598,-9.5598,-9.5598,-9.5598,-9.5598,-9.5598,-9.5598,-9.5598,-9.5598,-9.5598,-9.5598,-9.5598,-9.5598,-9.5598,-9.5598,-9.5621,-9.5643,-9.5686,-9.581,-9.5859,-9.6134,-9.6366,-9.6328,-9.6385,-9.648,-9.6326,-9.6288,-9.6288,-9.6288,-9.6288,-9.6288,-9.6288,-9.6288,-9.6288,-9.6288,-9.6288,-9.6288,-9.6288,-9.6288,-9.6288,-9.6288,-9.6288,-9.6288,-9.6288,-9.6288,-9.6288,-9.6288,-9.6288,-9.6288,-9.6288,-9.6288,-9.6288,-9.6288,-9.6288,-9.6326,-9.6557,-9.6596,-9.6749,-9.7288,-9.7673,-9.7942,-9.8519,-9.925,-9.9712,-10.025,-10.0635,-10.0981,-10.125,-10.1289,-10.1289,-10.1289,-10.1289,-10.1289,-10.1289,-10.1289,-10.1289,-10.1289,-10.1289,-10.1289,-10.1289,-10.1289,-10.1289,-10.1289,-10.1289,-10.1289,-10.1289,-10.1289,-10.1289,-10.1289,-10.1327,-10.1404,-10.1289,-10.1289,-10.1289,-10.1327,-10.1289,-10.1289,-10.1289,-10.1289,-10.1327,-10.1327,-10.1289,-9.5598,-9.5598,-9.5598,-9.5598,-9.5598,-9.5598,-9.5598,-9.5598,-9.5598,-9.5598,-9.5598,-9.5598,-9.5598,-9.5598,-9.5598,-9.5598,-9.5598,-9.5598,-9.5598,-9.5598,-9.5598,-9.5598,-9.5598,-9.5598,-9.5598,-9.5598,-9.5598,-9.5598,-9.5757,-9.5823,-9.5827,-9.5929,-9.6286,-9.6482,-9.7174,-9.6904,-9.6711,-9.7134,-9.6711,-9.6365,-9.6365,-9.6365,-9.6365,-9.6288,-9.6288,-9.6288,-9.6288,-9.6288,-9.6288,-9.6288,-9.6288,-9.6288,-9.6288,-9.6288,-9.6288,-9.6288,-9.6288,-9.6288,-9.6288,-9.6288,-9.6288,-9.6288,-9.6288,-9.6288,-9.6403,-9.6442,-9.6442,-9.6326,-9.6942,-9.7326,-9.748,-9.8134,-9.8519,-9.8942,-9.9404,-9.9827,-10.025,-10.0635,-10.1019,-10.1096,-10.1289,-10.1289,-10.1289,-10.1289,-10.1289,-10.1289,-10.1289,-10.1289,-10.1289,-10.1289,-10.1289,-10.1289,-10.1289,-10.1289,-10.1289,-10.1289,-10.1327,-10.1327,-10.1327,-10.1366,-10.1597,-10.1673,-10.1558,-10.1597,-10.1558,-10.1673,-10.1866,-10.1789,-10.1481,-10.152,-10.1827,-10.1635,-10.1327,-10.1366,-10.1673,-9.5598,-9.5598,-9.5598,-9.5598,-9.5598,-9.5598,-9.5598,-9.5598,-9.5598,-9.5598,-9.5598,-9.5598,-9.5598,-9.5598,-9.5598,-9.5598,-9.5598,-9.5598,-9.5598,-9.5598,-9.5598,-9.5598,-9.5598,-9.5598,-9.5598,-9.5598,-9.5697,-9.6047,-9.6205,-9.644,-9.6521,-9.6664,-9.717,-9.775,-9.8135,-9.7885,-9.7942,-9.8057,-9.7865,-9.748,-9.7096,-9.6942,-9.6749,-9.6326,-9.6326,-9.6288,-9.6288,-9.6288,-9.6288,-9.6288,-9.6288,-9.6288,-9.6288,-9.6288,-9.6288,-9.6288,-9.6288,-9.6288,-9.6288,-9.6326,-9.6326,-9.6326,-9.6365,-9.648,-9.6788,-9.7019,-9.725,-9.775,-9.8019,-9.8211,-9.8365,-9.9019,-9.9365,-9.975,-10.0212,-10.0481,-10.0712,-10.0981,-10.125,-10.1289,-10.1289,-10.1289,-10.1289,-10.1289,-10.1289,-10.1289,-10.1289,-10.1289,-10.1289,-10.1289,-10.1289,-10.1289,-10.1289,-10.1289,-10.1289,-10.1289,-10.1366,-10.1404,-10.1443,-10.1597,-10.202,-10.2135,-10.2174,-10.2481,-10.2866,-10.2866,-10.2674,-10.2405,-10.2213,-10.2328,-10.2443,-10.2444,-10.2462,-10.2674,-10.2943,-9.5598,-9.5598,-9.5598,-9.5598,-9.5598,-9.5598,-9.5598,-9.5598,-9.5598,-9.5598,-9.5598,-9.5598,-9.5598,-9.5598,-9.5598,-9.5598,-9.5598,-9.5598,-9.5598,-9.5598,-9.5598,-9.5598,-9.5598,-9.5598,-9.5598,-9.5637,-9.6009,-9.6358,-9.6882,-9.7444,-9.7758,-9.759,-9.8095,-9.875,-9.8962,-9.8788,-9.8634,-9.8634,-9.8634,-9.8327,-9.7904,-9.7557,-9.7173,-9.6749,-9.6442,-9.6288,-9.6288,-9.6288,-9.6288,-9.6288,-9.6288,-9.6288,-9.6288,-9.6288,-9.648,-9.6596,-9.6711,-9.6865,-9.6942,-9.6942,-9.6673,-9.6673,-9.6903,-9.7365,-9.7711,-9.7865,-9.798,-9.8557,-9.8981,-9.9058,-9.9288,-9.9904,-10.025,-10.0558,-10.0866,-10.1135,-10.1289,-10.1289,-10.1289,-10.1289,-10.1289,-10.1289,-10.1289,-10.1289,-10.1289,-10.1289,-10.1289,-10.1289,-10.1289,-10.1289,-10.1289,-10.1289,-10.1366,-10.1366,-10.1366,-10.1404,-10.1443,-10.1673,-10.175,-10.2058,-10.2712,-10.2981,-10.3058,-10.352,-10.4002,-10.381,-10.3403,-10.3212,-10.3039,-10.3208,-10.3395,-10.3707,-10.3864,-10.4022,-10.3943,-9.5598,-9.5598,-9.5598,-9.5598,-9.5598,-9.5598,-9.5598,-9.5598,-9.5598,-9.5598,-9.5598,-9.5598,-9.5598,-9.5598,-9.5598,-9.5598,-9.5598,-9.5598,-9.5598,-9.5598,-9.5598,-9.5598,-9.5598,-9.5598,-9.5637,-9.5773,-9.626,-9.6784,-9.7406,-9.8703,-9.8841,-9.8709,-9.9096,-9.9423,-9.9596,-9.9519,-9.9211,-9.9173,-9.9173,-9.9019,-9.8557,-9.8096,-9.7519,-9.725,-9.6711,-9.6288,-9.6288,-9.6288,-9.6288,-9.6288,-9.6288,-9.6442,-9.648,-9.648,-9.6749,-9.7288,-9.7442,-9.7673,-9.7942,-9.775,-9.748,-9.7634,-9.798,-9.8404,-9.8673,-9.8711,-9.8788,-9.9058,-9.9673,-9.9942,-10.025,-10.0635,-10.0943,-10.1058,-10.1135,-10.1212,-10.1289,-10.1289,-10.1289,-10.1289,-10.1289,-10.1289,-10.1289,-10.1289,-10.1289,-10.1289,-10.1289,-10.1289,-10.1289,-10.1289,-10.1289,-10.1327,-10.1404,-10.1443,-10.152,-10.1712,-10.2327,-10.2635,-10.2751,-10.3174,-10.3712,-10.3866,-10.3905,-10.4252,-10.4638,-10.4404,-10.4366,-10.4535,-10.4559,-10.4327,-10.4443,-10.4845,-10.4816,-10.4715,-10.4523,-9.5598,-9.5598,-9.5598,-9.5598,-9.5598,-9.5598,-9.5598,-9.5598,-9.5598,-9.5598,-9.5598,-9.5598,-9.5598,-9.5598,-9.5598,-9.5598,-9.5598,-9.5598,-9.5598,-9.5598,-9.5598,-9.5598,-9.5598,-9.5598,-9.5637,-9.5872,-9.6571,-9.7444,-9.8121,-9.9378,-10.0094,-10.0153,-10.0154,-10.0462,-10.0596,-10.0404,-10.0289,-10.025,-10.0212,-10.0135,-9.9442,-9.875,-9.8019,-9.7442,-9.6711,-9.6326,-9.6288,-9.6288,-9.6288,-9.6326,-9.6326,-9.6596,-9.698,-9.7057,-9.748,-9.8173,-9.8288,-9.8519,-9.8788,-9.8557,-9.8327,-9.8327,-9.8634,-9.9058,-9.9519,-9.9596,-9.9904,-10.025,-10.0519,-10.0712,-10.0904,-10.1096,-10.125,-10.1289,-10.1289,-10.1289,-10.1289,-10.1289,-10.1289,-10.1289,-10.1289,-10.1289,-10.1289,-10.1289,-10.1289,-10.1289,-10.1289,-10.1289,-10.1327,-10.1443,-10.152,-10.175,-10.1866,-10.2097,-10.2174,-10.2712,-10.3366,-10.3558,-10.3751,-10.4174,-10.4597,-10.4656,-10.4733,-10.5062,-10.5465,-10.558,-10.5782,-10.611,-10.6017,-10.5528,-10.5695,-10.6145,-10.5921,-10.5461,-10.5216,-9.5598,-9.5598,-9.5598,-9.5598,-9.5598,-9.5598,-9.5598,-9.5598,-9.5598,-9.5598,-9.5598,-9.5598,-9.5598,-9.5598,-9.5598,-9.5598,-9.5598,-9.5598,-9.5598,-9.5598,-9.5598,-9.5598,-9.5598,-9.5697,-9.5773,-9.6123,-9.6997,-9.7967,-9.8953,-9.9862,-10.0518,-10.1019,-10.1289,-10.125,-10.125,-10.1289,-10.1289,-10.1289,-10.125,-10.1096,-10.0366,-9.9635,-9.8788,-9.798,-9.7173,-9.6557,-9.6403,-9.6326,-9.648,-9.6634,-9.6826,-9.7134,-9.7557,-9.8019,-9.8365,-9.8865,-9.9211,-9.925,-9.9442,-9.9288,-9.9327,-9.9596,-9.9635,-9.9981,-10.025,-10.0442,-10.0673,-10.1019,-10.1212,-10.1289,-10.1289,-10.1289,-10.1289,-10.1289,-10.1289,-10.1289,-10.1289,-10.1289,-10.1289,-10.1289,-10.1289,-10.1289,-10.1289,-10.1289,-10.1289,-10.1289,-10.1289,-10.1327,-10.1366,-10.1558,-10.1904,-10.2174,-10.2558,-10.2789,-10.302,-10.3674,-10.4251,-10.4405,-10.4674,-10.5059,-10.5366,-10.5427,-10.564,-10.5963,-10.637,-10.6828,-10.6938,-10.6932,-10.6769,-10.6554,-10.6687,-10.6796,-10.6655,-10.6216,-10.6103,-9.5598,-9.5598,-9.5598,-9.5598,-9.5598,-9.5598,-9.5598,-9.5598,-9.5598,-9.5598,-9.5598,-9.5598,-9.5598,-9.5598,-9.5598,-9.5598,-9.5598,-9.5598,-9.5598,-9.5598,-9.5598,-9.5598,-9.5637,-9.5735,-9.6139,-9.7035,-9.7946,-9.8874,-9.9726,-10.0556,-10.1115,-10.1231,-10.1289,-10.1289,-10.1289,-10.1289,-10.1289,-10.1289,-10.1289,-10.1212,-10.0981,-10.0289,-9.9481,-9.8788,-9.7942,-9.725,-9.6942,-9.6788,-9.7057,-9.7403,-9.748,-9.7942,-9.8634,-9.875,-9.9211,-9.9942,-10.0058,-10.0404,-10.1019,-10.0442,-10.0442,-10.075,-10.0673,-10.0904,-10.1135,-10.1212,-10.1135,-10.1289,-10.1289,-10.1289,-10.1289,-10.1289,-10.1289,-10.1289,-10.1289,-10.1289,-10.1289,-10.1289,-10.1289,-10.1289,-10.1289,-10.1289,-10.1289,-10.1289,-10.1289,-10.1289,-10.1289,-10.1366,-10.152,-10.1827,-10.2212,-10.2866,-10.3289,-10.3635,-10.3982,-10.4636,-10.5097,-10.529,-10.5504,-10.5813,-10.6139,-10.6284,-10.6542,-10.6802,-10.698,-10.7197,-10.7381,-10.7494,-10.7264,-10.7062,-10.7032,-10.7094,-10.7023,-10.6834,-10.6546,-9.5293,-9.4872,-9.5369,-9.5598,-9.5598,-9.5598,-9.5598,-9.5598,-9.5598,-9.5598,-9.5598,-9.5598,-9.5598,-9.5598,-9.5598,-9.5598,-9.5598,-9.5598,-9.5598,-9.5598,-9.5598,-9.5598,-9.5713,-9.6156,-9.662,-9.7342,-9.8427,-9.9414,-9.99,-10.0845,-10.1231,-10.1289,-10.1289,-10.1289,-10.1289,-10.1289,-10.1289,-10.1289,-10.1289,-10.1289,-10.1212,-10.0558,-9.9981,-9.9596,-9.875,-9.8173,-9.7827,-9.7711,-9.798,-9.8288,-9.8365,-9.8788,-9.9481,-9.9635,-10.0019,-10.0673,-10.0866,-10.0981,-10.125,-10.0981,-10.1019,-10.1212,-10.1289,-10.1289,-10.1289,-10.1289,-10.1289,-10.1289,-10.1289,-10.1289,-10.1289,-10.1289,-10.1289,-10.1289,-10.1289,-10.1289,-10.1289,-10.1289,-10.1289,-10.1289,-10.1289,-10.1289,-10.1289,-10.1366,-10.1366,-10.1481,-10.152,-10.1827,-10.2058,-10.2289,-10.2674,-10.3482,-10.4059,-10.4443,-10.4887,-10.5408,-10.5736,-10.5909,-10.6139,-10.6417,-10.6708,-10.6905,-10.7009,-10.7054,-10.7282,-10.7452,-10.7471,-10.7489,-10.7572,-10.7498,-10.7293,-10.7092,-10.692,-10.674,-10.6487,-9.4872,-9.4529,-9.5255,-9.5598,-9.5598,-9.5598,-9.5598,-9.5598,-9.5598,-9.5598,-9.5598,-9.5598,-9.5598,-9.5598,-9.5598,-9.5598,-9.5598,-9.5598,-9.5598,-9.5598,-9.5598,-9.5598,-9.5866,-9.6484,-9.7128,-9.7789,-9.8891,-9.9936,-10.046,-10.1019,-10.1269,-10.1289,-10.1289,-10.1289,-10.1289,-10.1289,-10.1289,-10.1289,-10.1289,-10.1289,-10.1173,-10.0827,-10.0404,-10.0019,-9.9519,-9.9058,-9.8865,-9.8827,-9.8981,-9.9135,-9.9365,-9.9673,-10.0212,-10.0596,-10.0789,-10.1173,-10.1289,-10.1289,-10.1289,-10.1289,-10.1212,-10.1289,-10.1289,-10.1289,-10.1289,-10.1289,-10.1289,-10.1289,-10.1289,-10.1289,-10.1289,-10.1289,-10.1289,-10.1289,-10.1289,-10.1289,-10.1289,-10.1289,-10.1289,-10.1289,-10.1366,-10.1366,-10.1404,-10.1404,-10.1443,-10.1635,-10.1789,-10.2212,-10.2674,-10.3058,-10.3405,-10.4174,-10.4866,-10.531,-10.5659,-10.6044,-10.6333,-10.6507,-10.6723,-10.692,-10.6998,-10.7133,-10.7231,-10.736,-10.7537,-10.7589,-10.7442,-10.7422,-10.7392,-10.7316,-10.7132,-10.695,-10.6818,-10.6599,-10.6426,-9.4338,-9.4452,-9.5178,-9.5484,-9.5522,-9.556,-9.5598,-9.5598,-9.5598,-9.5598,-9.5598,-9.5598,-9.5598,-9.5598,-9.5598,-9.5598,-9.5598,-9.5598,-9.5598,-9.5598,-9.5598,-9.5598,-9.5932,-9.6549,-9.7384,-9.8431,-9.9417,-10.0266,-10.1154,-10.1269,-10.1269,-10.1289,-10.1289,-10.1289,-10.1289,-10.1289,-10.1289,-10.1289,-10.1289,-10.1289,-10.1212,-10.1212,-10.0827,-10.0481,-10.0135,-9.9788,-9.9519,-9.9288,-9.9596,-9.9865,-10.0135,-10.0596,-10.0981,-10.125,-10.1289,-10.1289,-10.1289,-10.1289,-10.1289,-10.1289,-10.1289,-10.1289,-10.1289,-10.1289,-10.1289,-10.1289,-10.1289,-10.1289,-10.1289,-10.1289,-10.1289,-10.1289,-10.1289,-10.1289,-10.1289,-10.1289,-10.1289,-10.1289,-10.1289,-10.1366,-10.1481,-10.1558,-10.1673,-10.1712,-10.2135,-10.252,-10.2789,-10.3097,-10.3558,-10.4135,-10.452,-10.4982,-10.5656,-10.6118,-10.6449,-10.654,-10.6697,-10.6769,-10.7037,-10.7207,-10.7327,-10.7392,-10.7461,-10.758,-10.7756,-10.7735,-10.7432,-10.7207,-10.708,-10.7009,-10.6935,-10.6818,-10.6688,-10.6545,-10.6405,-9.3115,-9.2656,-9.3459,-9.4146,-9.4796,-9.5331,-9.5598,-9.5598,-9.5598,-9.5598,-9.5598,-9.5598,-9.5598,-9.5598,-9.5598,-9.5598,-9.5598,-9.5598,-9.5598,-9.5598,-9.5598,-9.5664,-9.6014,-9.6614,-9.7584,-9.8531,-9.9478,-10.0383,-10.1096,-10.1289,-10.1289,-10.1289,-10.1289,-10.1289,-10.1289,-10.1289,-10.1289,-10.1289,-10.1289,-10.1289,-10.1289,-10.1289,-10.1058,-10.0943,-10.0827,-10.0558,-10.0442,-10.0366,-10.0673,-10.0789,-10.0943,-10.1173,-10.1212,-10.1289,-10.1289,-10.1289,-10.1289,-10.1289,-10.1289,-10.1289,-10.1289,-10.1289,-10.1289,-10.1289,-10.1289,-10.1289,-10.1289,-10.1289,-10.1289,-10.1289,-10.1289,-10.1289,-10.1289,-10.1289,-10.1289,-10.1289,-10.1289,-10.1289,-10.1327,-10.1635,-10.1789,-10.2212,-10.2289,-10.2674,-10.3135,-10.352,-10.3866,-10.4059,-10.4405,-10.4943,-10.5389,-10.5813,-10.6083,-10.6449,-10.6635,-10.6763,-10.692,-10.7065,-10.7316,-10.751,-10.7555,-10.7597,-10.7689,-10.7667,-10.7563,-10.7442,-10.7316,-10.7119,-10.6843,-10.6859,-10.6834,-10.6705,-10.6583,-10.6467,-10.6405,-9.2274,-9.1969,-9.2733,-9.3421,-9.3994,-9.4758,-9.5102,-9.5178,-9.5446,-9.5598,-9.5598,-9.5598,-9.5598,-9.5598,-9.5598,-9.5598,-9.5598,-9.5598,-9.5598,-9.5598,-9.5621,-9.5686,-9.6035,-9.6657,-9.7626,-9.8592,-9.9517,-10.0461,-10.1077,-10.1289,-10.1289,-10.1289,-10.1289,-10.1289,-10.1289,-10.1289,-10.1289,-10.1289,-10.1289,-10.1289,-10.1289,-10.1289,-10.1289,-10.1289,-10.1289,-10.1289,-10.1289,-10.1289,-10.1289,-10.1289,-10.1289,-10.1289,-10.1289,-10.1289,-10.1289,-10.1289,-10.1289,-10.1289,-10.1289,-10.1289,-10.1289,-10.1289,-10.1289,-10.1289,-10.1289,-10.1289,-10.1289,-10.1289,-10.1289,-10.1289,-10.1289,-10.1289,-10.1289,-10.1289,-10.1289,-10.1289,-10.1289,-10.1289,-10.1558,-10.1943,-10.2404,-10.2904,-10.3328,-10.3712,-10.4059,-10.4328,-10.4636,-10.4943,-10.5213,-10.5636,-10.6025,-10.6349,-10.6462,-10.667,-10.6834,-10.7023,-10.7209,-10.7371,-10.7572,-10.7749,-10.7775,-10.7762,-10.7762,-10.7489,-10.717,-10.7159,-10.7171,-10.6866,-10.6655,-10.6705,-10.6718,-10.6582,-10.6488,-10.6427,-10.6405,-9.1701,-9.1739,-9.2618,-9.2962,-9.3115,-9.3955,-9.4414,-9.449,-9.5255,-9.5598,-9.5598,-9.5598,-9.5598,-9.5598,-9.5598,-9.5598,-9.5598,-9.5598,-9.5598,-9.5621,-9.5643,-9.5708,-9.6044,-9.6702,-9.7554,-9.8576,-9.95,-10.0231,-10.1038,-10.1289,-10.1289,-10.1289,-10.1289,-10.1289,-10.1289,-10.1289,-10.1289,-10.1289,-10.1289,-10.1289,-10.1289,-10.1289,-10.1289,-10.1289,-10.1289,-10.1289,-10.1289,-10.1289,-10.1289,-10.1289,-10.1289,-10.1289,-10.1289,-10.1289,-10.1289,-10.1289,-10.1289,-10.1289,-10.1289,-10.1289,-10.1289,-10.1289,-10.1289,-10.1289,-10.1289,-10.1289,-10.1289,-10.1289,-10.1289,-10.1289,-10.1289,-10.1289,-10.1289,-10.1289,-10.1289,-10.1289,-10.1289,-10.1558,-10.2097,-10.2597,-10.3366,-10.3866,-10.4059,-10.4443,-10.4982,-10.5174,-10.5366,-10.5713,-10.5889,-10.6235,-10.6466,-10.6735,-10.685,-10.6905,-10.712,-10.7338,-10.7519,-10.7682,-10.7838,-10.7905,-10.7905,-10.7844,-10.7782,-10.7412,-10.7009,-10.7037,-10.698,-10.6802,-10.6723,-10.6723,-10.6688,-10.6488,-10.6407,-10.6387,-10.6405,-9.0899,-9.0975,-9.1778,-9.2121,-9.2312,-9.3764,-9.4376,-9.449,-9.5255,-9.5598,-9.5598,-9.5598,-9.5598,-9.5598,-9.5598,-9.5598,-9.5598,-9.5598,-9.5598,-9.5643,-9.5686,-9.5793,-9.5936,-9.6459,-9.7385,-9.8385,-9.925,-10.0058,-10.1019,-10.1289,-10.1289,-10.1289,-10.1289,-10.1289,-10.1289,-10.1289,-10.1289,-10.1289,-10.1289,-10.1289,-10.1289,-10.1289,-10.1289,-10.1289,-10.1289,-10.1289,-10.1289,-10.1289,-10.1289,-10.1289,-10.1289,-10.1289,-10.1289,-10.1289,-10.1289,-10.1289,-10.1289,-10.1289,-10.1289,-10.1289,-10.1289,-10.1289,-10.1289,-10.1289,-10.1289,-10.1289,-10.1289,-10.1289,-10.1289,-10.1289,-10.1289,-10.1289,-10.1289,-10.1289,-10.1404,-10.1404,-10.1404,-10.2058,-10.2712,-10.3482,-10.4289,-10.4713,-10.4905,-10.5251,-10.579,-10.602,-10.6059,-10.6253,-10.6276,-10.6506,-10.668,-10.689,-10.7065,-10.7209,-10.7422,-10.7572,-10.7689,-10.7821,-10.7915,-10.7972,-10.7977,-10.7682,-10.7412,-10.712,-10.6898,-10.6965,-10.7051,-10.704,-10.698,-10.6874,-10.6735,-10.6601,-10.6468,-10.6467,-10.6407,-9.0631,-9.0669,-9.109,-9.1281,-9.1586,-9.3115,-9.3841,-9.4032,-9.5064,-9.5598,-9.5598,-9.5598,-9.5598,-9.5598,-9.5598,-9.5598,-9.5598,-9.5598,-9.5643,-9.5686,-9.5751,-9.5877,-9.6056,-9.6462,-9.7577,-9.8615,-9.9673,-10.0558,-10.1212,-10.1289,-10.1289,-10.1289,-10.1289,-10.1289,-10.1289,-10.1289,-10.1289,-10.1289,-10.1289,-10.1289,-10.1289,-10.1289,-10.1289,-10.1289,-10.1289,-10.1289,-10.1289,-10.1289,-10.1289,-10.1289,-10.1289,-10.1289,-10.1289,-10.1289,-10.1289,-10.1289,-10.1289,-10.1289,-10.1289,-10.1289,-10.1289,-10.1289,-10.1327,-10.1366,-10.1289,-10.1289,-10.1289,-10.1289,-10.1289,-10.1289,-10.1289,-10.1289,-10.1289,-10.1289,-10.1827,-10.2174,-10.2712,-10.3443,-10.3905,-10.4328,-10.5059,-10.5597,-10.5751,-10.579,-10.6213,-10.6255,-10.6389,-10.6427,-10.6546,-10.6757,-10.6929,-10.7079,-10.7246,-10.7491,-10.7735,-10.7782,-10.7844,-10.7959,-10.802,-10.79,-10.7769,-10.7349,-10.698,-10.6935,-10.6935,-10.6984,-10.7067,-10.7195,-10.7145,-10.7026,-10.689,-10.6718,-10.6655,-10.6583,-10.6655,-9.0631,-9.0631,-9.0631,-9.0631,-9.0822,-9.2274,-9.3038,-9.3382,-9.472,-9.5522,-9.5598,-9.5598,-9.5598,-9.5598,-9.5598,-9.5598,-9.5621,-9.5643,-9.5746,-9.5789,-9.5853,-9.5938,-9.6346,-9.6962,-9.8,-9.9192,-10.0366,-10.0827,-10.1289,-10.1289,-10.1289,-10.1289,-10.1289,-10.1289,-10.1289,-10.1289,-10.1289,-10.1289,-10.1289,-10.1289,-10.1289,-10.1289,-10.1289,-10.1289,-10.1289,-10.1289,-10.1289,-10.1289,-10.1289,-10.1289,-10.1289,-10.1289,-10.1289,-10.1289,-10.1289,-10.1289,-10.1289,-10.1289,-10.1289,-10.1289,-10.1289,-10.1327,-10.1366,-10.1481,-10.152,-10.1635,-10.1635,-10.1712,-10.1712,-10.1635,-10.1635,-10.1712,-10.1712,-10.1789,-10.2481,-10.3097,-10.3905,-10.4597,-10.4866,-10.5136,-10.5674,-10.629,-10.6367,-10.6405,-10.6387,-10.6467,-10.6507,-10.6507,-10.6602,-10.6882,-10.708,-10.7293,-10.7471,-10.7728,-10.7959,-10.7968,-10.792,-10.7968,-10.7972,-10.7821,-10.7628,-10.7282,-10.7079,-10.7051,-10.704,-10.717,-10.7288,-10.7442,-10.7371,-10.7207,-10.717,-10.7026,-10.6802,-10.6769,-10.6935,-9.0631,-9.0631,-9.0631,-9.0631,-9.0784,-9.1663,-9.2427,-9.3191,-9.4185,-9.4987,-9.5484,-9.5598,-9.5598,-9.5598,-9.5598,-9.5621,-9.5643,-9.5686,-9.5768,-9.581,-9.5938,-9.6039,-9.6424,-9.7251,-9.8423,-9.9673,-10.0789,-10.1173,-10.1289,-10.1289,-10.1289,-10.1289,-10.1289,-10.1327,-10.1327,-10.1366,-10.1443,-10.1481,-10.1558,-10.1597,-10.1481,-10.1443,-10.1327,-10.1289,-10.1289,-10.1289,-10.1289,-10.1289,-10.1289,-10.1289,-10.1366,-10.1366,-10.1289,-10.1289,-10.1289,-10.1289,-10.1289,-10.1289,-10.1289,-10.1443,-10.152,-10.1558,-10.1789,-10.2366,-10.2558,-10.2904,-10.2981,-10.3135,-10.3097,-10.2904,-10.2904,-10.3058,-10.3135,-10.3251,-10.3674,-10.4174,-10.4789,-10.5097,-10.5328,-10.5674,-10.6136,-10.6367,-10.6367,-10.6405,-10.6405,-10.6427,-10.6487,-10.6507,-10.6526,-10.6882,-10.7266,-10.7432,-10.7589,-10.7821,-10.8016,-10.8016,-10.7972,-10.8016,-10.791,-10.7675,-10.7452,-10.7277,-10.7133,-10.7145,-10.7288,-10.7461,-10.7589,-10.7675,-10.7498,-10.7412,-10.7471,-10.7392,-10.7119,-10.7009,-10.717]},{"header":{"parameterUnit":"m.s-1","parameterCategory":1,"la1":31.0,"la2":29.5877,"lo1":-88.7671,"lo2":-86.6584,"dy":0.0162,"dx":0.0185,"nx":115,"ny":88,"refTime":"2023-03-15T18:00:00:Z","depth":0,"parameterNumber":3,"parameterNumberName":"V-component_of_WINDS"},"data":[0.0,0.0,0.0,0.0,0.0,0.0,0.0,0.0,0.0,0.0,0.0,0.0,0.0,0.0,0.0,0.0,0.0,0.0,0.0,0.0,0.0,0.0,0.0,0.0,0.0,0.0,0.0,0.0,0.0,0.0,0.0,0.0,0.0,0.0,0.0,0.0,0.0,0.0,0.0,0.0,0.0,0.0,0.0,0.0,0.0,0.0,0.0,0.0,0.0,0.0,0.0,0.0,0.0,0.0,0.0,0.0,0.0,0.0,0.0,0.0,0.0,0.0,0.0,0.0,0.0,0.0,0.0,0.0,0.0,0.0,0.0,0.0,0.0,0.0,0.0,0.0,0.0,0.0,0.0,0.0,0.0,0.0,0.0,0.0,0.0,0.0,0.0,0.0,0.0,0.0,0.0,0.0,0.0,0.0,0.0,0.0,0.0,0.0,0.0,0.0,0.0,0.0,0.0,0.0,0.0,0.0,0.0,0.0,0.0,0.0,0.0,0.0,0.0,0.0,0.0,0.0,0.0,0.0,0.0,0.0,0.0,0.0,0.0,0.0,0.0,0.0,0.0,0.0,0.0,0.0,0.0,0.0,0.0,0.0,0.0,0.0,0.0,0.0,0.0,0.0,0.0,0.0,0.0,0.0,0.0,0.0,0.0,0.0,0.0,0.0,0.0,0.0,0.0,0.0,0.0,0.0,0.0,0.0,0.0,0.0,0.0,0.0,0.0,0.0,0.0,0.0,0.0,0.0,0.0,0.0,0.0,0.0,0.0,0.0,0.0,0.0,0.0,0.0,0.0,0.0,0.0,0.0,0.0,0.0,0.0,0.0,0.0,0.0,0.0,0.0,0.0,0.0,0.0,0.0,0.0,0.0,0.0,0.0,0.0,0.0,0.0,0.0,0.0,0.0,0.0,0.0,0.0,0.0,0.0,0.0,0.0,0.0,0.0,0.0,0.0,0.0,0.0,0.0,0.0,0.0,0.0,0.0,0.0,0.0,0.0,0.0,0.0,0.0,0.0,0.0,0.0,0.0,0.0,0.0,0.0,0.0,0.0,0.0,0.0,0.0,0.0,0.0,0.0,0.0,0.0,0.0,0.0,0.0,0.0,0.0,0.0,0.0,0.0,0.0,0.0,0.0,0.0,0.0,0.0,0.0,0.0,0.0,0.0,0.0,0.0,0.0,0.0,0.0,0.0,0.0,0.0,0.0,0.0,0.0,0.0,0.0,0.0,0.0,0.0,0.0,0.0,0.0,0.0,0.0,0.0,0.0,0.0,0.0,0.0,0.0,0.0,0.0,0.0,0.0,0.0,0.0,0.0,0.0,0.0,0.0,0.0,0.0,0.0,0.0,0.0,0.0,0.0,0.0,0.0,0.0,0.0,0.0,0.0,0.0,0.0,0.0,0.0,0.0,0.0,0.0,0.0,0.0,0.0,0.0,0.0,0.0,0.0,0.0,0.0,0.0,0.0,0.0,0.0,0.0,0.0,0.0,0.0,0.0,0.0,0.0,0.0,0.0,0.0,0.0,0.0,0.0,0.0,0.0,0.0,0.0,0.0,0.0,0.0,0.0,0.0,0.0,0.0,0.0,0.0,0.0,0.0,0.0,0.0,0.0,0.0,0.0,0.0,0.0,0.0,0.0,0.0,0.0,0.0,0.0,0.0,0.0,0.0,0.0,0.0,0.0,0.0,0.0,0.0,0.0,0.0,0.0,0.0,0.0,0.0,0.0,0.0,0.0,0.0,0.0,0.0,0.0,0.0,0.0,0.0,0.0,0.0,0.0,0.0,0.0,0.0,0.0,0.0,0.0,0.0,0.0,0.0,0.0,0.0,0.0,0.0,0.0,0.0,0.0,0.0,0.0,0.0,0.0,0.0,0.0,0.0,0.0,0.0,0.0,0.0,0.0,0.0,0.0,0.0,0.0,0.0,0.0,0.0,0.0,0.0,0.0,0.0,0.0,0.0,0.0,0.0,0.0,0.0,0.0,0.0,0.0,0.0,0.0,0.0,0.0,0.0,0.0,0.0,0.0,0.0,0.0,0.0,0.0,0.0,0.0,0.0,0.0,0.0,0.0,0.0,0.0,0.0,0.0,0.0,0.0,0.0,0.0,0.0,0.0,0.0,0.0,0.0,0.0,0.0,0.0,0.0,0.0,0.0,0.0,0.0,0.0,0.0,0.0,0.0,0.0,0.0,0.0,0.0,0.0,0.0,0.0,0.0,0.0,0.0,0.0,0.0,0.0,0.0,0.0,0.0,0.0,0.0,0.0,0.0,0.0,0.0,0.0,0.0,0.0,0.0,0.0,0.0,0.0,0.0,0.0,0.0,0.0,0.0,0.0,0.0,0.0,0.0,0.0,0.0,0.0,0.0,0.0,0.0,0.0,0.0,0.0,0.0,0.0,0.0,0.0,0.0,0.0,0.0,0.0,0.0,0.0,0.0,0.0,0.0,0.0,0.0,0.0,0.0,0.0,0.0,0.0,0.0,0.0,0.0,0.0,0.0,0.0,0.0,0.0,0.0,0.0,0.0,0.0,0.0,0.0,0.0,0.0,0.0,0.0,0.0,0.0,0.0,0.0,0.0,0.0,0.0,0.0,0.0,0.0,0.0,0.0,0.0,0.0,0.0,0.0,0.0,0.0,0.0,0.0,0.0,0.0,0.0,0.0,0.0,0.0,0.0,0.0,0.0,0.0,0.0,0.0,0.0,0.0,0.0,0.0,0.0,0.0,0.0,0.0,0.0,0.0,0.0,0.0,0.0,0.0,0.0,0.0,0.0,0.0,0.0,0.0,0.0,0.0,0.0,0.0,0.0,0.0,0.0,0.0,0.0,0.0,0.0,0.0,0.0,0.0,0.0,0.0,0.0,0.0,0.0,0.0,0.0,0.0,0.0,0.0,0.0,0.0,0.0,0.0,0.0,0.0,0.0,0.0,0.0,0.0,0.0,0.0,0.0,0.0,0.0,0.0,0.0,0.0,0.0,0.0,0.0,0.0,0.0,0.0,0.0,0.0,0.0,0.0,0.0,0.0,0.0,0.0,0.0,0.0,0.0,0.0,0.0,0.0,0.0,0.0,0.0,0.0,0.0,0.0,0.0,0.0,0.0,0.0,0.0,0.0,0.0,0.0,0.0,0.0,0.0,0.0,0.0,0.0,0.0,0.0,0.0,0.0,0.0,0.0,0.0,0.0,0.0,0.0,0.0,0.0,0.0,0.0,0.0,0.0,0.0,0.0,0.0,0.0,0.0,0.0,0.0,0.0,0.0,0.0,0.0,0.0,0.0,0.0,0.0,0.0,0.0,0.0,0.0,0.0,0.0,0.0,0.0,0.0,0.0,0.0,0.0,0.0,0.0,0.0,0.0,0.0,0.0,0.0,0.0,0.0,0.0,0.0,0.0,0.0,0.0,0.0,0.0,0.0,0.0,0.0,0.0,0.0,0.0,0.0,0.0,0.0,0.0,0.0,0.0,0.0,0.0,0.0,0.0,0.0,0.0,0.0,0.0,0.0,0.0,0.0,0.0,0.0,0.0,0.0,0.0,0.0,0.0,0.0,0.0,0.0,0.0,0.0,0.0,0.0,0.0,0.0,0.0,0.0,0.0,0.0,0.0,0.0,0.0,0.0,0.0,0.0,0.0,0.0,0.0,0.0,0.0,0.0,0.0,0.0,0.0,0.0,0.0,0.0,0.0,0.0,0.0,0.0,0.0,0.0,0.0,0.0,0.0,0.0,0.0,0.0,0.0,0.0,0.0,0.0,0.0,0.0,0.0,0.0,0.0,0.0,0.0,0.0,0.0,0.0,0.0,0.0,0.0,0.0,0.0,0.0,0.0,0.0,0.0,0.0,0.0,0.0,0.0,0.0,0.0,0.0,0.0,0.0,0.0,0.0,0.0,0.0,0.0,0.0,0.0,0.0,0.0,0.0,0.0,0.0,0.0,0.0,0.0,0.0,0.0,0.0,0.0,0.0,0.0,0.0,0.0,0.0,0.0,0.0,0.0,0.0,0.0,0.0,0.0,0.0,0.0,0.0,0.0,0.0,0.0,0.0,0.0,0.0,0.0,0.0,0.0,0.0,0.0,0.0,0.0,0.0,0.0,0.0,0.0,0.0,0.0,0.0,0.0,0.0,0.0,0.0,0.0,0.0,0.0,0.0,0.0,0.0,0.0,0.0,0.0,0.0,0.0,0.0,0.0,0.0,0.0,0.0,0.0,0.0,0.0,0.0,0.0,0.0,0.0,0.0,0.0,0.0,0.0,0.0,0.0,0.0,0.0,0.0,-1.1313,0.0,0.0,0.0,0.0,0.0,0.0,0.0,0.0,0.0,0.0,0.0,0.0,0.0,0.0,0.0,0.0,0.0,0.0,0.0,0.0,0.0,0.0,0.0,0.0,0.0,0.0,0.0,0.0,0.0,0.0,0.0,0.0,0.0,0.0,0.0,0.0,0.0,0.0,0.0,0.0,0.0,0.0,0.0,0.0,0.0,0.0,0.0,0.0,0.0,0.0,0.0,0.0,0.0,0.0,0.0,0.0,0.0,0.0,0.0,0.0,0.0,0.0,0.0,0.0,0.0,0.0,0.0,0.0,0.0,0.0,0.0,0.0,0.0,0.0,0.0,0.0,0.0,0.0,0.0,0.0,0.0,0.0,0.0,0.0,0.0,0.0,0.0,0.0,0.0,0.0,0.0,0.0,0.0,0.0,0.0,0.0,0.0,0.0,0.0,0.0,0.0,0.0,0.0,0.0,0.0,0.0,0.0,0.0,0.0,0.0,-1.1736,-1.1654,-1.1654,-1.1614,-1.1533,0.0,0.0,0.0,0.0,0.0,0.0,0.0,0.0,0.0,0.0,0.0,0.0,0.0,0.0,0.0,0.0,0.0,0.0,0.0,0.0,0.0,0.0,0.0,0.0,0.0,0.0,0.0,0.0,0.0,0.0,0.0,0.0,0.0,0.0,0.0,0.0,0.0,0.0,0.0,0.0,0.0,0.0,0.0,0.0,0.0,0.0,0.0,0.0,0.0,0.0,0.0,0.0,0.0,0.0,0.0,0.0,0.0,0.0,0.0,0.0,0.0,0.0,0.0,0.0,0.0,0.0,0.0,0.0,0.0,0.0,0.0,0.0,0.0,0.0,0.0,0.0,0.0,0.0,0.0,0.0,0.0,0.0,0.0,0.0,0.0,0.0,0.0,0.0,0.0,0.0,0.0,0.0,0.0,0.0,0.0,0.0,0.0,0.0,0.0,0.0,0.0,0.0,0.0,0.0,0.0,0.0,0.0,0.0,0.0,0.0,0.0,0.0,-1.1837,-1.1837,-1.1837,0.0,0.0,0.0,0.0,0.0,0.0,0.0,0.0,0.0,0.0,0.0,0.0,0.0,0.0,0.0,0.0,0.0,0.0,0.0,0.0,0.0,0.0,0.0,0.0,0.0,0.0,0.0,0.0,0.0,0.0,0.0,0.0,0.0,0.0,0.0,0.0,0.0,0.0,0.0,0.0,0.0,0.0,0.0,0.0,0.0,0.0,0.0,0.0,0.0,0.0,0.0,0.0,0.0,0.0,0.0,0.0,0.0,0.0,0.0,0.0,0.0,0.0,0.0,0.0,0.0,0.0,0.0,0.0,0.0,0.0,0.0,0.0,0.0,0.0,0.0,0.0,0.0,0.0,0.0,0.0,0.0,0.0,0.0,0.0,0.0,0.0,0.0,0.0,0.0,0.0,0.0,0.0,0.0,0.0,0.0,0.0,0.0,0.0,0.0,0.0,0.0,0.0,0.0,0.0,0.0,0.0,0.0,0.0,0.0,0.0,-1.1837,-1.1837,-1.1776,0.0,-1.1837,0.0,0.0,0.0,0.0,0.0,0.0,0.0,0.0,0.0,0.0,0.0,0.0,0.0,0.0,0.0,0.0,0.0,0.0,0.0,0.0,0.0,0.0,0.0,0.0,0.0,0.0,0.0,0.0,0.0,0.0,0.0,0.0,0.0,0.0,0.0,0.0,0.0,0.0,0.0,0.0,0.0,0.0,0.0,0.0,0.0,0.0,0.0,0.0,0.0,0.0,0.0,0.0,0.0,0.0,0.0,0.0,0.0,0.0,0.0,0.0,0.0,0.0,0.0,0.0,0.0,0.0,0.0,0.0,0.0,0.0,0.0,0.0,0.0,0.0,0.0,0.0,0.0,0.0,0.0,0.0,0.0,0.0,0.0,0.0,0.0,0.0,0.0,0.0,0.0,0.0,0.0,0.0,0.0,0.0,0.0,0.0,0.0,0.0,0.0,0.0,0.0,0.0,0.0,0.0,0.0,0.0,0.0,0.0,0.0,0.0,-1.1882,-1.1837,-1.1587,-1.1587,0.0,0.0,0.0,0.0,0.0,0.0,0.0,0.0,0.0,0.0,0.0,0.0,0.0,0.0,0.0,0.0,0.0,0.0,0.0,0.0,0.0,0.0,0.0,0.0,0.0,0.0,0.0,0.0,0.0,0.0,0.0,0.0,0.0,0.0,0.0,0.0,0.0,0.0,0.0,0.0,0.0,0.0,0.0,0.0,0.0,0.0,0.0,0.0,0.0,0.0,0.0,0.0,0.0,0.0,0.0,0.0,0.0,0.0,0.0,0.0,0.0,0.0,0.0,0.0,0.0,0.0,0.0,0.0,0.0,0.0,0.0,0.0,0.0,0.0,0.0,0.0,0.0,0.0,0.0,0.0,0.0,0.0,0.0,0.0,0.0,0.0,0.0,0.0,0.0,0.0,0.0,0.0,0.0,0.0,0.0,0.0,0.0,0.0,0.0,0.0,0.0,0.0,0.0,0.0,0.0,0.0,0.0,0.0,0.0,0.0,-1.1898,-1.1898,-1.1784,-1.1587,-1.1518,-1.1776,0.0,0.0,0.0,0.0,0.0,0.0,0.0,0.0,0.0,0.0,0.0,0.0,0.0,0.0,0.0,0.0,0.0,0.0,0.0,0.0,0.0,0.0,0.0,0.0,0.0,0.0,0.0,0.0,0.0,0.0,0.0,0.0,0.0,0.0,0.0,0.0,0.0,0.0,0.0,0.0,0.0,0.0,0.0,0.0,0.0,0.0,0.0,0.0,0.0,0.0,0.0,0.0,0.0,0.0,0.0,0.0,0.0,0.0,0.0,0.0,0.0,0.0,0.0,0.0,0.0,0.0,0.0,0.0,0.0,0.0,0.0,0.0,0.0,0.0,0.0,0.0,0.0,0.0,0.0,0.0,0.0,0.0,0.0,0.0,0.0,0.0,0.0,0.0,0.0,0.0,0.0,0.0,0.0,0.0,0.0,0.0,0.0,0.0,0.0,0.0,0.0,0.0,0.0,0.0,0.0,0.0,0.0,0.0,-1.1837,-1.1784,-1.1784,-1.1784,-1.1776,-1.1776,0.0,0.0,0.0,0.0,0.0,0.0,0.0,0.0,0.0,0.0,0.0,0.0,0.0,0.0,0.0,0.0,0.0,0.0,0.0,0.0,0.0,0.0,0.0,0.0,0.0,0.0,0.0,0.0,0.0,0.0,0.0,0.0,0.0,0.0,0.0,0.0,0.0,0.0,0.0,0.0,0.0,0.0,0.0,0.0,0.0,0.0,0.0,0.0,0.0,0.0,0.0,0.0,0.0,0.0,0.0,0.0,0.0,0.0,0.0,0.0,0.0,0.0,0.0,0.0,0.0,0.0,0.0,0.0,0.0,0.0,0.0,0.0,0.0,0.0,0.0,0.0,0.0,0.0,0.0,0.0,0.0,0.0,0.0,0.0,0.0,0.0,0.0,0.0,0.0,0.0,0.0,0.0,0.0,0.0,0.0,0.0,0.0,0.0,0.0,0.0,0.0,0.0,0.0,0.0,0.0,0.0,0.0,0.0,0.0,-1.1837,-1.1837,-1.1825,-1.1931,-1.1643,-1.1587,0.0,0.0,0.0,0.0,0.0,0.0,0.0,0.0,0.0,0.0,0.0,0.0,0.0,0.0,0.0,0.0,0.0,0.0,0.0,0.0,0.0,0.0,0.0,0.0,0.0,0.0,0.0,0.0,0.0,0.0,0.0,0.0,0.0,0.0,0.0,0.0,0.0,0.0,0.0,0.0,0.0,0.0,0.0,0.0,0.0,0.0,0.0,0.0,0.0,0.0,0.0,0.0,0.0,0.0,0.0,0.0,0.0,0.0,0.0,0.0,0.0,0.0,0.0,0.0,0.0,0.0,0.0,0.0,0.0,0.0,0.0,0.0,0.0,0.0,0.0,0.0,0.0,0.0,0.0,0.0,0.0,0.0,0.0,0.0,0.0,0.0,0.0,0.0,0.0,0.0,0.0,0.0,0.0,0.0,0.0,0.0,0.0,0.0,0.0,0.0,0.0,0.0,0.0,0.0,0.0,0.0,0.0,0.0,0.0,-1.1837,0.0,-1.1772,0.0,-1.1582,-1.1518,0.0,0.0,0.0,0.0,0.0,0.0,0.0,0.0,0.0,0.0,0.0,0.0,0.0,0.0,0.0,0.0,0.0,0.0,0.0,0.0,0.0,0.0,0.0,0.0,0.0,0.0,0.0,0.0,0.0,0.0,0.0,0.0,0.0,0.0,0.0,0.0,0.0,0.0,0.0,0.0,0.0,0.0,0.0,0.0,0.0,0.0,0.0,0.0,0.0,0.0,0.0,0.0,0.0,0.0,0.0,0.0,0.0,0.0,0.0,0.0,0.0,0.0,0.0,0.0,0.0,0.0,0.0,0.0,0.0,0.0,0.0,0.0,0.0,0.0,0.0,0.0,0.0,0.0,0.0,0.0,0.0,0.0,0.0,0.0,0.0,0.0,0.0,0.0,0.0,0.0,0.0,0.0,0.0,0.0,0.0,0.0,0.0,0.0,0.0,0.0,0.0,0.0,0.0,0.0,0.0,0.0,0.0,0.0,-1.1784,-1.1784,-1.1792,-1.1679,-1.1345,-1.1603,-1.1655,0.0,0.0,0.0,0.0,0.0,0.0,0.0,0.0,0.0,0.0,0.0,0.0,0.0,0.0,0.0,0.0,0.0,0.0,0.0,0.0,0.0,0.0,0.0,0.0,0.0,0.0,0.0,0.0,0.0,0.0,0.0,0.0,0.0,0.0,0.0,0.0,0.0,0.0,0.0,0.0,0.0,0.0,0.0,0.0,0.0,0.0,0.0,0.0,0.0,0.0,0.0,0.0,0.0,0.0,0.0,0.0,0.0,0.0,0.0,0.0,0.0,0.0,0.0,0.0,0.0,0.0,0.0,0.0,0.0,0.0,0.0,0.0,0.0,0.0,0.0,0.0,0.0,0.0,0.0,0.0,0.0,0.0,0.0,0.0,0.0,0.0,0.0,0.0,0.0,0.0,0.0,0.0,0.0,0.0,0.0,0.0,0.0,0.0,0.0,0.0,0.0,0.0,0.0,0.0,0.0,0.0,0.0,0.0,0.0,-1.1955,-1.2077,-1.2079,-1.2009,-1.195,-1.1763,0.0,0.0,0.0,0.0,0.0,0.0,0.0,0.0,0.0,0.0,0.0,0.0,0.0,0.0,0.0,0.0,0.0,0.0,0.0,0.0,0.0,0.0,0.0,0.0,0.0,0.0,0.0,0.0,0.0,0.0,0.0,0.0,0.0,0.0,0.0,0.0,0.0,0.0,0.0,0.0,0.0,0.0,0.0,0.0,0.0,0.0,0.0,0.0,0.0,0.0,0.0,0.0,0.0,0.0,0.0,0.0,0.0,0.0,0.0,0.0,0.0,0.0,0.0,0.0,0.0,0.0,0.0,0.0,0.0,0.0,0.0,0.0,0.0,0.0,0.0,0.0,0.0,0.0,0.0,0.0,0.0,0.0,0.0,0.0,0.0,0.0,0.0,0.0,0.0,0.0,0.0,0.0,0.0,0.0,0.0,0.0,0.0,0.0,0.0,0.0,0.0,0.0,0.0,0.0,0.0,0.0,0.0,0.0,0.0,-1.2418,-1.2475,-1.2443,-1.2315,-1.2265,-1.2011,-1.1635,0.0,0.0,0.0,0.0,0.0,0.0,0.0,0.0,0.0,0.0,0.0,0.0,0.0,0.0,0.0,0.0,0.0,0.0,0.0,0.0,0.0,0.0,0.0,0.0,0.0,0.0,0.0,0.0,0.0,0.0,0.0,0.0,0.0,0.0,0.0,0.0,0.0,0.0,0.0,0.0,0.0,0.0,0.0,0.0,0.0,0.0,0.0,0.0,0.0,0.0,0.0,0.0,0.0,0.0,0.0,0.0,0.0,0.0,0.0,0.0,0.0,0.0,0.0,0.0,0.0,0.0,0.0,0.0,0.0,0.0,0.0,0.0,0.0,0.0,0.0,0.0,0.0,0.0,0.0,0.0,0.0,0.0,0.0,0.0,0.0,0.0,0.0,0.0,0.0,0.0,0.0,0.0,0.0,0.0,0.0,0.0,0.0,0.0,0.0,0.0,0.0,0.0,0.0,0.0,0.0,0.0,0.0,0.0,-1.3116,-1.3019,-1.2813,-1.2507,-1.258,-1.2395,0.0,0.0,0.0,0.0,0.0,0.0,0.0,0.0,0.0,0.0,0.0,0.0,0.0,0.0,0.0,0.0,0.0,0.0,0.0,0.0,0.0,0.0,0.0,0.0,0.0,0.0,0.0,0.0,0.0,0.0,0.0,0.0,0.0,0.0,0.0,0.0,0.0,0.0,0.0,0.0,0.0,0.0,0.0,0.0,0.0,0.0,0.0,0.0,0.0,0.0,0.0,0.0,0.0,0.0,0.0,0.0,0.0,0.0,0.0,0.0,0.0,0.0,0.0,0.0,0.0,0.0,0.0,0.0,0.0,0.0,0.0,0.0,0.0,0.0,0.0,0.0,0.0,0.0,0.0,0.0,0.0,0.0,0.0,0.0,0.0,0.0,0.0,0.0,0.0,0.0,0.0,0.0,0.0,0.0,0.0,0.0,0.0,0.0,0.0,0.0,0.0,0.0,0.0,0.0,0.0,0.0,0.0,0.0,0.0,-1.3429,-1.4091,-1.4156,-1.3504,-1.2977,-1.2543,0.0,0.0,0.0,0.0,0.0,0.0,0.0,0.0,0.0,0.0,0.0,0.0,0.0,0.0,0.0,0.0,0.0,0.0,0.0,0.0,0.0,0.0,0.0,0.0,0.0,0.0,0.0,0.0,0.0,0.0,0.0,0.0,0.0,0.0,0.0,0.0,0.0,0.0,0.0,0.0,0.0,0.0,0.0,0.0,0.0,0.0,0.0,0.0,0.0,0.0,0.0,0.0,0.0,0.0,0.0,0.0,0.0,0.0,0.0,0.0,0.0,0.0,0.0,0.0,0.0,0.0,0.0,0.0,0.0,0.0,0.0,0.0,0.0,0.0,0.0,0.0,0.0,0.0,0.0,0.0,0.0,0.0,0.0,0.0,0.0,0.0,0.0,0.0,0.0,0.0,0.0,0.0,0.0,0.0,0.0,0.0,0.0,0.0,0.0,0.0,0.0,0.0,0.0,0.0,0.0,0.0,0.0,0.0,-1.3384,-1.3969,-1.4773,-1.5033,-1.4692,-1.3898,-1.3121,0.0,0.0,0.0,0.0,0.0,0.0,0.0,0.0,0.0,0.0,0.0,0.0,0.0,0.0,0.0,0.0,0.0,0.0,0.0,0.0,0.0,0.0,0.0,0.0,0.0,0.0,0.0,0.0,0.0,0.0,0.0,0.0,0.0,0.0,0.0,0.0,0.0,0.0,0.0,0.0,0.0,0.0,0.0,0.0,0.0,0.0,0.0,0.0,0.0,0.0,0.0,0.0,0.0,0.0,0.0,0.0,0.0,0.0,0.0,0.0,0.0,0.0,0.0,0.0,0.0,0.0,0.0,0.0,0.0,0.0,0.0,0.0,0.0,0.0,0.0,0.0,0.0,0.0,0.0,0.0,0.0,0.0,0.0,0.0,0.0,0.0,0.0,0.0,0.0,0.0,0.0,0.0,0.0,0.0,0.0,0.0,0.0,0.0,0.0,0.0,0.0,0.0,0.0,0.0,0.0,0.0,0.0,0.0,-1.3604,-1.4473,-1.5212,-1.5675,-1.5796,-1.4883,-1.385,0.0,0.0,0.0,0.0,0.0,0.0,0.0,0.0,0.0,0.0,0.0,0.0,0.0,0.0,0.0,0.0,0.0,0.0,0.0,0.0,0.0,0.0,0.0,0.0,0.0,0.0,0.0,0.0,0.0,0.0,0.0,0.0,0.0,0.0,0.0,0.0,0.0,0.0,0.0,0.0,0.0,0.0,0.0,0.0,0.0,0.0,0.0,0.0,0.0,0.0,0.0,0.0,0.0,0.0,0.0,0.0,0.0,0.0,0.0,0.0,0.0,0.0,0.0,0.0,0.0,0.0,0.0,0.0,0.0,0.0,0.0,0.0,0.0,0.0,0.0,0.0,0.0,0.0,0.0,0.0,0.0,0.0,0.0,0.0,0.0,0.0,0.0,0.0,0.0,0.0,0.0,0.0,0.0,0.0,0.0,0.0,0.0,0.0,0.0,0.0,0.0,0.0,0.0,0.0,0.0,0.0,0.0,0.0,-1.4099,-1.4846,-1.5691,-1.6154,-1.6186,-1.4774,-1.3772,0.0,0.0,0.0,0.0,0.0,0.0,0.0,0.0,0.0,0.0,0.0,0.0,0.0,0.0,0.0,0.0,0.0,0.0,0.0,0.0,0.0,0.0,0.0,0.0,0.0,0.0,0.0,0.0,0.0,0.0,0.0,0.0,0.0,0.0,0.0,0.0,0.0,0.0,0.0,0.0,0.0,0.0,0.0,0.0,0.0,0.0,0.0,0.0,-1.0806,0.0,0.0,0.0,0.0,0.0,0.0,0.0,0.0,0.0,0.0,0.0,0.0,0.0,0.0,0.0,0.0,0.0,0.0,0.0,0.0,0.0,0.0,0.0,0.0,0.0,0.0,0.0,0.0,0.0,0.0,0.0,0.0,0.0,0.0,0.0,0.0,0.0,0.0,0.0,0.0,0.0,0.0,0.0,0.0,0.0,0.0,0.0,0.0,0.0,0.0,0.0,0.0,0.0,0.0,0.0,0.0,0.0,0.0,0.0,-1.4456,-1.5325,-1.6146,-1.66,-1.6649,-1.5252,-1.413,0.0,0.0,0.0,0.0,0.0,0.0,0.0,0.0,0.0,0.0,0.0,0.0,0.0,0.0,0.0,0.0,0.0,0.0,0.0,0.0,0.0,0.0,0.0,0.0,0.0,0.0,0.0,0.0,0.0,0.0,0.0,0.0,0.0,0.0,0.0,0.0,0.0,0.0,0.0,0.0,0.0,0.0,0.0,0.0,0.0,0.0,0.0,0.0,0.0,0.0,0.0,0.0,0.0,0.0,0.0,0.0,0.0,0.0,0.0,0.0,0.0,0.0,0.0,0.0,0.0,0.0,0.0,0.0,0.0,0.0,0.0,0.0,0.0,0.0,0.0,0.0,0.0,0.0,0.0,0.0,0.0,0.0,0.0,0.0,0.0,0.0,0.0,0.0,0.0,0.0,0.0,0.0,0.0,0.0,0.0,0.0,0.0,0.0,0.0,0.0,0.0,0.0,0.0,0.0,0.0,0.0,0.0,-1.375,-1.4806,-1.5829,-1.6535,-1.6958,-1.7088,-1.5826,-1.4578,-1.3293,0.0,0.0,0.0,0.0,0.0,0.0,0.0,0.0,0.0,0.0,0.0,0.0,0.0,0.0,0.0,0.0,0.0,0.0,0.0,0.0,0.0,0.0,0.0,0.0,0.0,0.0,0.0,0.0,0.0,0.0,0.0,0.0,0.0,0.0,0.0,0.0,0.0,0.0,-1.0941,-1.1328,0.0,0.0,0.0,0.0,0.0,0.0,0.0,0.0,-1.1572,0.0,0.0,0.0,0.0,0.0,0.0,0.0,0.0,0.0,0.0,0.0,0.0,0.0,0.0,0.0,0.0,0.0,0.0,0.0,0.0,0.0,0.0,0.0,0.0,0.0,0.0,0.0,0.0,0.0,0.0,0.0,0.0,0.0,0.0,0.0,0.0,0.0,0.0,0.0,0.0,0.0,0.0,0.0,0.0,0.0,0.0,0.0,0.0,0.0,0.0,0.0,0.0,0.0,0.0,0.0,0.0,-1.3238,-1.4294,-1.5285,-1.6194,-1.6771,-1.708,-1.7088,-1.5818,-1.4625,-1.3371,0.0,0.0,0.0,0.0,0.0,0.0,0.0,0.0,0.0,0.0,0.0,0.0,0.0,0.0,0.0,0.0,0.0,0.0,0.0,0.0,0.0,0.0,0.0,0.0,0.0,0.0,0.0,0.0,0.0,0.0,0.0,0.0,0.0,0.0,0.0,0.0,0.0,0.0,0.0,-1.187,-1.2094,0.0,0.0,0.0,0.0,0.0,0.0,0.0,0.0,-1.1552,0.0,0.0,0.0,0.0,0.0,0.0,0.0,0.0,0.0,0.0,0.0,0.0,0.0,0.0,0.0,0.0,0.0,0.0,0.0,0.0,0.0,0.0,0.0,0.0,0.0,0.0,0.0,0.0,0.0,0.0,0.0,0.0,0.0,0.0,0.0,0.0,0.0,0.0,0.0,0.0,0.0,0.0,0.0,0.0,0.0,0.0,0.0,0.0,0.0,0.0,0.0,0.0,0.0,0.0,0.0,-1.3782,-1.4846,-1.5821,-1.6698,-1.725,-1.7445,-1.7242,-1.6213,-1.4932,0.0,0.0,0.0,0.0,0.0,0.0,0.0,0.0,0.0,0.0,0.0,0.0,0.0,0.0,0.0,0.0,0.0,0.0,0.0,0.0,0.0,0.0,0.0,0.0,0.0,0.0,0.0,0.0,0.0,0.0,0.0,0.0,0.0,0.0,0.0,0.0,0.0,0.0,0.0,0.0,-1.2237,-1.2494,-1.242,0.0,0.0,0.0,0.0,0.0,0.0,-1.2447,-1.2067,0.0,0.0,0.0,0.0,0.0,0.0,0.0,0.0,0.0,0.0,0.0,0.0,0.0,0.0,0.0,0.0,0.0,0.0,0.0,0.0,0.0,0.0,0.0,0.0,0.0,0.0,0.0,0.0,0.0,0.0,0.0,0.0,0.0,0.0,0.0,0.0,0.0,0.0,0.0,0.0,0.0,0.0,0.0,0.0,0.0,0.0,0.0,0.0,0.0,0.0,0.0,0.0,0.0,0.0,0.0,-1.4318,-1.5358,-1.6308,-1.7185,-1.7672,-1.7729,-1.7331,-1.641,-1.5201,0.0,0.0,0.0,0.0,0.0,0.0,0.0,0.0,0.0,0.0,0.0,0.0,0.0,0.0,0.0,0.0,0.0,0.0,0.0,0.0,0.0,0.0,0.0,0.0,0.0,0.0,0.0,0.0,0.0,0.0,0.0,0.0,0.0,0.0,0.0,0.0,0.0,0.0,0.0,0.0,0.0,-1.282,-1.282,-1.3071,0.0,0.0,0.0,0.0,-1.3091,-1.2895,0.0,0.0,0.0,0.0,0.0,0.0,0.0,0.0,0.0,0.0,0.0,0.0,0.0,0.0,0.0,0.0,0.0,0.0,0.0,0.0,0.0,0.0,0.0,0.0,0.0,0.0,0.0,0.0,0.0,0.0,0.0,0.0,0.0,0.0,0.0,0.0,0.0,0.0,0.0,0.0,0.0,0.0,0.0,0.0,0.0,0.0,0.0,0.0,0.0,0.0,0.0,0.0,0.0,0.0,0.0,0.0,-1.4846,-1.5772,-1.6674,-1.7534,-1.7794,-1.7672,-1.7153,-1.6092,-1.475,0.0,0.0,0.0,0.0,0.0,0.0,0.0,0.0,0.0,0.0,0.0,0.0,0.0,0.0,0.0,0.0,0.0,0.0,0.0,0.0,0.0,0.0,0.0,0.0,0.0,0.0,0.0,0.0,0.0,0.0,0.0,0.0,0.0,0.0,0.0,0.0,0.0,0.0,0.0,0.0,0.0,-1.3119,-1.3119,-1.3383,-1.3566,0.0,0.0,-1.3546,-1.3376,-1.3119,0.0,0.0,0.0,0.0,0.0,0.0,0.0,0.0,0.0,0.0,0.0,0.0,0.0,0.0,0.0,0.0,0.0,0.0,0.0,0.0,0.0,0.0,0.0,0.0,0.0,0.0,0.0,0.0,0.0,0.0,0.0,0.0,0.0,0.0,0.0,0.0,0.0,0.0,0.0,0.0,0.0,0.0,0.0,0.0,0.0,0.0,0.0,0.0,0.0,0.0,0.0,0.0,0.0,0.0,0.0,-1.3685,-1.5098,-1.6105,-1.6998,-1.777,-1.7973,-1.7762,-1.7128,-1.6084,-1.4789,0.0,0.0,0.0,0.0,0.0,0.0,0.0,0.0,0.0,0.0,0.0,0.0,0.0,0.0,0.0,0.0,0.0,0.0,0.0,0.0,0.0,0.0,0.0,0.0,0.0,0.0,0.0,0.0,0.0,0.0,0.0,0.0,0.0,0.0,0.0,0.0,0.0,0.0,0.0,0.0,0.0,0.0,-1.3417,-1.3688,0.0,0.0,0.0,-1.3831,-1.3675,0.0,0.0,0.0,0.0,0.0,0.0,0.0,0.0,0.0,0.0,0.0,0.0,0.0,0.0,0.0,0.0,0.0,0.0,0.0,0.0,0.0,0.0,0.0,0.0,0.0,0.0,0.0,0.0,0.0,0.0,0.0,0.0,0.0,0.0,0.0,0.0,0.0,0.0,0.0,0.0,0.0,0.0,0.0,0.0,0.0,0.0,0.0,0.0,0.0,0.0,0.0,0.0,0.0,0.0,0.0,0.0,0.0,-1.5415,-1.6414,-1.7266,-1.7957,-1.8103,-1.7859,-1.7193,-1.6233,0.0,0.0,0.0,0.0,0.0,0.0,0.0,0.0,0.0,0.0,0.0,0.0,0.0,0.0,0.0,0.0,0.0,0.0,0.0,0.0,0.0,0.0,0.0,0.0,0.0,0.0,0.0,-0.9862,0.0,0.0,0.0,0.0,0.0,0.0,0.0,0.0,0.0,0.0,0.0,0.0,0.0,0.0,-1.3526,-1.3715,-1.396,-1.4089,0.0,0.0,-1.4061,-1.3871,-1.3498,-1.3051,0.0,0.0,0.0,0.0,0.0,0.0,0.0,0.0,0.0,0.0,0.0,0.0,0.0,0.0,0.0,0.0,0.0,0.0,0.0,0.0,0.0,0.0,0.0,0.0,0.0,0.0,0.0,0.0,0.0,0.0,0.0,0.0,0.0,0.0,0.0,0.0,0.0,0.0,0.0,0.0,0.0,0.0,0.0,0.0,0.0,0.0,0.0,0.0,0.0,0.0,0.0,0.0,0.0,0.0,0.0,-1.5861,-1.6722,-1.7437,-1.8127,-1.8168,-1.7916,-1.738,-1.6665,-1.5377,0.0,0.0,0.0,0.0,0.0,0.0,0.0,0.0,0.0,0.0,0.0,0.0,0.0,0.0,0.0,0.0,0.0,0.0,0.0,0.0,0.0,0.0,0.0,0.0,0.0,0.0,0.0,0.0,0.0,0.0,0.0,0.0,0.0,0.0,0.0,0.0,0.0,0.0,0.0,0.0,0.0,-1.3715,-1.4,-1.4183,-1.4278,0.0,0.0,-1.4183,-1.3885,-1.3587,-1.3139,-1.2427,0.0,0.0,0.0,0.0,0.0,0.0,0.0,0.0,0.0,0.0,0.0,0.0,0.0,0.0,0.0,0.0,0.0,0.0,0.0,0.0,0.0,0.0,0.0,0.0,0.0,0.0,0.0,0.0,0.0,0.0,0.0,0.0,0.0,0.0,0.0,0.0,0.0,0.0,0.0,0.0,0.0,0.0,0.0,0.0,0.0,0.0,0.0,0.0,0.0,0.0,0.0,0.0,0.0,-1.4148,-1.5699,-1.6747,-1.7575,-1.8152,-1.829,-1.8038,-1.7404,-1.6529,-1.5443,0.0,0.0,0.0,0.0,0.0,0.0,0.0,0.0,0.0,0.0,0.0,0.0,0.0,0.0,0.0,0.0,0.0,0.0,0.0,0.0,0.0,0.0,0.0,0.0,0.0,0.0,0.0,0.0,-1.0297,-1.034,-1.034,0.0,0.0,0.0,0.0,0.0,0.0,0.0,0.0,0.0,0.0,-1.3736,-1.4034,-1.4204,0.0,0.0,-1.4299,-1.4224,-1.4014,-1.3654,-1.3241,-1.2779,-1.2054,0.0,0.0,0.0,0.0,0.0,0.0,0.0,0.0,0.0,0.0,0.0,0.0,0.0,0.0,0.0,0.0,0.0,0.0,0.0,0.0,0.0,0.0,0.0,0.0,0.0,0.0,0.0,0.0,0.0,0.0,0.0,0.0,0.0,0.0,0.0,0.0,0.0,0.0,0.0,0.0,0.0,0.0,0.0,0.0,0.0,0.0,0.0,0.0,0.0,0.0,0.0,0.0,-1.4131,-1.5658,-1.6803,-1.7672,-1.8249,-1.8387,-1.8192,-1.7632,-1.6649,-1.5537,0.0,0.0,0.0,0.0,0.0,0.0,0.0,0.0,0.0,0.0,0.0,0.0,0.0,0.0,0.0,0.0,0.0,0.0,0.0,0.0,0.0,0.0,0.0,0.0,0.0,0.0,0.0,0.0,-1.0297,-1.0215,-1.0215,0.0,0.0,0.0,0.0,0.0,0.0,0.0,0.0,0.0,0.0,-1.3804,-1.4095,-1.4231,-1.4299,-1.4299,-1.4265,-1.4177,-1.4027,-1.3627,-1.3234,-1.2942,0.0,0.0,0.0,0.0,0.0,0.0,0.0,0.0,0.0,0.0,0.0,0.0,0.0,0.0,0.0,0.0,0.0,0.0,0.0,0.0,0.0,0.0,0.0,0.0,0.0,0.0,0.0,0.0,0.0,0.0,-1.2562,0.0,0.0,0.0,0.0,0.0,0.0,0.0,0.0,0.0,0.0,0.0,0.0,0.0,0.0,0.0,0.0,0.0,0.0,0.0,0.0,0.0,0.0,-1.4245,-1.5917,-1.6925,-1.7729,-1.8506,-1.8452,-1.8355,-1.8135,-1.6863,-1.5732,-1.4607,0.0,0.0,0.0,0.0,0.0,0.0,0.0,0.0,0.0,0.0,0.0,0.0,0.0,0.0,0.0,0.0,0.0,0.0,0.0,0.0,0.0,0.0,0.0,0.0,0.0,0.0,-1.0283,-1.021,-1.0059,0.0,0.0,0.0,0.0,0.0,0.0,0.0,0.0,0.0,0.0,-1.3648,-1.3946,-1.4251,-1.4299,-1.4299,-1.4299,-1.4177,-1.4021,-1.3871,-1.3478,-1.3078,0.0,0.0,0.0,0.0,0.0,0.0,0.0,0.0,0.0,0.0,0.0,0.0,0.0,0.0,0.0,0.0,0.0,0.0,0.0,0.0,0.0,0.0,0.0,0.0,0.0,0.0,0.0,-1.8945,-1.6789,0.0,0.0,0.0,0.0,0.0,0.0,0.0,0.0,0.0,0.0,0.0,-1.3441,-1.3336,0.0,0.0,0.0,0.0,0.0,0.0,0.0,0.0,0.0,0.0,0.0,0.0,-1.4196,-1.5829,-1.6982,-1.7786,-1.8257,-1.8509,-1.8428,-1.8014,-1.7306,-1.6081,-1.4185,0.0,0.0,0.0,0.0,0.0,0.0,0.0,0.0,0.0,0.0,0.0,0.0,0.0,0.0,0.0,0.0,0.0,0.0,0.0,0.0,0.0,0.0,0.0,0.0,0.0,-1.0344,0.0,0.0,0.0,0.0,0.0,0.0,0.0,0.0,0.0,0.0,0.0,-1.2874,-1.3471,-1.3722,-1.3953,-1.4258,-1.4299,-1.4299,0.0,0.0,0.0,0.0,0.0,0.0,0.0,0.0,0.0,0.0,0.0,0.0,0.0,0.0,-1.2467,-1.187,-1.1762,-1.1735,-1.1633,0.0,0.0,0.0,0.0,0.0,0.0,0.0,0.0,0.0,0.0,0.0,0.0,0.0,0.0,-1.9524,0.0,-1.6097,0.0,0.0,0.0,0.0,0.0,0.0,0.0,0.0,-1.3693,-1.4026,-1.4359,-1.4318,-1.4229,0.0,-1.3855,-1.3352,0.0,0.0,0.0,0.0,0.0,0.0,0.0,0.0,-1.4261,-1.5837,-1.6974,-1.7786,-1.8257,-1.8509,-1.846,-1.8111,-1.7304,-1.5879,-1.3964,-1.2889,-1.1879,0.0,0.0,0.0,0.0,0.0,0.0,0.0,0.0,0.0,0.0,0.0,0.0,0.0,0.0,0.0,0.0,0.0,0.0,0.0,0.0,0.0,0.0,0.0,-1.0412,0.0,0.0,0.0,0.0,0.0,0.0,0.0,0.0,0.0,-1.2026,-1.2501,-1.3017,-1.3559,-1.3664,-1.3953,-1.4258,0.0,0.0,0.0,0.0,0.0,0.0,0.0,-1.3668,-1.3573,-1.3641,-1.3763,-1.3919,-1.3946,-1.4014,-1.4211,0.0,0.0,-1.3003,-1.2827,-1.2793,-1.2698,-1.2725,-1.2807,-1.2956,-1.303,-1.3132,0.0,0.0,0.0,0.0,0.0,0.0,0.0,0.0,-2.1904,-2.048,0.0,-1.654,0.0,0.0,0.0,0.0,0.0,-1.2726,0.0,0.0,-1.4637,-1.5004,-1.5409,-1.5668,-1.5499,-1.5163,-1.5122,-1.4843,-1.4148,-1.297,0.0,0.0,0.0,0.0,0.0,0.0,-1.4374,-1.6024,-1.6933,-1.7729,-1.8498,-1.8452,-1.8444,-1.8403,-1.668,-1.5167,-1.397,-1.3003,-1.225,-1.1667,-1.1136,0.0,0.0,0.0,0.0,0.0,0.0,0.0,0.0,0.0,0.0,0.0,0.0,0.0,0.0,0.0,0.0,0.0,0.0,0.0,0.0,-1.0609,0.0,0.0,0.0,0.0,0.0,0.0,0.0,0.0,0.0,0.0,-1.2149,-1.263,-1.3146,-1.36,0.0,0.0,0.0,0.0,-1.4529,-1.4529,-1.4407,-1.4319,-1.4319,-1.4075,-1.3792,-1.3885,0.0,0.0,-1.493,-1.5004,-1.5086,-1.5377,-1.5404,-1.512,-1.4129,-1.3933,-1.3905,-1.3813,-1.4007,-1.4163,-1.4312,-1.4421,-1.457,-2.6293,0.0,0.0,0.0,0.0,-2.4289,-2.4957,-2.5378,-2.3766,-2.2128,-2.0374,-1.7797,0.0,0.0,0.0,0.0,0.0,0.0,-1.4822,-1.6534,-1.7139,-1.8186,-1.9644,-1.9876,-1.9189,-1.7716,-1.7432,-1.6518,-1.4911,-1.4188,-1.3514,-1.2979,0.0,0.0,0.0,0.0,-1.4749,-1.6178,-1.699,-1.7672,-1.8241,-1.8387,-1.8236,-1.7606,-1.622,-1.5132,-1.46,-1.3528,-1.2752,-1.2264,-1.1721,0.0,0.0,0.0,0.0,0.0,0.0,0.0,0.0,0.0,0.0,0.0,0.0,0.0,0.0,0.0,0.0,0.0,0.0,0.0,-1.1335,-1.1226,-1.105,0.0,0.0,0.0,0.0,0.0,0.0,0.0,0.0,0.0,-1.3139,-1.3227,-1.3485,0.0,0.0,-1.4278,-1.457,-1.474,-1.4835,-1.4835,-1.4713,0.0,-1.476,-1.4611,-1.4523,-1.4631,-1.4984,-1.5371,-1.5703,-1.5764,-1.5825,-1.6015,-1.6056,-1.5974,-1.5798,-1.5404,-1.514,-1.5126,-1.516,-1.5235,-1.5377,-1.5527,-1.5669,-2.9058,-2.6974,-2.5692,-2.5317,-2.5651,-2.6413,-2.6515,-2.6192,-2.5371,-2.342,-2.059,-1.8962,-1.7318,-1.59,-1.6122,0.0,0.0,0.0,-1.7749,-1.9226,-1.9715,-2.0589,-2.1724,-2.1306,-2.0376,-1.9078,-1.8101,-1.6921,-1.5473,-1.509,-1.4611,-1.4099,0.0,0.0,-1.3855,-1.4278,-1.509,-1.6276,-1.7015,-1.7607,-1.8062,-1.8249,-1.8014,-1.718,-1.6181,-1.5445,-1.4864,-1.3949,-1.3227,-1.2786,-1.2257,-1.1742,0.0,0.0,0.0,0.0,0.0,0.0,0.0,0.0,0.0,0.0,0.0,-1.0031,-1.0152,0.0,0.0,0.0,-1.1289,-1.164,-1.1938,-1.1782,0.0,0.0,0.0,0.0,0.0,0.0,0.0,-1.2854,-1.3254,-1.3641,-1.4014,-1.4041,-1.4136,-1.4434,-1.4475,-1.4584,-1.4875,0.0,-1.5147,-1.5147,-1.5065,-1.5038,-1.5133,-1.512,-1.5187,-1.5459,-1.5716,-1.6001,-1.6286,-1.6347,-1.6402,-1.653,-1.6578,-1.6605,-1.6686,-1.6402,-1.6123,-1.6015,-1.5988,-1.6056,-1.6259,-1.6374,-1.6497,-3.145,-3.0742,-2.8591,-2.7789,-2.8003,-2.8591,-2.7833,-2.6097,-2.6616,-2.4453,-2.0517,-2.001,-1.9458,-1.8962,-2.0131,0.0,-1.8475,-2.0298,-2.1342,-2.1886,-2.2163,-2.2492,-2.2722,-2.115,-2.0115,-1.9733,-1.7784,-1.659,-1.6081,-1.574,-1.5496,-1.5222,-1.4326,-1.3977,-1.4278,-1.4757,-1.5439,-1.6316,-1.7015,-1.7551,-1.7932,-1.8095,-1.7816,-1.7195,-1.6469,-1.5777,-1.4953,-1.4201,-1.3654,-1.322,-1.2793,-1.2284,-1.1701,0.0,0.0,0.0,0.0,0.0,0.0,0.0,0.0,0.0,0.0,0.0,0.0,0.0,0.0,0.0,-1.1855,0.0,-1.2562,-1.2332,0.0,0.0,0.0,-1.2366,-1.2793,-1.3098,-1.3444,-1.3878,0.0,0.0,-1.4774,-1.4936,-1.4984,-1.4875,-1.4835,-1.4916,-1.5194,-1.5391,-1.5486,-1.5499,-1.5486,-1.5493,-1.554,-1.5628,-1.5839,-1.6218,-1.6347,-1.6442,-1.6686,-1.6754,-1.6822,-1.6924,-1.6971,-1.6971,-1.6971,-1.6931,-1.689,-1.6592,-1.6544,-1.6639,-1.6883,-1.6971,-1.7066,-3.2452,-3.2078,-3.1624,-3.0822,-3.0114,-3.0688,-2.9711,-2.7529,-2.6356,-2.4949,-2.3321,-2.1637,-2.1303,-2.2011,-2.1982,-2.1791,-2.1605,-2.19,-2.2834,-2.4211,-2.4329,-2.5094,-2.6351,-2.4828,-2.3273,-2.1704,-1.978,-1.8022,-1.653,-1.6227,-1.6089,-1.6032,-1.5658,-1.5231,-1.5009,-1.5252,-1.5756,-1.6503,-1.695,-1.7486,-1.8087,-1.7787,-1.732,-1.6808,-1.6063,-1.5426,-1.4812,-1.4326,-1.3865,-1.3532,-1.32,-1.2745,-1.2155,-1.1708,0.0,0.0,0.0,0.0,0.0,0.0,0.0,0.0,0.0,-1.0643,-1.0759,0.0,-1.1721,0.0,-1.2393,-1.2915,-1.3322,-1.3193,0.0,0.0,-1.3376,-1.3505,-1.3729,-1.4014,-1.4326,-1.4665,-1.4767,-1.4964,-1.5371,-1.5459,-1.5594,-1.5879,-1.5635,-1.5493,-1.5676,-1.5927,-1.6096,-1.6083,-1.6076,-1.6137,-1.6218,-1.6286,-1.6381,-1.6605,-1.6646,-1.6707,-1.6897,-1.6924,-1.6944,-1.6971,-1.6978,-1.6978,-1.6985,-1.6978,-1.6965,-1.689,-1.687,-1.6924,-1.7107,-1.7229,-1.7372,-3.308,-3.2933,-3.2933,-3.2057,-3.06,-3.164,-3.0222,-2.718,-2.7113,-2.5174,-2.2067,-2.2413,-2.3042,-2.3776,-2.4973,-2.5125,-2.4552,-2.5006,-2.5823,-2.6812,-2.6698,-2.7155,-2.7928,-2.5373,-2.3585,-2.2439,-1.9704,-1.782,-1.6698,-1.6519,-1.643,-1.643,-1.6332,-1.6137,-1.5853,-1.5943,-1.6186,-1.6576,-1.7088,-1.7616,-1.8152,-1.7896,-1.7398,-1.667,-1.6048,-1.5426,-1.4638,-1.434,-1.4034,-1.3651,-1.3498,-1.3139,-1.2617,-1.2162,-1.1748,0.0,0.0,0.0,0.0,0.0,0.0,0.0,0.0,0.0,0.0,0.0,-1.2481,-1.2827,-1.322,-1.3614,-1.3987,-1.4007,-1.4061,-1.4211,-1.4299,-1.4428,-1.4645,-1.4814,-1.5025,-1.533,-1.5425,-1.5588,-1.5893,-1.5995,-1.6117,-1.6374,-1.6252,-1.6137,-1.6157,-1.63,-1.6408,-1.6408,-1.6402,-1.6456,-1.6598,-1.6619,-1.6673,-1.6815,-1.6849,-1.6883,-1.6965,-1.6978,-1.6998,-1.706,-1.7073,-1.71,-1.7161,-1.7175,-1.7175,-1.7168,-1.7121,-1.7107,-1.7175,-1.7311,-1.7467,-3.3414,-3.3414,-3.3414,-3.2196,-3.0319,-3.1668,-2.9689,-2.5666,-2.7433,-2.5106,-2.005,-2.3088,-2.4747,-2.5468,-2.777,-2.808,-2.6856,-2.7851,-2.8325,-2.8273,-2.8,-2.787,-2.7771,-2.4126,-2.2373,-2.2189,-1.8652,-1.6871,-1.6863,-1.6787,-1.6722,-1.6714,-1.6714,-1.6706,-1.6682,-1.6706,-1.6706,-1.669,-1.7339,-1.7843,-1.8168,-1.8083,-1.7638,-1.6572,-1.6293,-1.5579,-1.4543,-1.4387,-1.417,-1.3885,-1.3749,-1.3485,-1.3037,-1.263,-1.2257,0.0,-1.1674,0.0,0.0,0.0,0.0,0.0,0.0,0.0,0.0,-1.2759,-1.3363,-1.3905,-1.4095,-1.4306,-1.4604,-1.4746,-1.4889,-1.5038,-1.5092,-1.5215,-1.5459,-1.5527,-1.5649,-1.5906,-1.6056,-1.6198,-1.6341,-1.6476,-1.6551,-1.6592,-1.6673,-1.668,-1.6605,-1.6585,-1.6592,-1.6578,-1.6578,-1.6646,-1.6754,-1.6775,-1.6829,-1.6971,-1.7005,-1.7019,-1.7046,-1.7046,-1.708,-1.7188,-1.7222,-1.7263,-1.7399,-1.7412,-1.7412,-1.7392,-1.7297,-1.7229,-1.7243,-1.7331,-1.7467,-3.3414,-3.3414,-3.3414,-3.2183,-3.0254,-3.0548,-2.8018,-2.3627,-2.4027,-2.4274,-2.4325,-2.4716,-2.6757,-2.9534,-2.6829,-2.6122,-2.7208,-2.5571,-2.4812,-2.4621,-2.4363,-2.424,-2.4063,-2.1896,-2.081,-2.0632,-1.8471,-1.7494,-1.7494,-1.7453,-1.7437,-1.7437,-1.7437,-1.7372,-1.725,0.0,0.0,0.0,-1.7648,-1.7965,-1.8168,-1.7803,-1.7234,-1.6629,-1.5978,0.0,-1.4692,-1.4441,-1.4217,-1.4041,-1.4,0.0,0.0,0.0,0.0,0.0,0.0,0.0,0.0,0.0,0.0,0.0,-1.3105,-1.3119,-1.284,-1.3559,-1.419,-1.4536,-1.4713,-1.4923,-1.5208,-1.5262,-1.5343,-1.5499,-1.5723,-1.5893,-1.5961,-1.6157,-1.6334,-1.6381,-1.6422,-1.6497,-1.6632,-1.6693,-1.6754,-1.6856,-1.6917,-1.6924,-1.689,-1.6876,-1.689,-1.6897,-1.687,-1.6897,-1.6931,-1.6937,-1.6985,-1.7114,-1.7154,-1.7195,-1.7297,-1.7324,-1.7331,-1.7378,-1.7378,-1.7385,-1.7426,-1.7419,-1.7439,-1.7419,-1.7399,-1.7378,-1.7378,-1.7399,-1.7467,-3.3414,0.0,-3.3414,-3.1567,0.0,-2.8619,-2.597,-2.1741,-2.2636,-2.3452,-2.4008,-2.4853,-2.7019,-2.9791,-2.7416,-2.6852,-2.7646,-2.5221,-2.4069,-2.3941,-2.3587,-2.3426,-2.3336,-2.1343,-2.0398,-2.0308,-1.8536,-1.764,-1.764,-1.764,-1.764,-1.764,-1.764,-1.7599,-1.7526,-1.777,-1.7819,-1.7648,-1.7827,-1.7997,-1.8168,-1.7709,-1.711,-1.6562,0.0,0.0,0.0,0.0,0.0,0.0,0.0,0.0,0.0,0.0,0.0,-1.3186,-1.3159,-1.3132,-1.3071,-1.3268,-1.3492,-1.3715,-1.4143,-1.4238,-1.3865,-1.4326,-1.4753,-1.5045,-1.5208,-1.5425,-1.571,-1.5805,-1.5913,-1.6062,-1.6205,-1.63,-1.6313,-1.6429,-1.6551,-1.6619,-1.6632,-1.6693,-1.6842,-1.6863,-1.6897,-1.6965,-1.6978,-1.6978,-1.6978,-1.6978,-1.6978,-1.6978,-1.6978,-1.7012,-1.7073,-1.7087,-1.7134,-1.7263,-1.7304,-1.7338,-1.7405,-1.7419,-1.7439,-1.7507,-1.7534,-1.7548,-1.7629,-1.7643,-1.7636,-1.7629,-1.7582,-1.7534,-1.7534,-1.7534,-1.7555,-3.3414,-3.3314,-3.3,-3.0546,-2.6875,-2.6465,-2.3875,-2.0209,0.0,0.0,0.0,-2.3823,-2.5755,-2.7972,-2.6984,-2.6774,-2.6895,-2.4512,-2.3375,-2.3323,-2.2882,-2.2708,-2.2607,-2.0943,-2.0025,-2.0025,-1.8465,-1.7737,-1.7737,-1.7737,-1.7737,-1.7737,-1.7762,-1.7794,-1.7851,-1.8127,-1.82,-1.807,-1.8062,-1.8127,-1.8265,-1.7804,-1.7179,-1.667,-1.6075,-1.544,-1.4862,-1.4835,-1.4746,-1.4604,-1.459,-1.4455,-1.417,-1.415,-1.4082,-1.3939,-1.3946,-1.3973,-1.3914,-1.4143,-1.4306,-1.4482,-1.4991,-1.5174,-1.4882,-1.5025,-1.5235,-1.5506,-1.5669,-1.5866,-1.613,-1.6266,-1.6395,-1.651,-1.6544,-1.6558,-1.6564,-1.6592,-1.6666,-1.6768,-1.6788,-1.6836,-1.6951,-1.6971,-1.6978,-1.6978,-1.6978,-1.6978,-1.6978,-1.6978,-1.6978,-1.6978,-1.7012,-1.7066,-1.7154,-1.7222,-1.729,-1.7433,-1.746,-1.7473,-1.7494,-1.75,-1.7548,-1.7663,-1.7684,-1.7731,-1.7833,-1.784,-1.786,-1.786,-1.7772,-1.7684,-1.7684,-1.769,-1.7677,-3.3414,-3.3213,-3.1378,-2.9229,-2.6772,-2.4834,-2.2476,-1.9918,-2.0033,-2.0919,-2.227,-2.0817,-2.227,-2.5755,-2.2144,-2.1457,-2.2808,-2.0746,-1.9686,-1.9446,-1.9387,-1.9361,-1.9353,-1.8986,-1.88,-1.8698,-1.8363,-1.8103,-1.8095,-1.8103,-1.8095,-1.8119,-1.8257,-1.8412,-1.8566,-1.8623,-1.8639,-1.8615,-1.8615,-1.8623,-1.8647,-1.816,-1.7674,-1.7076,-1.6452,-1.5906,-1.5316,-1.5187,-1.5052,-1.4916,-1.4909,-1.4767,-1.4475,-1.4462,-1.4387,-1.4258,-1.4346,-1.4475,-1.4604,-1.476,-1.4964,-1.5235,-1.5567,-1.5635,-1.5357,-1.5567,-1.5798,-1.5974,-1.6117,-1.6279,-1.6435,-1.6476,-1.6503,-1.6537,-1.6639,-1.6714,-1.672,-1.6829,-1.6904,-1.6931,-1.6944,-1.6944,-1.6971,-1.6978,-1.6978,-1.6978,-1.6978,-1.6978,-1.6992,-1.6978,-1.6978,-1.6998,-1.7087,-1.7161,-1.7229,-1.7311,-1.7439,-1.7589,-1.7616,-1.765,-1.7745,-1.7765,-1.7779,-1.7819,-1.7819,-1.7833,-1.786,-1.786,-1.786,-1.786,-1.7826,-1.7819,-1.7819,-1.7819,-1.7792,-3.3414,-3.3314,-3.2297,-3.0659,-2.8506,-2.6134,-2.3697,-2.143,-2.1224,-2.0984,-2.0727,-2.0915,-2.2075,-2.3531,-2.1879,-2.1441,-2.212,-1.9987,-1.8939,-1.8858,-1.8769,-1.8728,-1.872,-1.8639,-1.8598,-1.859,-1.8517,-1.8476,-1.8476,-1.8468,-1.8468,-1.8476,-1.8558,-1.8688,-1.885,-1.8866,-1.8915,-1.9004,-1.8826,-1.8728,-1.8728,-1.824,-1.7758,-1.718,-1.6618,-1.6007,-1.5533,-1.5466,-1.5398,-1.5337,-1.5337,-1.5228,-1.5018,-1.5079,-1.5059,-1.4923,-1.5038,-1.5153,-1.5221,-1.5364,-1.5547,-1.5757,-1.5974,-1.6083,-1.6022,-1.6062,-1.6164,-1.6307,-1.6388,-1.6483,-1.6625,-1.6646,-1.668,-1.6761,-1.6836,-1.687,-1.6883,-1.6931,-1.6978,-1.6978,-1.6978,-1.6978,-1.6978,-1.6978,-1.6978,-1.6978,-1.6978,-1.7005,-1.708,-1.7093,-1.71,-1.71,-1.7154,-1.727,-1.7405,-1.7494,-1.7602,-1.7738,-1.7765,-1.7792,-1.7853,-1.786,-1.786,-1.786,-1.786,-1.786,-1.786,-1.786,-1.786,-1.786,-1.786,-1.786,-1.786,-1.786,-1.7833,-3.3414,-3.3414,-3.2899,-3.1479,-2.9307,-2.7324,-2.498,-2.2846,-2.2737,-2.1443,-1.9718,-2.1022,-2.1692,-2.1692,-2.1692,-2.1683,-2.1477,-1.9885,-1.9045,-1.9029,-1.8907,-1.885,-1.8842,-1.8809,-1.8785,-1.8777,-1.8744,-1.8728,-1.8728,-1.8728,-1.8744,-1.8777,-1.8785,-1.8874,-1.9045,-1.9086,-1.9175,-1.9289,-1.9086,-1.8931,-1.885,-1.835,-1.7866,-1.7292,-1.6799,-1.6216,-1.5737,-1.5737,-1.5723,-1.5689,-1.5689,-1.5615,-1.5479,-1.5574,-1.5588,-1.5486,-1.5574,-1.5676,-1.5744,-1.5872,-1.6022,-1.6171,-1.6286,-1.6422,-1.6544,-1.6476,-1.6449,-1.6551,-1.6571,-1.6632,-1.6768,-1.6802,-1.6849,-1.6965,-1.6978,-1.6971,-1.6978,-1.6978,-1.6978,-1.6978,-1.6978,-1.6978,-1.6978,-1.6978,-1.6978,-1.6978,-1.7005,-1.708,-1.7168,-1.7216,-1.7249,-1.729,-1.7297,-1.7385,-1.7616,-1.7677,-1.7738,-1.7853,-1.7853,-1.7853,-1.786,-1.786,-1.786,-1.786,-1.786,-1.786,-1.786,-1.786,-1.786,-1.786,-1.786,-1.786,-1.786,-1.786,-1.786,-3.3414,-3.31,-3.1479,-2.9229,-2.7341,-2.6819,-2.5263,-2.3155,-2.3055,-2.1749,-1.9575,-1.9519,-1.9651,-1.9553,-1.9651,-1.9651,-1.9651,-1.9339,-1.9232,-1.9232,-1.9216,-1.9207,-1.9175,-1.9037,-1.8956,-1.8939,-1.8818,-1.8761,-1.8761,-1.8744,-1.8809,-1.8939,-1.8956,-1.9053,-1.9232,-1.9386,-1.9467,-1.9492,-1.9622,-1.9532,-1.9232,-1.8706,-1.8213,-1.762,-1.7125,-1.663,-1.6022,-1.6042,-1.5974,-1.5852,-1.5839,-1.5771,-1.5642,-1.5635,-1.5635,-1.5622,-1.5642,-1.575,-1.6015,-1.6185,-1.632,-1.6463,-1.649,-1.6564,-1.6707,-1.6714,-1.661,-1.6727,-1.6727,-1.6795,-1.6931,-1.6951,-1.6951,-1.6971,-1.6978,-1.6978,-1.6978,-1.6978,-1.6978,-1.6978,-1.6978,-1.6978,-1.6978,-1.6978,-1.6985,-1.7005,-1.7087,-1.7175,-1.7243,-1.7331,-1.7446,-1.7555,-1.7602,-1.7609,-1.767,-1.7765,-1.7826,-1.786,-1.786,-1.786,-1.786,-1.786,-1.786,-1.786,-1.786,-1.786,-1.786,-1.786,-1.786,-1.786,-1.786,-1.786,-1.786,-1.786,-1.786,-3.3414,-3.3314,-3.2498,-3.0663,-2.8573,-2.8246,-2.6099,-2.2831,-2.2722,-2.1452,-1.9592,-1.9337,-1.9313,-1.9402,-1.9305,-1.9264,-1.9264,-1.9264,-1.9264,-1.9264,-1.9264,-1.9264,-1.9248,-1.9191,-1.9142,-1.9142,-1.9069,-1.9037,-1.9045,-1.9045,-1.9077,-1.9134,-1.9142,-1.9232,-1.9402,-1.9475,-1.9565,-1.9678,-1.9752,-1.9719,-1.9597,-1.907,-1.8513,-1.7821,-1.7306,-1.6764,-1.6189,-1.6083,-1.6056,-1.5995,-1.5988,-1.5961,-1.5906,-1.59,-1.59,-1.5906,-1.5988,-1.6123,-1.6327,-1.6402,-1.6497,-1.6646,-1.6659,-1.672,-1.6863,-1.6883,-1.6883,-1.689,-1.6883,-1.6917,-1.6971,-1.6978,-1.6978,-1.6978,-1.6978,-1.6978,-1.6978,-1.6978,-1.6978,-1.6978,-1.6978,-1.6978,-1.6978,-1.6978,-1.7019,-1.708,-1.7168,-1.7256,-1.7419,-1.7521,-1.7609,-1.7738,-1.7772,-1.7772,-1.7779,-1.7819,-1.786,-1.786,-1.786,-1.786,-1.786,-1.786,-1.786,-1.786,-1.786,-1.786,-1.786,-1.786,-1.786,-1.786,-1.786,-1.786,-1.786,-1.786,-1.786,-3.3414,-3.33,-3.2799,-3.1401,-2.9453,-2.8183,-2.574,-2.2678,-2.1919,-2.0846,-1.9665,-1.9459,-1.9467,-1.9549,-1.9362,-1.9264,-1.9264,-1.9264,-1.9264,-1.9264,-1.9264,-1.9289,-1.9321,-1.9329,-1.9354,-1.9402,-1.941,-1.9402,-1.941,-1.9402,-1.9402,-1.9402,-1.9402,-1.9467,-1.9581,-1.963,-1.9727,-1.9857,-1.9906,-1.9938,-1.9836,-1.9222,-1.8602,-1.8,-1.7271,-1.6717,-1.6212,-1.6205,-1.6205,-1.6205,-1.6205,-1.6205,-1.6205,-1.6198,-1.6205,-1.6212,-1.6307,-1.6435,-1.6571,-1.6585,-1.6653,-1.6788,-1.6815,-1.6863,-1.6951,-1.6978,-1.6978,-1.6971,-1.6978,-1.6978,-1.6978,-1.6978,-1.6978,-1.6978,-1.6978,-1.6978,-1.6978,-1.6978,-1.6978,-1.6978,-1.6978,-1.6978,-1.6985,-1.7019,-1.708,-1.7161,-1.727,-1.7372,-1.7595,-1.7677,-1.7745,-1.7846,-1.786,-1.786,-1.786,-1.786,-1.786,-1.786,-1.786,-1.786,-1.786,-1.786,-1.786,-1.786,-1.786,-1.786,-1.786,-1.786,-1.786,-1.786,-1.786,-1.786,-1.786,-1.786,-1.786,-3.3414,-3.31,-3.1176,-3.0073,-2.9495,-2.5371,-2.326,-2.2454,-2.0762,-1.9861,-1.9776,-1.9743,-1.976,-1.9752,-1.9427,-1.9264,-1.9264,-1.9264,-1.9264,-1.9264,-1.9272,-1.9345,-1.95,-1.9508,-1.9589,-1.9711,-1.9719,-1.9727,-1.9743,-1.9752,-1.9768,-1.976,-1.9735,-1.976,-1.9792,-1.9922,-2.0028,-2.006,-2.019,-2.0279,-2.0071,-1.9126,-1.8447,-1.8092,-1.713,-1.6503,-1.649,-1.6497,-1.649,-1.6497,-1.6483,-1.649,-1.649,-1.649,-1.6483,-1.6497,-1.6503,-1.6585,-1.6714,-1.6741,-1.6802,-1.6931,-1.6951,-1.6971,-1.6971,-1.6978,-1.6978,-1.6978,-1.6978,-1.6978,-1.6978,-1.6978,-1.6978,-1.6978,-1.6978,-1.6978,-1.6978,-1.6978,-1.6978,-1.6978,-1.6978,-1.6978,-1.6985,-1.71,-1.7168,-1.7249,-1.7439,-1.7629,-1.7663,-1.7772,-1.784,-1.7853,-1.786,-1.786,-1.786,-1.786,-1.786,-1.786,-1.786,-1.786,-1.786,-1.786,-1.786,-1.786,-1.786,-1.786,-1.786,-1.786,-1.786,-1.786,-1.786,-1.786,-1.786,-1.786,-1.786,-3.2598,-3.1176,-2.9026,-2.7166,-2.5412,-2.3725,-2.2177,-2.0608,-1.9983,-1.9752,-1.9898,-1.9719,-1.9735,-1.9938,-1.9581,-1.9362,-1.9264,-1.9264,-1.9264,-1.9272,-1.937,-1.9451,-1.9516,-1.963,-1.9719,-1.9784,-1.9792,-1.9792,-1.9792,-1.9792,-1.9792,-1.9792,-1.9792,-1.9841,-1.9946,-2.0028,-2.0109,-2.0223,-2.0296,-2.0111,-1.9798,-1.8955,-1.8373,-1.7958,-1.7134,-1.6619,-1.6524,-1.6517,-1.6517,-1.6517,-1.6524,-1.6517,-1.6517,-1.6517,-1.6564,-1.6653,-1.6666,-1.6734,-1.687,-1.6897,-1.6917,-1.6965,-1.6978,-1.6978,-1.6978,-1.6978,-1.6978,-1.6978,-1.6978,-1.6978,-1.6978,-1.6978,-1.6978,-1.6978,-1.6978,-1.6978,-1.6978,-1.6978,-1.6978,-1.6978,-1.6978,-1.6978,-1.7012,-1.7107,-1.7229,-1.7338,-1.7521,-1.767,-1.7765,-1.7833,-1.786,-1.786,-1.786,-1.786,-1.786,-1.786,-1.786,-1.786,-1.786,-1.786,-1.786,-1.786,-1.786,-1.786,-1.786,-1.786,-1.786,-1.786,-1.786,-1.786,-1.786,-1.786,-1.786,-1.786,-1.786,-3.0861,-2.9837,-2.6992,-2.4718,-2.3102,-2.2223,-2.102,-1.9524,-1.9581,-1.9776,-1.9979,-1.98,-1.9833,-1.9971,-1.9735,-1.9549,-1.9435,-1.9435,-1.9427,-1.9443,-1.9549,-1.9638,-1.9703,-1.9825,-1.9906,-1.9955,-1.9963,-1.9963,-1.9963,-1.9963,-1.9963,-1.9963,-1.9963,-2.002,-2.0117,-2.0141,-2.0214,-2.0304,-2.032,-2.0007,-1.9485,-1.8955,-1.8327,-1.7796,-1.719,-1.6775,-1.6673,-1.6673,-1.6673,-1.6666,-1.6666,-1.6673,-1.6673,-1.6673,-1.6714,-1.6809,-1.6829,-1.6863,-1.6958,-1.6978,-1.6978,-1.6978,-1.6978,-1.6978,-1.6978,-1.6978,-1.6978,-1.6978,-1.6978,-1.6978,-1.6978,-1.6978,-1.6978,-1.6978,-1.6978,-1.6978,-1.6978,-1.6978,-1.6978,-1.6978,-1.6978,-1.6998,-1.706,-1.7182,-1.7324,-1.7473,-1.7623,-1.7758,-1.784,-1.786,-1.786,-1.786,-1.786,-1.786,-1.786,-1.786,-1.786,-1.786,-1.786,-1.786,-1.786,-1.786,-1.786,-1.786,-1.786,-1.786,-1.786,-1.786,-1.786,-1.786,-1.786,-1.786,-1.786,-1.786,-1.786,-2.819,-2.9069,-2.5196,-2.3172,-2.2452,-2.0719,-1.9633,-1.9565,-1.9719,-1.9906,-2.0085,-2.0044,-2.0028,-2.0028,-1.9873,-1.9784,-1.9792,-1.9792,-1.9768,-1.9743,-1.9776,-1.9873,-2.0011,-2.0044,-2.0133,-2.0263,-2.0296,-2.0296,-2.0271,-2.0263,-2.0271,-2.0296,-2.0271,-2.0263,-2.0312,-2.0296,-2.0312,-2.032,-2.0216,-2.0007,-1.9485,-1.8858,-1.8222,-1.7706,-1.7279,-1.6958,-1.6958,-1.6958,-1.6937,-1.6951,-1.6951,-1.6971,-1.6937,-1.6937,-1.6965,-1.6958,-1.6971,-1.6978,-1.6978,-1.6978,-1.6978,-1.6978,-1.6978,-1.6978,-1.6978,-1.6978,-1.6978,-1.6978,-1.6978,-1.6978,-1.6978,-1.6978,-1.6978,-1.6978,-1.6978,-1.6978,-1.6978,-1.6978,-1.6978,-1.6978,-1.6992,-1.7046,-1.7175,-1.7324,-1.7473,-1.7602,-1.7745,-1.784,-1.786,-1.786,-1.786,-1.786,-1.786,-1.786,-1.786,-1.786,-1.786,-1.786,-1.786,-1.786,-1.786,-1.786,-1.786,-1.786,-1.786,-1.786,-1.786,-1.786,-1.786,-1.786,-1.786,-1.786,-1.786,-1.786,-1.786,-2.4809,-2.5084,-2.2156,-2.0764,-2.061,-1.9965,-1.9703,-1.9727,-1.9898,-2.0076,-2.0198,-2.0117,-2.0125,-2.0182,-2.006,-2.0044,-2.015,-2.015,-2.0028,-1.9849,-1.9914,-1.9995,-2.0076,-2.0182,-2.0263,-2.0312,-2.032,-2.032,-2.032,-2.032,-2.032,-2.032,-2.032,-2.032,-2.032,-2.032,-2.032,-2.0216,-1.9903,-1.9485,-1.8858,-1.8327,-1.7811,-1.7293,-1.7083,-1.6978,-1.6978,-1.6978,-1.6978,-1.6978,-1.6978,-1.6978,-1.6978,-1.6978,-1.6978,-1.6978,-1.6978,-1.6978,-1.6978,-1.6971,-1.6965,-1.6978,-1.6971,-1.6978,-1.6978,-1.6978,-1.6978,-1.6978,-1.6978,-1.6978,-1.6978,-1.6978,-1.6978,-1.6978,-1.6978,-1.6978,-1.6978,-1.6978,-1.6978,-1.6992,-1.7066,-1.7141,-1.7222,-1.7392,-1.7582,-1.765,-1.7779,-1.786,-1.786,-1.786,-1.786,-1.786,-1.786,-1.786,-1.786,-1.786,-1.786,-1.786,-1.786,-1.786,-1.786,-1.786,-1.786,-1.786,-1.786,-1.786,-1.786,-1.786,-1.786,-1.786,-1.786,-1.786,-1.786,-1.786,-1.786,-2.269,-2.3082,-2.0867,-1.9825,-1.9719,-1.9784,-1.9833,-1.9898,-2.0011,-2.0166,-2.0271,-2.0206,-2.0214,-2.0279,-2.0206,-2.0223,-2.032,-2.032,-2.0198,-2.002,-2.0085,-2.015,-2.0174,-2.0263,-2.032,-2.032,-2.032,-2.032,-2.032,-2.032,-2.032,-2.032,-2.032,-2.032,-2.032,-2.032,-2.0216,-2.0007,-1.9702,-1.9067,-1.8432,-1.802,-1.7496,-1.7083,-1.6978,-1.6978,-1.6978,-1.6978,-1.6978,-1.6978,-1.6978,-1.6978,-1.6978,-1.6978,-1.6978,-1.6971,-1.6931,-1.689,-1.689,-1.6829,-1.6809,-1.6815,-1.6863,-1.689,-1.6904,-1.6931,-1.6978,-1.6978,-1.6978,-1.6978,-1.6978,-1.6978,-1.6978,-1.6978,-1.6978,-1.6978,-1.6978,-1.6978,-1.6978,-1.7005,-1.71,-1.7202,-1.7317,-1.7467,-1.767,-1.7724,-1.7806,-1.786,-1.786,-1.786,-1.786,-1.786,-1.786,-1.786,-1.786,-1.786,-1.786,-1.786,-1.786,-1.786,-1.786,-1.786,-1.786,-1.786,-1.786,-1.786,-1.786,-1.786,-1.786,-1.786,-1.786,-1.786,-1.786,-1.786,-1.786,-2.1535,-2.3053,-2.102,-2.0003,-1.9987,-1.9873,-1.9906,-2.0044,-2.0085,-2.0182,-2.0296,-2.0304,-2.0312,-2.032,-2.0296,-2.0304,-2.032,-2.032,-2.0312,-2.0279,-2.0296,-2.0296,-2.0296,-2.0312,-2.032,-2.032,-2.032,-2.032,-2.032,-2.032,-2.032,-2.032,-2.032,-2.032,-2.032,-2.032,-2.0007,-1.9597,-1.9493,-1.8858,-1.7915,-1.7706,-1.7503,-1.6978,-1.6978,-1.6978,-1.6978,-1.6978,-1.6978,-1.6978,-1.6978,-1.6978,-1.6978,-1.6978,-1.6978,-1.6951,-1.6829,-1.6761,-1.6714,-1.6639,-1.6564,-1.6578,-1.67,-1.6644,-1.6788,-1.6897,-1.6978,-1.6978,-1.6978,-1.6978,-1.6978,-1.6978,-1.6978,-1.6978,-1.6978,-1.6978,-1.6978,-1.6978,-1.6978,-1.7005,-1.7107,-1.7256,-1.7392,-1.7555,-1.7711,-1.7806,-1.7853,-1.786,-1.786,-1.786,-1.786,-1.786,-1.786,-1.786,-1.786,-1.786,-1.786,-1.786,-1.786,-1.786,-1.786,-1.786,-1.786,-1.786,-1.786,-1.786,-1.786,-1.786,-1.786,-1.786,-1.786,-1.786,-1.786,-1.786,-1.786,-2.0435,-2.0934,-2.0135,-1.9857,-1.9882,-1.9946,-2.002,-2.0085,-2.0206,-2.0271,-2.032,-2.032,-2.032,-2.032,-2.032,-2.032,-2.032,-2.032,-2.032,-2.032,-2.032,-2.032,-2.032,-2.032,-2.032,-2.032,-2.032,-2.032,-2.032,-2.032,-2.032,-2.032,-2.032,-2.032,-2.032,-2.032,-2.0007,-1.9493,-1.9067,-1.8544,-1.7915,-1.7398,-1.7188,-1.7083,-1.6978,-1.6978,-1.6978,-1.6978,-1.6978,-1.6978,-1.6978,-1.6978,-1.6978,-1.6978,-1.6944,-1.6842,-1.6781,-1.67,-1.6605,-1.6551,-1.6524,-1.653,-1.6666,-1.6644,-1.6754,-1.689,-1.6965,-1.6978,-1.6978,-1.6978,-1.6978,-1.6978,-1.6978,-1.6978,-1.6978,-1.6978,-1.6978,-1.6978,-1.6978,-1.7005,-1.7202,-1.7351,-1.746,-1.7636,-1.7806,-1.7846,-1.786,-1.786,-1.786,-1.786,-1.786,-1.786,-1.786,-1.786,-1.786,-1.786,-1.786,-1.786,-1.786,-1.786,-1.786,-1.786,-1.786,-1.786,-1.786,-1.786,-1.786,-1.786,-1.786,-1.786,-1.786,-1.786,-1.786,-1.786,-1.786,-2.0174,-2.0166,-2.006,-2.0011,-2.0028,-2.0125,-2.0174,-2.019,-2.0271,-2.032,-2.032,-2.032,-2.032,-2.032,-2.032,-2.032,-2.032,-2.032,-2.032,-2.032,-2.032,-2.032,-2.032,-2.032,-2.032,-2.032,-2.032,-2.032,-2.032,-2.032,-2.032,-2.032,-2.032,-2.032,-2.032,-2.0007,-1.9694,-1.9172,-1.8544,-1.802,-1.7503,-1.7188,-1.7083,-1.6978,-1.6978,-1.6978,-1.6978,-1.6978,-1.6978,-1.6978,-1.6978,-1.6978,-1.6978,-1.6978,-1.6937,-1.6842,-1.6788,-1.6603,-1.6632,-1.6564,-1.6524,-1.6544,-1.6666,-1.6734,-1.6775,-1.689,-1.6978,-1.6978,-1.6978,-1.6978,-1.6978,-1.6978,-1.6978,-1.6978,-1.6978,-1.6978,-1.6978,-1.6978,-1.7012,-1.71,-1.7263,-1.7453,-1.75,-1.7724,-1.7826,-1.786,-1.786,-1.786,-1.786,-1.786,-1.786,-1.786,-1.786,-1.786,-1.786,-1.786,-1.786,-1.786,-1.786,-1.786,-1.786,-1.786,-1.786,-1.786,-1.786,-1.786,-1.786,-1.786,-1.786,-1.786,-1.786,-1.786,-1.786,-1.786,-1.786,-2.032,-2.032,-2.032,-2.032,-2.0304,-2.032,-2.0304,-2.0312,-2.032,-2.032,-2.032,-2.032,-2.032,-2.032,-2.032,-2.032,-2.032,-2.032,-2.032,-2.032,-2.032,-2.032,-2.032,-2.032,-2.032,-2.032,-2.032,-2.032,-2.032,-2.032,-2.032,-2.032,-2.032,-2.0216,-2.0111,-1.9702,-1.9172,-1.8544,-1.8125,-1.7601,-1.7188,-1.6978,-1.6978,-1.6978,-1.6978,-1.6978,-1.6978,-1.6978,-1.6978,-1.6978,-1.6978,-1.6978,-1.6978,-1.6978,-1.6958,-1.6917,-1.6809,-1.6734,-1.67,-1.6571,-1.6517,-1.6544,-1.6659,-1.6644,-1.6781,-1.689,-1.6978,-1.6978,-1.6978,-1.6978,-1.6978,-1.6978,-1.6978,-1.6978,-1.6978,-1.6978,-1.6978,-1.6992,-1.7053,-1.7182,-1.7331,-1.75,-1.7629,-1.7758,-1.786,-1.786,-1.786,-1.786,-1.786,-1.786,-1.786,-1.786,-1.786,-1.786,-1.786,-1.786,-1.786,-1.786,-1.786,-1.786,-1.786,-1.786,-1.786,-1.786,-1.786,-1.786,-1.786,-1.786,-1.786,-1.786,-1.786,-1.786,-1.786,-1.786,-1.786,-2.032,-2.032,-2.032,-2.032,-2.032,-2.032,-2.032,-2.032,-2.032,-2.032,-2.032,-2.032,-2.032,-2.032,-2.032,-2.032,-2.032,-2.032,-2.032,-2.032,-2.032,-2.032,-2.032,-2.032,-2.032,-2.032,-2.032,-2.032,-2.032,-2.032,-2.032,-2.032,-2.0216,-2.0111,-1.9702,-1.9493,-1.897,-1.8125,-1.7811,-1.7503,-1.7083,-1.6978,-1.6978,-1.6978,-1.6978,-1.6978,-1.6978,-1.6978,-1.6978,-1.6978,-1.6978,-1.6978,-1.6978,-1.6978,-1.6937,-1.6849,-1.6795,-1.6707,-1.6598,-1.6571,-1.653,-1.6571,-1.668,-1.6644,-1.6761,-1.6897,-1.6971,-1.6978,-1.6978,-1.6978,-1.6978,-1.6978,-1.6978,-1.6978,-1.6978,-1.6985,-1.6998,-1.708,-1.7148,-1.7236,-1.7426,-1.7616,-1.7656,-1.7779,-1.7846,-1.7853,-1.786,-1.786,-1.786,-1.786,-1.786,-1.786,-1.786,-1.786,-1.786,-1.786,-1.786,-1.786,-1.786,-1.786,-1.786,-1.786,-1.786,-1.786,-1.786,-1.786,-1.786,-1.786,-1.786,-1.786,-1.786,-1.786,-1.786,-1.786,-1.786,-2.032,-2.032,-2.032,-2.032,-2.032,-2.032,-2.032,-2.032,-2.032,-2.032,-2.032,-2.032,-2.032,-2.032,-2.032,-2.032,-2.032,-2.032,-2.032,-2.032,-2.032,-2.032,-2.032,-2.032,-2.032,-2.032,-2.032,-2.032,-2.032,-2.032,-2.032,-2.0216,-2.0111,-1.9798,-1.9388,-1.8962,-1.8447,-1.7915,-1.7496,-1.7293,-1.7083,-1.6978,-1.6978,-1.6978,-1.6978,-1.6978,-1.6978,-1.6978,-1.6978,-1.6978,-1.6978,-1.6978,-1.6978,-1.6978,-1.6931,-1.6876,-1.6856,-1.6829,-1.6754,-1.6734,-1.6748,-1.6734,-1.6815,-1.6842,-1.687,-1.6944,-1.6971,-1.6978,-1.6978,-1.6978,-1.6978,-1.6978,-1.6978,-1.6978,-1.6978,-1.7005,-1.7073,-1.7148,-1.7229,-1.7311,-1.75,-1.765,-1.7751,-1.7819,-1.784,-1.786,-1.786,-1.786,-1.786,-1.786,-1.786,-1.786,-1.786,-1.786,-1.786,-1.786,-1.786,-1.786,-1.786,-1.786,-1.786,-1.786,-1.786,-1.786,-1.786,-1.786,-1.786,-1.786,-1.786,-1.786,-1.786,-1.786,-1.786,-1.786,-1.786,-2.032,-2.032,-2.032,-2.032,-2.032,-2.032,-2.032,-2.032,-2.032,-2.032,-2.032,-2.032,-2.032,-2.032,-2.032,-2.032,-2.032,-2.032,-2.032,-2.032,-2.032,-2.032,-2.032,-2.032,-2.032,-2.032,-2.032,-2.032,-2.032,-2.032,-2.032,-2.0216,-1.9806,-1.9485,-1.9172,-1.8439,-1.7811,-1.7601,-1.7293,-1.7083,-1.6978,-1.6978,-1.6978,-1.6978,-1.6978,-1.6978,-1.6978,-1.6978,-1.6978,-1.6978,-1.6978,-1.6978,-1.6978,-1.6978,-1.6978,-1.6971,-1.6965,-1.6944,-1.6931,-1.6944,-1.6951,-1.6978,-1.6971,-1.6971,-1.6971,-1.6971,-1.6978,-1.6978,-1.6978,-1.6978,-1.6978,-1.6978,-1.6978,-1.6985,-1.6992,-1.7066,-1.7161,-1.7222,-1.7351,-1.7446,-1.7602,-1.7745,-1.7806,-1.7853,-1.786,-1.786,-1.786,-1.786,-1.786,-1.786,-1.786,-1.786,-1.786,-1.786,-1.786,-1.786,-1.786,-1.786,-1.786,-1.786,-1.786,-1.786,-1.786,-1.786,-1.786,-1.786,-1.786,-1.786,-1.786,-1.786,-1.786,-1.786,-1.786,-1.786,-1.786,-2.032,-2.032,-2.032,-2.032,-2.032,-2.032,-2.032,-2.032,-2.032,-2.032,-2.032,-2.032,-2.032,-2.032,-2.032,-2.032,-2.032,-2.032,-2.032,-2.032,-2.032,-2.032,-2.032,-2.032,-2.032,-2.032,-2.032,-2.032,-2.032,-2.032,-2.0216,-2.0111,-1.9694,-1.9276,-1.8753,-1.8125,-1.7496,-1.7293,-1.7083,-1.6978,-1.6978,-1.6978,-1.6978,-1.6978,-1.6978,-1.6978,-1.6978,-1.6978,-1.6978,-1.6978,-1.6978,-1.6978,-1.6978,-1.6978,-1.6978,-1.6978,-1.6978,-1.6978,-1.6978,-1.6978,-1.6978,-1.6978,-1.6978,-1.6978,-1.6978,-1.6978,-1.6978,-1.6978,-1.6978,-1.6978,-1.6978,-1.6992,-1.6985,-1.7005,-1.7093,-1.7175,-1.7249,-1.7392,-1.7541,-1.7609,-1.7731,-1.7819,-1.7846,-1.786,-1.786,-1.786,-1.786,-1.786,-1.786,-1.786,-1.786,-1.786,-1.786,-1.786,-1.786,-1.786,-1.786,-1.786,-1.786,-1.786,-1.786,-1.786,-1.786,-1.786,-1.786,-1.786,-1.786,-1.786,-1.786,-1.786,-1.786,-1.786,-1.786,-1.786,-1.786,-2.032,-2.032,-2.032,-2.032,-2.032,-2.032,-2.032,-2.032,-2.032,-2.032,-2.032,-2.032,-2.032,-2.032,-2.032,-2.032,-2.032,-2.032,-2.032,-2.032,-2.032,-2.032,-2.032,-2.032,-2.032,-2.032,-2.032,-2.032,-2.032,-2.032,-2.0111,-1.9798,-1.9276,-1.8746,-1.8222,-1.7601,-1.7293,-1.6978,-1.6978,-1.6978,-1.6978,-1.6978,-1.6978,-1.6978,-1.6978,-1.6978,-1.6978,-1.6978,-1.6978,-1.6978,-1.6978,-1.6978,-1.6978,-1.6978,-1.6978,-1.6978,-1.6978,-1.6978,-1.6978,-1.6978,-1.6978,-1.6978,-1.6978,-1.6978,-1.6978,-1.6978,-1.6978,-1.6978,-1.6978,-1.6978,-1.6978,-1.7046,-1.7087,-1.7114,-1.7222,-1.7331,-1.7426,-1.7561,-1.7656,-1.7731,-1.7799,-1.7846,-1.7853,-1.786,-1.786,-1.786,-1.786,-1.786,-1.786,-1.786,-1.786,-1.786,-1.786,-1.786,-1.786,-1.786,-1.786,-1.786,-1.786,-1.786,-1.786,-1.786,-1.786,-1.786,-1.786,-1.786,-1.786,-1.786,-1.786,-1.786,-1.786,-1.786,-1.786,-1.786,-1.786,-2.032,-2.032,-2.032,-2.032,-2.032,-2.032,-2.032,-2.032,-2.032,-2.032,-2.032,-2.032,-2.032,-2.032,-2.032,-2.032,-2.032,-2.032,-2.032,-2.032,-2.032,-2.032,-2.032,-2.032,-2.032,-2.032,-2.032,-2.032,-2.0216,-2.0111,-1.9903,-1.9493,-1.885,-1.8252,-1.786,-1.7419,-1.7104,-1.7012,-1.6985,-1.6978,-1.6978,-1.6978,-1.6978,-1.6978,-1.6978,-1.6978,-1.6978,-1.6978,-1.6978,-1.6978,-1.6978,-1.6978,-1.6978,-1.6978,-1.6978,-1.6978,-1.6978,-1.6978,-1.6978,-1.6978,-1.6978,-1.6978,-1.6978,-1.6978,-1.6978,-1.6978,-1.6978,-1.6985,-1.7026,-1.7032,-1.706,-1.7154,-1.7222,-1.727,-1.7372,-1.75,-1.7582,-1.7677,-1.7745,-1.7806,-1.7853,-1.786,-1.786,-1.786,-1.786,-1.786,-1.786,-1.786,-1.786,-1.786,-1.786,-1.786,-1.786,-1.786,-1.786,-1.786,-1.786,-1.786,-1.786,-1.786,-1.786,-1.786,-1.7867,-1.788,-1.786,-1.786,-1.786,-1.7867,-1.786,-1.786,-1.786,-1.786,-1.7867,-1.7867,-1.786,-2.032,-2.032,-2.032,-2.032,-2.032,-2.032,-2.032,-2.032,-2.032,-2.032,-2.032,-2.032,-2.032,-2.032,-2.032,-2.032,-2.032,-2.032,-2.032,-2.032,-2.032,-2.032,-2.032,-2.032,-2.032,-2.032,-2.032,-2.032,-2.0136,-1.9822,-1.9605,-1.9299,-1.8498,-1.7882,-1.7791,-1.7305,-1.7053,-1.7127,-1.7053,-1.6992,-1.6992,-1.6992,-1.6992,-1.6978,-1.6978,-1.6978,-1.6978,-1.6978,-1.6978,-1.6978,-1.6978,-1.6978,-1.6978,-1.6978,-1.6978,-1.6978,-1.6978,-1.6978,-1.6978,-1.6978,-1.6978,-1.6978,-1.6978,-1.6978,-1.6998,-1.7005,-1.7005,-1.6985,-1.7093,-1.7161,-1.7188,-1.7304,-1.7372,-1.7446,-1.7528,-1.7602,-1.7677,-1.7745,-1.7812,-1.7826,-1.786,-1.786,-1.786,-1.786,-1.786,-1.786,-1.786,-1.786,-1.786,-1.786,-1.786,-1.786,-1.786,-1.786,-1.786,-1.786,-1.7867,-1.7867,-1.7867,-1.7874,-1.7914,-1.7928,-1.7907,-1.7914,-1.7907,-1.7928,-1.7962,-1.7948,-1.7894,-1.7901,-1.7955,-1.7921,-1.7867,-1.7874,-1.7928,-2.032,-2.032,-2.032,-2.032,-2.032,-2.032,-2.032,-2.032,-2.032,-2.032,-2.032,-2.032,-2.032,-2.032,-2.032,-2.032,-2.032,-2.032,-2.032,-2.032,-2.032,-2.032,-2.032,-2.032,-2.032,-2.032,-2.0232,-2.0087,-1.9901,-1.973,-1.9528,-1.9009,-1.8448,-1.7896,-1.7746,-1.737,-1.727,-1.729,-1.7256,-1.7188,-1.7121,-1.7093,-1.706,-1.6985,-1.6985,-1.6978,-1.6978,-1.6978,-1.6978,-1.6978,-1.6978,-1.6978,-1.6978,-1.6978,-1.6978,-1.6978,-1.6978,-1.6978,-1.6978,-1.6985,-1.6985,-1.6985,-1.6992,-1.7012,-1.7066,-1.7107,-1.7148,-1.7236,-1.7283,-1.7317,-1.7344,-1.746,-1.7521,-1.7589,-1.767,-1.7717,-1.7758,-1.7806,-1.7853,-1.786,-1.786,-1.786,-1.786,-1.786,-1.786,-1.786,-1.786,-1.786,-1.786,-1.786,-1.786,-1.786,-1.786,-1.786,-1.786,-1.786,-1.7874,-1.788,-1.7887,-1.7914,-1.7989,-1.8009,-1.8016,-1.807,-1.8138,-1.8138,-1.8104,-1.7827,-1.7563,-1.7813,-1.8063,-1.7603,-1.7261,-1.8104,-1.8152,-2.032,-2.032,-2.032,-2.032,-2.032,-2.032,-2.032,-2.032,-2.032,-2.032,-2.032,-2.032,-2.032,-2.032,-2.032,-2.032,-2.032,-2.032,-2.032,-2.032,-2.032,-2.032,-2.032,-2.032,-2.032,-2.0328,-2.0079,-1.9933,-1.9711,-1.9493,-1.9113,-1.8749,-1.8181,-1.7857,-1.7561,-1.7419,-1.7392,-1.7392,-1.7392,-1.7338,-1.7263,-1.7202,-1.7134,-1.706,-1.7005,-1.6978,-1.6978,-1.6978,-1.6978,-1.6978,-1.6978,-1.6978,-1.6978,-1.6978,-1.7012,-1.7032,-1.7053,-1.708,-1.7093,-1.7093,-1.7046,-1.7046,-1.7087,-1.7168,-1.7229,-1.7256,-1.7277,-1.7378,-1.7453,-1.7467,-1.7507,-1.7616,-1.7677,-1.7731,-1.7785,-1.7833,-1.786,-1.786,-1.786,-1.786,-1.786,-1.786,-1.786,-1.786,-1.786,-1.786,-1.786,-1.786,-1.786,-1.786,-1.786,-1.786,-1.7874,-1.7874,-1.7874,-1.788,-1.7887,-1.7928,-1.7941,-1.7996,-1.8111,-1.8158,-1.8172,-1.8253,-1.8221,-1.7488,-1.684,-1.704,-1.7127,-1.6577,-1.6145,-1.6426,-1.6683,-1.7641,-1.8328,-2.032,-2.032,-2.032,-2.032,-2.032,-2.032,-2.032,-2.032,-2.032,-2.032,-2.032,-2.032,-2.032,-2.032,-2.032,-2.032,-2.032,-2.032,-2.032,-2.032,-2.032,-2.032,-2.032,-2.032,-2.0328,-2.0248,-2.0022,-1.9801,-1.9486,-1.8962,-1.8654,-1.8295,-1.7919,-1.7643,-1.7561,-1.7548,-1.7494,-1.7487,-1.7487,-1.746,-1.7378,-1.7297,-1.7195,-1.7148,-1.7053,-1.6978,-1.6978,-1.6978,-1.6978,-1.6978,-1.6978,-1.7005,-1.7012,-1.7012,-1.706,-1.7154,-1.7182,-1.7222,-1.727,-1.7236,-1.7188,-1.7216,-1.7277,-1.7351,-1.7399,-1.7405,-1.7419,-1.7467,-1.7575,-1.7623,-1.7677,-1.7745,-1.7799,-1.7819,-1.7833,-1.7846,-1.786,-1.786,-1.786,-1.786,-1.786,-1.786,-1.786,-1.786,-1.786,-1.786,-1.786,-1.786,-1.786,-1.786,-1.786,-1.7867,-1.788,-1.7887,-1.7901,-1.7935,-1.8043,-1.8097,-1.8118,-1.8192,-1.8287,-1.8314,-1.8321,-1.8148,-1.798,-1.6769,-1.5481,-1.4575,-1.4114,-1.4082,-1.4098,-1.4618,-1.5899,-1.7289,-1.796,-2.032,-2.032,-2.032,-2.032,-2.032,-2.032,-2.032,-2.032,-2.032,-2.032,-2.032,-2.032,-2.032,-2.032,-2.032,-2.032,-2.032,-2.032,-2.032,-2.032,-2.032,-2.032,-2.032,-2.032,-2.0328,-2.016,-1.9867,-1.9493,-1.9295,-1.8755,-1.8326,-1.7998,-1.7772,-1.7827,-1.7738,-1.7704,-1.7684,-1.7677,-1.767,-1.7656,-1.7534,-1.7412,-1.7283,-1.7182,-1.7053,-1.6985,-1.6978,-1.6978,-1.6978,-1.6985,-1.6985,-1.7032,-1.71,-1.7114,-1.7188,-1.7311,-1.7331,-1.7372,-1.7419,-1.7378,-1.7338,-1.7338,-1.7392,-1.7467,-1.7548,-1.7561,-1.7616,-1.7677,-1.7724,-1.7758,-1.7792,-1.7826,-1.7853,-1.786,-1.786,-1.786,-1.786,-1.786,-1.786,-1.786,-1.786,-1.786,-1.786,-1.786,-1.786,-1.786,-1.786,-1.786,-1.7867,-1.7887,-1.7901,-1.7941,-1.7962,-1.8002,-1.8016,-1.8111,-1.8226,-1.826,-1.8294,-1.8369,-1.8443,-1.8336,-1.8349,-1.8053,-1.7058,-1.5544,-1.3809,-1.1738,-1.1143,-1.1674,-1.2276,-1.2798,-1.4533,-1.6586,-1.7843,-2.032,-2.032,-2.032,-2.032,-2.032,-2.032,-2.032,-2.032,-2.032,-2.032,-2.032,-2.032,-2.032,-2.032,-2.032,-2.032,-2.032,-2.032,-2.032,-2.032,-2.032,-2.032,-2.032,-2.0232,-2.0248,-2.0103,-1.9734,-1.9265,-1.8899,-1.8508,-1.8177,-1.804,-1.786,-1.7853,-1.7853,-1.786,-1.786,-1.786,-1.7853,-1.7826,-1.7697,-1.7568,-1.7419,-1.7277,-1.7134,-1.7026,-1.6998,-1.6985,-1.7012,-1.7039,-1.7073,-1.7127,-1.7202,-1.7283,-1.7344,-1.7433,-1.7494,-1.75,-1.7534,-1.7507,-1.7514,-1.7561,-1.7568,-1.7629,-1.7677,-1.7711,-1.7751,-1.7812,-1.7846,-1.786,-1.786,-1.786,-1.786,-1.786,-1.786,-1.786,-1.786,-1.786,-1.786,-1.786,-1.786,-1.786,-1.786,-1.786,-1.786,-1.786,-1.786,-1.7867,-1.7874,-1.7907,-1.7968,-1.8016,-1.8084,-1.8124,-1.8165,-1.828,-1.8382,-1.8409,-1.8457,-1.8525,-1.8579,-1.8234,-1.7441,-1.6664,-1.5541,-1.3946,-1.2066,-0.9826,-0.9458,-0.9674,-1.0743,-1.1932,-1.345,-1.5519,-1.7755,-2.032,-2.032,-2.032,-2.032,-2.032,-2.032,-2.032,-2.032,-2.032,-2.032,-2.032,-2.032,-2.032,-2.032,-2.032,-2.032,-2.032,-2.032,-2.032,-2.032,-2.032,-2.032,-2.0328,-2.024,-2.0216,-1.9742,-1.9372,-1.9107,-1.8596,-1.8184,-1.7943,-1.7964,-1.786,-1.786,-1.786,-1.786,-1.786,-1.786,-1.786,-1.7846,-1.7806,-1.7684,-1.7541,-1.7419,-1.727,-1.7148,-1.7093,-1.7066,-1.7114,-1.7175,-1.7188,-1.727,-1.7392,-1.7412,-1.7494,-1.7623,-1.7643,-1.7704,-1.7812,-1.7711,-1.7711,-1.7765,-1.7751,-1.7792,-1.7833,-1.7846,-1.7833,-1.786,-1.786,-1.786,-1.786,-1.786,-1.786,-1.786,-1.786,-1.786,-1.786,-1.786,-1.786,-1.786,-1.786,-1.786,-1.786,-1.786,-1.786,-1.786,-1.786,-1.7874,-1.7901,-1.7955,-1.8023,-1.8138,-1.8213,-1.8274,-1.8335,-1.845,-1.8531,-1.8565,-1.8247,-1.7826,-1.7048,-1.6121,-1.5448,-1.501,-1.3372,-1.1503,-0.9631,-0.7752,-0.8206,-0.8779,-1.0424,-1.1729,-1.3022,-1.4777,-1.7471,-2.0255,-2.0166,-2.0271,-2.032,-2.032,-2.032,-2.032,-2.032,-2.032,-2.032,-2.032,-2.032,-2.032,-2.032,-2.032,-2.032,-2.032,-2.032,-2.032,-2.032,-2.032,-2.032,-2.0344,-2.0329,-2.0207,-1.9804,-1.9355,-1.8987,-1.8515,-1.8122,-1.7964,-1.786,-1.786,-1.786,-1.786,-1.786,-1.786,-1.786,-1.786,-1.786,-1.7846,-1.7731,-1.7629,-1.7561,-1.7412,-1.7311,-1.7249,-1.7229,-1.7277,-1.7331,-1.7344,-1.7419,-1.7541,-1.7568,-1.7636,-1.7751,-1.7785,-1.7806,-1.7853,-1.7806,-1.7812,-1.7846,-1.786,-1.786,-1.786,-1.786,-1.786,-1.786,-1.786,-1.786,-1.786,-1.786,-1.786,-1.786,-1.786,-1.786,-1.786,-1.786,-1.786,-1.786,-1.786,-1.786,-1.786,-1.7874,-1.7874,-1.7894,-1.7901,-1.7955,-1.7996,-1.8036,-1.8104,-1.8247,-1.8348,-1.8416,-1.8376,-1.8112,-1.805,-1.7961,-1.7048,-1.6023,-1.5116,-1.3956,-1.3139,-1.2434,-1.0684,-0.8811,-0.8576,-0.8342,-0.7758,-0.8224,-1.0567,-1.2438,-1.3839,-1.5714,-1.8059,-2.0166,-2.0093,-2.0247,-2.032,-2.032,-2.032,-2.032,-2.032,-2.032,-2.032,-2.032,-2.032,-2.032,-2.032,-2.032,-2.032,-2.032,-2.032,-2.032,-2.032,-2.032,-2.032,-2.0377,-2.0288,-1.9871,-1.9562,-1.9222,-1.8748,-1.8279,-1.804,-1.797,-1.786,-1.786,-1.786,-1.786,-1.786,-1.786,-1.786,-1.786,-1.786,-1.784,-1.7779,-1.7704,-1.7636,-1.7548,-1.7467,-1.7433,-1.7426,-1.7453,-1.748,-1.7521,-1.7575,-1.767,-1.7738,-1.7772,-1.784,-1.786,-1.786,-1.786,-1.786,-1.7846,-1.786,-1.786,-1.786,-1.786,-1.786,-1.786,-1.786,-1.786,-1.786,-1.786,-1.786,-1.786,-1.786,-1.786,-1.786,-1.786,-1.786,-1.786,-1.786,-1.7874,-1.7874,-1.788,-1.788,-1.7887,-1.7921,-1.7948,-1.8023,-1.8104,-1.8172,-1.8233,-1.8369,-1.8491,-1.8451,-1.8037,-1.7389,-1.7317,-1.7465,-1.5831,-1.3839,-1.2901,-1.1733,-1.0798,-0.9865,-0.8227,-0.7523,-0.8928,-0.9162,-0.9514,-1.0333,-1.2088,-1.3606,-1.4893,-1.6645,-1.8646,-2.0052,-2.0076,-2.0231,-2.0296,-2.0304,-2.0312,-2.032,-2.032,-2.032,-2.032,-2.032,-2.032,-2.032,-2.032,-2.032,-2.032,-2.032,-2.032,-2.032,-2.032,-2.032,-2.032,-2.0063,-1.9972,-1.9592,-1.9133,-1.8763,-1.847,-1.795,-1.797,-1.797,-1.786,-1.786,-1.786,-1.786,-1.786,-1.786,-1.786,-1.786,-1.786,-1.7846,-1.7846,-1.7779,-1.7717,-1.7656,-1.7595,-1.7548,-1.7507,-1.7561,-1.7609,-1.7656,-1.7738,-1.7806,-1.7853,-1.786,-1.786,-1.786,-1.786,-1.786,-1.786,-1.786,-1.786,-1.786,-1.786,-1.786,-1.786,-1.786,-1.786,-1.786,-1.786,-1.786,-1.786,-1.786,-1.786,-1.786,-1.786,-1.786,-1.786,-1.786,-1.7874,-1.7894,-1.7907,-1.7928,-1.7935,-1.8009,-1.8077,-1.8124,-1.8179,-1.826,-1.8362,-1.843,-1.8511,-1.8511,-1.8592,-1.7813,-1.6517,-1.547,-1.5243,-1.2906,-1.1032,-1.0216,-0.9514,-0.8693,-0.7641,-0.6119,-0.6471,-0.9045,-1.1032,-1.22,-1.3139,-1.3722,-1.4893,-1.6064,-1.7233,-1.8762,-1.9792,-1.9695,-1.9865,-2.0011,-2.015,-2.0263,-2.032,-2.032,-2.032,-2.032,-2.032,-2.032,-2.032,-2.032,-2.032,-2.032,-2.032,-2.032,-2.032,-2.032,-2.032,-2.0007,-1.9862,-1.9656,-1.9189,-1.8818,-1.8437,-1.8265,-1.8053,-1.786,-1.786,-1.786,-1.786,-1.786,-1.786,-1.786,-1.786,-1.786,-1.786,-1.786,-1.786,-1.786,-1.7819,-1.7799,-1.7779,-1.7731,-1.7711,-1.7697,-1.7751,-1.7772,-1.7799,-1.784,-1.7846,-1.786,-1.786,-1.786,-1.786,-1.786,-1.786,-1.786,-1.786,-1.786,-1.786,-1.786,-1.786,-1.786,-1.786,-1.786,-1.786,-1.786,-1.786,-1.786,-1.786,-1.786,-1.786,-1.786,-1.786,-1.786,-1.7867,-1.7921,-1.7948,-1.8023,-1.8036,-1.8104,-1.8186,-1.8253,-1.8314,-1.8348,-1.8409,-1.8504,-1.7991,-1.8063,-1.7871,-1.7575,-1.6413,-1.5005,-1.3839,-1.2672,-1.0333,-0.8579,-0.7993,-0.7406,-0.6587,-0.6939,-0.7875,-0.8928,-1.0333,-1.2205,-1.4422,-1.4305,-1.4777,-1.5947,-1.7239,-1.8175,-1.8762,-1.9613,-1.9549,-1.9711,-1.9857,-1.9979,-2.0141,-2.0214,-2.0231,-2.0288,-2.032,-2.032,-2.032,-2.032,-2.032,-2.032,-2.032,-2.032,-2.032,-2.032,-2.032,-2.0216,-1.9903,-1.9757,-1.9446,-1.8977,-1.8496,-1.822,-1.8053,-1.7936,-1.786,-1.786,-1.786,-1.786,-1.786,-1.786,-1.786,-1.786,-1.786,-1.786,-1.786,-1.786,-1.786,-1.786,-1.786,-1.786,-1.786,-1.786,-1.786,-1.786,-1.786,-1.786,-1.786,-1.786,-1.786,-1.786,-1.786,-1.786,-1.786,-1.786,-1.786,-1.786,-1.786,-1.786,-1.786,-1.786,-1.786,-1.786,-1.786,-1.786,-1.786,-1.786,-1.786,-1.786,-1.786,-1.786,-1.786,-1.786,-1.786,-1.7907,-1.7975,-1.8057,-1.8145,-1.8219,-1.8287,-1.8348,-1.8396,-1.845,-1.8504,-1.8552,-1.8626,-1.7505,-1.6725,-1.6505,-1.618,-1.4777,-1.3022,-1.1386,-0.9748,-0.7758,-0.6236,-0.5766,-0.6001,-0.6001,-0.8342,-1.1382,-1.1854,-1.1737,-1.4544,-1.6535,-1.5947,-1.5592,-1.7,-1.782,-1.8407,-1.8762,-1.9492,-1.95,-1.9687,-1.976,-1.9792,-1.9971,-2.0068,-2.0085,-2.0247,-2.032,-2.032,-2.032,-2.032,-2.032,-2.032,-2.032,-2.032,-2.032,-2.032,-2.0216,-2.0111,-1.9798,-1.9322,-1.9016,-1.8521,-1.8159,-1.788,-1.7786,-1.7929,-1.786,-1.786,-1.786,-1.786,-1.786,-1.786,-1.786,-1.786,-1.786,-1.786,-1.786,-1.786,-1.786,-1.786,-1.786,-1.786,-1.786,-1.786,-1.786,-1.786,-1.786,-1.786,-1.786,-1.786,-1.786,-1.786,-1.786,-1.786,-1.786,-1.786,-1.786,-1.786,-1.786,-1.786,-1.786,-1.786,-1.786,-1.786,-1.786,-1.786,-1.786,-1.786,-1.786,-1.786,-1.786,-1.786,-1.786,-1.786,-1.7907,-1.8002,-1.8091,-1.8226,-1.8314,-1.8348,-1.8416,-1.8511,-1.8545,-1.8579,-1.864,-1.8314,-1.8374,-1.6982,-1.5476,-1.466,-1.3956,-1.185,-1.0099,-0.8462,-0.6704,-0.5298,-0.4711,-0.4711,-0.518,-0.5649,-0.9279,-1.3139,-1.2906,-1.3372,-1.501,-1.5831,-1.5831,-1.6064,-1.782,-1.8523,-1.8639,-1.8762,-1.9321,-1.9337,-1.9508,-1.9581,-1.9622,-1.993,-2.006,-2.0085,-2.0247,-2.032,-2.032,-2.032,-2.032,-2.032,-2.032,-2.032,-2.032,-2.032,-2.032,-2.0111,-1.9903,-1.9381,-1.8865,-1.8422,-1.7939,-1.768,-1.75,-1.7643,-1.7812,-1.786,-1.786,-1.786,-1.786,-1.786,-1.786,-1.786,-1.786,-1.786,-1.786,-1.786,-1.786,-1.786,-1.786,-1.786,-1.786,-1.786,-1.786,-1.786,-1.786,-1.786,-1.786,-1.786,-1.786,-1.786,-1.786,-1.786,-1.786,-1.786,-1.786,-1.786,-1.786,-1.786,-1.786,-1.786,-1.786,-1.786,-1.786,-1.786,-1.786,-1.786,-1.786,-1.786,-1.786,-1.786,-1.788,-1.788,-1.788,-1.7996,-1.8111,-1.8247,-1.8389,-1.8464,-1.8498,-1.8559,-1.8654,-1.8694,-1.8701,-1.8496,-1.7665,-1.7226,-1.5587,-1.4072,-1.2672,-1.1386,-0.9162,-0.7758,-0.6587,-0.5651,-0.4476,-0.4006,-0.3889,-0.6704,-0.9279,-1.185,-1.4311,-1.3489,-1.2789,-1.2551,-1.3372,-1.4189,-1.5476,-1.6884,-1.7936,-1.8175,-1.8523,-1.9264,-1.9272,-1.9362,-1.9402,-1.9467,-1.9792,-1.9946,-1.9987,-2.0206,-2.032,-2.032,-2.032,-2.032,-2.032,-2.032,-2.032,-2.032,-2.032,-2.0111,-1.9903,-1.959,-1.8962,-1.8454,-1.7987,-1.7755,-1.7499,-1.7575,-1.7731,-1.7846,-1.786,-1.786,-1.786,-1.786,-1.786,-1.786,-1.786,-1.786,-1.786,-1.786,-1.786,-1.786,-1.786,-1.786,-1.786,-1.786,-1.786,-1.786,-1.786,-1.786,-1.786,-1.786,-1.786,-1.786,-1.786,-1.786,-1.786,-1.786,-1.786,-1.786,-1.786,-1.786,-1.786,-1.7867,-1.7874,-1.786,-1.786,-1.786,-1.786,-1.786,-1.786,-1.786,-1.786,-1.786,-1.786,-1.7955,-1.8016,-1.8111,-1.824,-1.8321,-1.8396,-1.8525,-1.862,-1.8647,-1.8654,-1.8728,-1.8258,-1.84,-1.8407,-1.7471,-1.5598,-1.4077,-1.2555,-1.1036,-0.8814,-0.6471,-0.5649,-0.518,-0.436,-0.3772,-0.4829,-0.5884,-0.9982,-1.3372,-1.3722,-1.3722,-1.3018,-1.2317,-1.1148,-1.1616,-1.2667,-1.4072,-1.5592,-1.6535,-1.7239,-1.6535,-1.9264,-1.9264,-1.9264,-1.9264,-1.9305,-1.9613,-1.9776,-1.9849,-2.0133,-2.0304,-2.032,-2.032,-2.032,-2.032,-2.032,-2.032,-2.0216,-2.0111,-1.9806,-1.9597,-1.9284,-1.8649,-1.8183,-1.7861,-1.7611,-1.7602,-1.7697,-1.7779,-1.786,-1.786,-1.786,-1.786,-1.786,-1.786,-1.786,-1.786,-1.786,-1.786,-1.786,-1.786,-1.786,-1.786,-1.786,-1.786,-1.786,-1.786,-1.786,-1.786,-1.786,-1.786,-1.786,-1.786,-1.786,-1.786,-1.786,-1.786,-1.786,-1.786,-1.786,-1.786,-1.786,-1.7867,-1.7874,-1.7894,-1.7901,-1.7921,-1.7921,-1.7935,-1.7935,-1.7921,-1.7921,-1.7935,-1.7935,-1.7948,-1.807,-1.8179,-1.8321,-1.8443,-1.8491,-1.8538,-1.8633,-1.8742,-1.8755,-1.8762,-1.8639,-1.8175,-1.7943,-1.7943,-1.7123,-1.4427,-1.22,-1.0567,-0.9048,-0.6589,-0.436,-0.4124,-0.4358,-0.4124,-0.4006,-0.5651,-0.7526,-1.0684,-1.2555,-1.2789,-1.2551,-1.1382,-1.0213,-0.8928,-0.9748,-1.1032,-1.1382,-1.2667,-1.501,-1.5243,-1.3722,-1.9264,-1.9264,-1.9264,-1.9264,-1.9297,-1.9484,-1.9646,-1.9808,-2.002,-2.019,-2.0296,-2.032,-2.032,-2.032,-2.032,-2.0216,-2.0111,-1.9903,-1.9702,-1.9493,-1.8649,-1.8125,-1.7762,-1.7586,-1.7465,-1.7575,-1.7772,-1.784,-1.786,-1.786,-1.786,-1.786,-1.786,-1.7867,-1.7867,-1.7874,-1.7887,-1.7894,-1.7907,-1.7914,-1.7894,-1.7887,-1.7867,-1.786,-1.786,-1.786,-1.786,-1.786,-1.786,-1.786,-1.7874,-1.7874,-1.786,-1.786,-1.786,-1.786,-1.786,-1.786,-1.786,-1.7887,-1.7901,-1.7907,-1.7948,-1.805,-1.8084,-1.8145,-1.8158,-1.8186,-1.8179,-1.8145,-1.8145,-1.8172,-1.8186,-1.8206,-1.828,-1.8369,-1.8477,-1.8531,-1.8572,-1.8633,-1.8715,-1.8755,-1.8755,-1.8762,-1.8762,-1.8407,-1.8059,-1.7943,-1.7826,-1.4427,-1.0447,-0.9045,-0.7523,-0.5651,-0.389,-0.389,-0.4006,-0.389,-0.4594,-0.6821,-0.8811,-1.033,-1.1733,-1.1616,-1.0213,-0.8693,-0.7523,-0.6821,-0.8224,-0.9279,-0.8576,-0.9514,-1.2205,-1.3139,-1.1382]}]]